GFSCGP_sfc_thetae_000.txt.gz
Theta_e
300 294 291 294 297 297 296 293 292 296 298 294 293 294 296 298 298 298 299 300 299 299 300 301 300 298 297 295 293 293 292 291 292 290 288 287 288 287 287 288 288 288 288 288
295 292 297 298 297 294 293 291 291 295 297 293 292 292 296 296 298 299 299 299 299 297 297 297 297 296 296 294 293 292 292 291 292 291 289 288 288 287 287 288 288 288 287 287
293 295 299 297 294 293 292 290 290 291 294 292 289 288 291 295 298 298 298 300 297 297 297 295 295 295 294 293 292 292 292 292 291 290 289 287 286 286 285 285 285 287 287 286
294 298 297 294 293 294 289 294 293 292 288 284 289 283 289 291 294 294 296 298 294 296 297 296 294 293 293 292 292 292 292 291 291 290 288 286 284 282 284 285 286 286 286 285
292 292 291 291 293 295 291 291 290 289 287 286 286 283 286 292 290 292 295 298 296 297 296 294 293 294 294 292 292 291 291 291 290 289 288 286 283 284 285 285 284 283 284 284
292 294 293 293 292 292 292 289 288 286 285 280 285 285 283 288 291 292 294 296 296 295 294 294 293 293 293 291 291 291 290 290 290 288 287 286 285 284 283 282 282 282 282 282
290 291 291 293 290 290 289 286 279 278 277 280 287 284 289 291 293 294 294 295 295 295 293 292 291 291 291 290 290 290 290 289 289 287 286 286 285 284 283 283 282 281 280 280
285 285 290 292 291 290 287 288 281 274 278 282 282 281 287 295 296 295 296 295 295 294 294 292 292 291 291 290 290 289 289 288 288 287 286 286 285 286 284 283 283 281 280 280
286 286 289 291 291 293 288 284 290 282 277 278 285 287 292 294 294 294 293 292 293 293 294 293 293 291 290 290 289 289 289 288 288 286 286 285 285 283 283 281 280 279 279 279
290 286 290 287 288 288 287 289 282 283 273 272 282 283 287 291 294 292 291 291 292 293 293 293 293 292 291 290 290 289 289 288 287 286 285 285 284 282 281 279 278 278 277 277
290 289 286 286 284 285 283 283 285 286 284 277 278 283 289 290 291 292 292 292 293 294 293 292 292 292 291 290 289 288 288 287 286 284 284 283 282 280 279 279 278 277 277 276
293 290 284 286 290 287 288 287 288 283 281 280 283 284 293 291 292 292 292 294 294 295 295 294 293 291 290 289 288 287 287 286 286 284 283 281 280 279 278 277 276 276 275 275
292 286 281 282 288 286 284 287 288 288 286 283 280 283 294 295 294 292 291 292 293 294 294 294 292 290 290 289 288 287 286 286 285 283 282 280 279 278 276 276 276 275 275 274
295 287 285 281 284 288 284 285 285 286 282 283 283 285 290 293 294 295 296 296 293 293 294 293 292 290 290 289 288 287 286 285 284 282 281 279 277 277 275 275 275 274 273 273
293 284 285 287 289 288 286 286 287 285 285 282 285 286 290 292 293 295 296 294 294 293 294 293 292 291 291 287 287 286 286 285 284 281 279 277 276 275 275 274 273 272 272 272
293 285 285 283 286 286 284 286 287 287 287 287 287 286 293 294 295 294 294 295 294 295 296 295 291 289 288 287 287 285 285 284 283 280 277 276 275 274 273 272 271 271 270 270
287 285 283 280 285 284 280 285 287 288 290 288 284 290 294 293 294 294 295 296 296 296 296 292 291 290 288 287 286 284 284 283 281 278 276 274 274 272 271 271 270 270 269 270
289 286 286 282 284 275 285 291 290 288 290 292 291 293 295 295 296 297 297 295 295 296 296 294 289 290 289 287 283 282 282 281 278 277 275 273 272 271 270 269 269 269 269 269
294 289 284 280 280 284 286 289 288 286 287 292 291 293 294 295 295 295 299 298 298 297 298 297 292 291 290 285 283 281 279 277 276 274 273 272 272 270 269 268 268 268 268 268
291 291 286 284 279 277 286 291 294 293 282 293 294 293 293 294 287 292 298 297 293 293 293 291 290 289 285 281 281 279 277 275 274 273 272 272 271 269 268 268 268 268 268 267
283 284 282 283 281 283 290 292 291 280 284 294 295 294 294 291 293 295 294 291 291 291 291 288 286 285 283 280 279 277 275 274 275 273 271 270 269 268 268 267 267 266 266 267
282 280 280 282 279 277 289 289 285 288 292 291 290 291 291 293 294 293 292 290 288 288 284 283 283 282 280 279 278 276 274 274 273 271 269 268 267 267 267 266 265 264 265 264
276 277 274 277 278 287 289 285 286 291 286 287 288 289 289 289 291 291 291 290 289 287 285 281 279 277 277 276 277 275 274 272 270 268 267 265 265 264 264 264 263 263 264 265
276 280 277 276 283 281 281 285 287 287 284 285 285 286 288 287 289 288 289 289 288 283 284 276 275 274 273 273 275 274 273 271 268 266 264 263 263 262 262 264 264 264 264 265
274 276 273 273 277 279 282 284 284 283 283 282 284 285 285 286 286 288 289 290 290 287 279 276 277 277 278 274 274 273 270 268 267 265 264 263 263 263 263 265 265 266 267 267
276 274 272 271 278 278 278 280 282 277 276 278 280 280 281 283 283 285 286 286 286 287 285 277 277 277 277 274 273 270 269 268 266 265 264 263 262 263 264 264 265 270 269 271

GFSCGP_sfc_thetae_003.txt.gz
Theta_e
297 290 288 292 292 292 289 288 287 292 295 293 293 293 296 297 294 294 295 297 299 298 300 297 298 299 297 294 292 291 291 292 292 291 289 288 287 285 285 286 287 286 286 287
292 289 294 294 294 292 290 288 288 292 293 292 291 292 294 294 296 297 297 297 299 296 296 296 295 294 294 292 292 291 291 291 292 292 291 287 287 285 285 286 286 286 286 286
291 293 297 295 293 291 291 288 289 289 291 290 288 286 290 293 294 297 298 298 299 296 294 293 292 293 293 291 290 291 291 291 291 291 289 286 286 284 284 284 284 285 286 286
291 296 294 291 290 292 288 292 292 289 286 284 287 282 287 290 291 293 295 297 294 292 294 293 292 291 291 291 291 291 291 291 291 289 289 286 287 285 286 286 285 285 285 285
290 289 289 290 292 292 290 291 289 287 285 283 284 282 284 289 288 292 295 297 296 293 294 293 293 295 292 291 290 290 290 290 290 289 289 287 286 286 283 284 284 284 283 284
289 290 291 291 290 291 291 287 286 284 283 280 283 283 284 285 289 290 295 296 297 293 293 294 293 292 290 289 290 289 289 289 290 289 288 287 285 283 283 284 283 283 283 282
286 288 289 292 288 288 288 285 278 276 274 279 285 281 288 289 291 293 295 295 296 293 292 290 290 291 290 288 289 289 289 288 288 288 287 287 285 285 283 284 284 282 282 280
283 283 288 290 291 287 285 286 279 273 276 282 279 279 286 292 295 294 295 296 292 292 291 291 290 290 289 289 288 289 288 288 287 288 286 286 285 285 284 284 284 283 283 281
283 284 288 289 289 291 285 283 289 281 271 275 284 286 290 292 292 292 293 289 291 292 290 291 289 289 288 288 288 289 288 288 287 287 286 285 285 285 284 283 283 282 281 280
289 284 289 286 287 287 287 288 281 281 274 272 282 279 286 290 293 294 291 290 290 291 291 291 289 289 289 289 289 289 289 288 287 287 286 285 285 285 284 282 281 280 280 279
290 288 286 285 284 285 284 284 285 285 282 280 278 283 289 287 291 292 291 290 290 291 291 291 291 291 290 289 288 288 287 287 286 285 285 285 284 284 282 282 281 280 279 278
291 288 282 283 287 287 287 286 286 282 280 280 282 284 293 289 289 290 290 291 290 292 292 291 291 290 288 288 287 287 287 287 287 285 284 284 282 281 281 281 279 278 278 277
292 285 280 282 286 285 285 285 287 287 283 281 279 282 295 295 293 290 289 290 291 292 292 292 290 289 290 289 288 288 287 287 286 283 282 282 281 280 280 278 277 277 276 276
297 287 284 282 285 287 283 283 285 286 281 283 283 285 290 292 293 294 295 296 297 293 295 294 292 290 289 289 288 287 286 286 284 283 282 281 280 280 278 277 276 276 275 274
293 285 286 287 289 288 287 286 287 285 286 282 285 286 289 291 293 294 296 296 293 290 292 293 293 292 290 289 288 287 286 284 284 283 282 281 280 279 277 276 276 274 274 273
293 286 288 285 288 287 285 288 288 288 288 287 287 287 294 296 297 295 296 296 295 295 295 294 292 291 289 288 289 286 286 283 283 282 281 280 278 276 275 275 273 273 272 272
289 286 285 282 287 286 282 286 288 288 289 288 284 289 293 293 294 295 296 297 296 296 296 294 293 291 289 288 287 285 285 283 282 281 280 277 276 275 274 274 273 272 271 271
287 285 285 282 284 276 285 290 290 288 290 291 291 292 294 295 296 297 299 297 297 298 298 292 290 290 290 289 286 286 281 282 282 281 279 276 275 274 273 272 272 271 270 270
292 288 283 280 280 283 286 286 287 286 286 291 291 293 294 295 295 295 298 296 297 297 298 298 293 292 290 289 287 283 281 281 280 279 277 275 275 273 272 271 271 270 269 269
289 290 285 282 277 274 285 289 292 292 282 284 285 285 286 288 285 288 294 293 292 292 292 290 291 289 289 287 282 281 280 279 278 278 277 275 274 273 271 271 270 269 269 268
280 282 280 281 279 280 284 286 290 280 276 284 284 284 283 283 286 290 291 290 290 290 288 287 285 285 285 281 279 279 278 278 278 276 274 273 273 272 271 270 270 268 268 269
274 273 273 277 276 274 285 284 275 278 284 283 282 282 282 284 285 287 288 288 288 289 290 288 284 283 281 279 278 277 277 276 274 274 272 271 271 271 269 268 267 267 267 266
271 275 271 273 273 278 283 280 282 286 282 281 281 282 283 283 284 285 286 287 288 289 289 290 286 281 279 276 278 278 275 273 272 271 271 270 268 268 267 266 265 265 265 265
273 276 273 272 276 277 278 281 283 282 280 280 280 279 281 282 282 281 282 284 284 285 286 288 288 287 286 278 278 279 275 274 271 269 268 267 266 265 266 266 266 266 265 266
273 275 270 271 275 276 278 280 279 279 277 276 276 277 276 275 275 277 277 279 281 283 285 286 285 284 285 284 279 279 274 273 271 270 267 266 266 265 264 266 266 266 268 269
276 274 271 269 276 274 275 276 277 273 272 272 273 272 273 273 272 274 274 275 276 277 279 282 284 282 284 285 280 279 275 273 271 268 266 266 265 265 265 265 266 271 271 273

GFSCGP_sfc_thetae_006.txt.gz
Theta_e
294 289 287 292 291 292 286 285 285 289 293 290 290 292 295 298 294 292 294 297 298 299 302 298 297 297 296 295 294 293 292 292 293 291 290 289 289 288 286 286 287 286 286 286
290 287 293 294 291 291 290 288 288 291 293 289 290 290 294 294 297 297 297 297 297 298 300 294 294 293 294 294 293 292 292 292 293 293 293 290 289 285 287 287 287 287 286 285
290 291 295 292 290 289 289 287 288 288 289 288 286 287 288 292 294 297 295 297 299 300 300 296 293 292 292 292 292 291 292 292 293 292 290 285 285 283 283 284 284 285 285 285
289 294 293 290 289 291 288 291 290 288 284 283 286 282 286 289 291 293 294 296 296 298 297 296 292 290 290 291 291 292 292 291 292 291 289 287 289 286 286 286 284 283 285 284
288 289 289 288 291 291 290 289 288 285 283 282 282 281 285 288 287 291 295 295 297 298 293 293 292 293 291 289 290 290 290 291 290 290 290 288 288 288 283 283 283 283 283 284
289 289 290 290 290 290 289 287 286 283 282 279 283 282 284 284 288 289 293 295 296 298 294 293 292 291 288 287 288 289 289 289 288 289 288 288 288 284 284 283 283 283 283 283
284 286 287 290 287 287 288 285 278 275 274 277 284 280 288 289 292 291 294 295 296 297 291 290 290 290 288 287 287 288 288 288 288 288 288 287 287 285 285 284 284 283 282 282
281 283 287 289 289 286 285 286 281 273 276 282 279 279 286 291 293 293 293 294 294 292 292 292 290 291 289 288 287 288 288 288 288 288 288 288 287 285 286 284 284 284 283 283
282 284 287 288 288 290 283 282 288 281 269 273 283 285 290 289 291 291 291 292 292 291 291 291 289 289 288 287 288 288 287 288 288 288 288 287 287 285 285 284 284 284 283 281
287 283 288 285 287 286 287 288 281 280 275 272 280 279 285 288 289 289 290 292 292 290 289 289 288 288 287 288 288 288 288 288 287 287 287 286 286 285 285 282 282 282 281 281
290 287 286 284 283 285 283 284 284 284 283 280 279 282 287 287 286 288 291 293 289 290 291 290 290 289 288 287 287 287 287 286 285 286 286 285 284 284 283 282 281 280 280 280
292 288 284 287 289 286 286 287 288 283 280 280 281 282 295 295 294 294 293 294 291 290 291 291 291 290 288 287 286 287 288 287 287 286 285 285 284 283 282 282 281 280 280 279
294 288 283 283 288 289 283 286 287 286 285 283 280 282 295 295 294 295 293 295 292 291 290 291 292 292 292 290 288 288 288 287 287 285 284 283 282 282 283 282 280 280 279 278
297 290 286 281 285 287 284 284 284 285 282 283 283 285 290 292 293 295 295 296 292 294 293 293 294 293 292 291 290 288 288 287 286 285 284 283 282 282 282 282 280 279 279 277
294 286 288 289 290 290 289 288 289 286 287 283 285 286 290 292 294 295 297 298 294 292 292 295 294 294 294 290 290 289 289 287 286 285 283 283 283 283 282 279 279 278 278 277
290 285 288 285 288 287 285 288 289 288 288 288 288 287 294 296 296 295 296 297 297 296 296 296 294 292 290 291 292 289 289 286 285 284 283 283 282 281 279 278 278 277 276 275
285 284 283 280 284 283 280 286 287 288 289 289 284 289 291 290 291 294 295 291 289 291 291 290 291 292 291 292 290 289 288 285 283 284 283 281 280 279 277 277 276 275 275 274
284 283 283 279 281 273 284 290 291 288 290 292 288 284 283 283 285 289 289 289 288 288 288 289 290 291 291 292 291 288 284 283 283 283 281 280 278 277 276 276 275 275 275 274
284 283 279 277 276 281 285 285 283 282 282 281 281 280 281 281 282 286 286 286 286 287 288 289 290 290 289 288 287 285 279 280 281 281 281 279 278 277 275 275 275 275 274 273
280 281 277 275 270 270 275 279 281 283 279 278 280 280 280 280 273 277 284 286 287 289 289 289 290 289 289 288 283 280 278 277 279 280 279 278 278 277 275 275 274 274 274 273
264 266 267 271 270 274 277 281 282 273 271 280 280 279 279 276 279 281 283 285 286 286 286 287 288 287 288 285 281 281 277 277 276 276 274 273 274 274 274 274 273 272 272 271
268 268 266 268 263 265 278 276 271 276 281 282 281 279 279 279 280 281 283 282 281 282 284 285 285 285 287 288 281 282 280 277 273 273 272 272 272 273 273 271 271 271 271 269
265 270 265 270 269 277 279 278 280 283 277 278 278 278 277 277 278 278 277 278 278 279 280 282 283 284 285 287 283 281 283 273 271 273 273 272 270 271 271 270 269 268 269 269
272 275 269 269 274 275 277 279 280 280 278 277 277 275 276 274 274 274 275 275 275 277 277 278 278 279 280 284 285 284 284 276 274 273 272 271 270 269 270 270 269 269 269 268
272 273 270 271 275 276 277 277 277 277 276 275 275 274 274 272 272 273 272 272 273 273 273 274 273 273 274 277 282 285 285 276 274 273 272 270 270 269 269 270 269 270 270 271
275 273 271 269 276 275 276 279 277 274 273 273 272 272 272 272 271 271 270 271 271 270 271 269 269 270 271 273 274 276 282 276 276 273 271 270 269 268 268 268 268 274 273 275

GFSCGP_sfc_thetae_009.txt.gz
Theta_e
292 288 286 291 290 291 285 284 284 287 292 288 289 290 293 296 296 296 293 296 298 298 301 302 296 295 295 293 294 294 293 294 294 292 290 291 291 290 289 288 288 288 287 287
289 286 292 292 290 289 287 287 286 290 292 287 289 289 291 293 294 296 297 297 298 298 299 300 294 293 293 294 294 294 293 292 294 294 294 291 292 287 289 288 287 287 286 286
289 290 294 291 289 287 287 285 287 287 288 287 286 287 289 290 291 295 296 298 298 297 298 299 293 292 291 291 292 293 293 292 294 293 290 285 284 283 283 284 286 286 286 285
288 292 291 289 287 289 286 289 289 287 283 282 285 281 284 290 291 292 294 295 295 296 297 297 294 291 291 292 291 292 292 291 293 292 290 288 289 288 288 289 287 285 285 284
286 287 287 287 289 290 288 289 287 284 281 281 281 279 283 287 287 290 292 293 295 296 296 296 292 292 292 289 289 290 290 291 292 291 291 289 290 290 284 283 283 284 283 284
288 288 289 289 289 289 289 286 284 282 281 277 282 282 283 284 287 288 290 293 294 294 296 292 292 291 289 286 287 288 289 290 290 290 290 289 290 286 285 283 284 284 283 283
283 285 286 289 286 286 286 283 277 275 273 277 282 279 288 290 292 290 293 292 293 293 292 295 291 290 287 285 286 287 288 288 288 289 289 288 289 287 286 284 285 283 282 282
280 284 286 288 288 285 284 284 278 271 275 281 279 278 288 291 291 289 291 291 291 291 292 290 291 289 287 286 286 287 287 288 287 288 288 288 288 287 286 285 285 284 284 284
281 282 285 287 287 289 283 281 286 280 273 274 282 284 290 289 289 288 289 289 291 293 292 290 290 288 287 285 285 286 287 288 287 288 288 287 287 285 286 284 284 284 284 283
287 282 287 285 286 286 286 287 280 279 273 274 279 282 284 288 292 291 290 291 292 292 290 290 289 288 287 286 286 286 286 287 287 287 287 287 286 286 286 283 283 283 283 282
290 287 286 287 284 287 282 282 283 283 282 279 278 281 293 290 288 288 290 291 292 292 292 291 291 290 289 287 286 287 286 285 285 285 286 286 286 285 285 283 283 283 282 281
294 289 284 286 287 288 286 285 285 280 280 282 283 283 295 295 294 293 293 296 294 291 293 292 291 291 290 289 287 287 287 286 287 286 286 286 285 284 284 283 283 283 282 281
292 287 282 283 285 285 285 288 289 288 286 281 278 282 295 295 295 296 293 291 292 293 293 293 291 292 292 292 289 287 286 287 287 285 285 284 284 283 284 283 282 282 282 280
296 289 286 281 283 287 285 285 287 286 282 282 283 284 289 292 293 295 295 293 293 291 289 290 290 290 291 292 292 290 289 287 285 284 284 284 284 283 284 284 282 281 281 280
292 284 286 287 288 288 287 286 287 286 286 282 284 286 290 292 292 291 292 290 288 287 288 288 289 289 290 290 292 292 292 287 285 284 284 284 285 284 284 283 281 281 280 280
288 281 284 282 284 284 283 286 285 285 284 283 284 284 289 283 283 284 283 283 283 284 285 287 287 288 288 289 289 289 290 290 284 285 285 285 284 283 283 283 281 280 279 279
282 281 278 275 280 279 275 280 282 284 287 283 279 277 280 279 279 282 281 281 282 284 285 286 287 288 288 289 288 288 287 287 288 285 287 284 281 281 281 280 279 279 278 278
280 278 276 273 274 266 277 282 284 281 278 279 279 278 279 278 280 282 284 281 282 283 286 288 287 286 287 288 288 287 286 285 284 285 285 281 281 282 280 279 278 278 278 277
283 279 272 264 263 273 277 277 275 275 274 279 277 278 278 279 279 279 281 282 283 284 286 285 285 287 287 286 287 285 284 284 282 281 281 280 279 280 278 278 277 278 277 277
278 280 275 262 265 263 273 275 280 279 272 278 277 278 277 277 271 274 280 282 283 284 282 282 283 284 285 285 286 285 284 284 282 279 279 277 276 276 277 278 277 277 278 276
261 260 261 257 259 265 272 275 277 263 267 276 278 277 276 275 277 279 280 281 281 280 280 280 280 280 282 283 284 283 284 283 282 277 274 272 273 273 274 276 276 275 275 275
266 259 257 256 255 260 276 275 269 272 277 278 279 278 277 278 278 278 279 278 277 276 277 278 278 278 279 279 280 280 281 284 282 276 273 272 270 272 272 272 270 273 274 273
263 268 263 266 266 276 277 276 279 279 278 278 277 278 278 275 275 276 274 274 275 275 276 276 275 273 275 275 276 275 276 279 283 283 279 275 274 272 274 273 272 272 272 271
271 275 270 268 274 274 277 278 278 279 279 279 278 277 275 273 275 274 274 274 274 274 273 274 272 271 271 272 273 273 275 277 276 278 280 276 273 272 272 272 271 272 270 271
272 273 270 270 274 276 277 278 278 278 277 276 276 275 274 273 273 273 272 272 272 272 272 271 270 269 268 269 270 270 271 272 271 274 277 276 273 272 271 272 271 272 273 273
275 273 271 269 276 275 276 279 278 276 275 274 272 272 273 272 271 271 270 271 271 270 270 268 267 266 266 266 266 267 268 268 268 269 272 275 273 272 271 271 270 276 276 276

GFSCGP_sfc_thetae_012.txt.gz
Theta_e
291 287 286 290 289 288 283 283 283 285 290 286 290 290 291 293 293 295 296 296 296 297 300 301 297 295 294 292 293 294 293 295 296 295 292 291 292 291 290 291 290 290 289 288
288 285 291 289 288 287 286 285 286 289 291 286 287 288 292 293 294 295 295 296 297 297 298 298 295 293 292 293 293 293 293 293 295 295 295 292 294 290 292 290 288 289 288 287
288 289 292 289 287 287 285 283 286 285 286 286 284 285 286 290 291 294 295 296 295 296 296 297 294 292 292 291 290 292 293 293 294 294 292 285 285 284 284 285 286 286 287 287
287 290 290 287 286 288 285 288 288 286 283 279 284 280 284 288 289 289 292 291 292 294 293 293 293 291 292 293 291 291 292 291 293 293 291 290 290 289 290 291 290 288 287 286
286 286 286 285 288 288 287 287 286 283 281 280 279 278 283 285 286 289 290 292 292 291 291 292 293 292 291 291 289 289 290 290 292 292 291 291 291 292 287 286 287 286 285 285
287 287 288 288 288 289 288 285 283 281 280 276 281 280 282 283 286 287 291 291 293 292 293 293 292 290 290 287 286 287 288 289 290 291 291 291 291 285 286 284 286 285 284 284
282 285 286 288 285 285 285 282 276 274 273 276 280 278 285 288 290 290 291 291 292 291 291 290 292 291 290 286 285 286 286 287 287 289 290 290 290 286 287 285 286 284 284 284
280 284 285 287 287 285 283 283 278 273 273 281 277 278 287 289 290 291 290 290 289 289 290 290 291 289 288 286 285 285 286 286 286 287 287 287 288 287 287 286 286 285 285 285
281 282 284 286 286 287 282 281 285 281 277 275 283 284 290 290 288 287 288 289 290 290 291 290 291 289 287 286 285 285 285 286 285 286 286 285 286 286 286 283 284 285 285 285
287 284 288 287 286 285 285 286 280 279 275 272 278 280 283 289 290 291 291 291 290 293 297 294 291 290 288 287 285 285 285 286 285 285 286 287 287 286 285 284 284 284 284 283
291 287 285 287 283 285 284 283 282 283 282 278 277 281 291 291 291 288 288 290 293 296 293 290 290 291 290 288 286 285 284 284 284 284 285 285 284 284 284 284 284 284 283 283
293 289 284 286 289 288 286 288 286 281 279 279 281 281 293 293 294 295 291 290 287 288 288 289 289 289 289 290 291 290 287 285 285 285 284 284 284 283 283 283 284 283 282 282
293 287 282 283 283 286 285 288 289 288 287 282 278 280 293 294 294 285 287 286 286 286 286 287 288 288 288 288 289 289 290 288 288 286 284 284 283 283 283 284 284 283 283 282
294 286 284 280 283 286 285 287 288 286 281 282 282 284 289 290 289 284 284 283 283 283 284 286 286 287 288 288 288 288 288 288 287 285 283 283 283 284 285 285 283 282 283 282
290 284 286 287 288 285 283 282 283 281 283 280 282 282 283 280 280 282 281 282 281 282 283 285 287 287 286 286 287 288 288 287 286 285 286 285 284 283 284 284 283 282 282 282
287 279 281 278 281 281 279 282 282 282 281 281 282 280 279 280 281 280 281 280 280 281 283 286 287 284 284 285 286 285 286 286 286 285 285 286 284 283 282 283 283 280 281 281
282 280 276 273 278 276 272 277 279 280 282 279 275 275 276 276 278 279 280 282 280 281 282 285 284 283 283 285 286 284 285 285 284 284 284 284 284 283 282 280 281 280 280 280
280 278 277 273 272 266 276 280 278 278 278 278 276 275 276 277 279 280 282 279 280 281 282 284 282 282 283 283 283 284 284 283 284 283 283 283 282 281 281 279 279 279 279 279
282 278 268 265 261 270 275 274 273 272 273 277 276 278 279 278 277 276 279 280 280 282 283 282 281 280 280 280 281 281 279 281 282 283 282 282 281 280 279 279 279 279 279 279
277 279 275 263 265 257 271 273 276 277 268 272 274 275 276 277 269 273 278 279 279 280 279 279 278 279 279 279 280 277 277 278 278 280 281 280 279 277 277 278 277 279 279 279
260 258 266 263 260 263 271 275 276 262 265 270 273 275 275 274 275 277 280 278 279 278 277 277 276 276 277 278 277 275 276 275 276 276 277 281 280 277 276 276 273 274 276 277
266 260 256 254 256 258 275 274 268 272 276 276 275 277 278 278 278 278 277 277 276 275 275 276 275 275 276 275 275 274 273 274 274 274 276 276 277 278 277 274 273 271 274 274
264 268 262 265 264 275 277 276 279 278 275 276 277 279 278 277 277 276 275 276 275 275 276 275 272 273 274 273 272 270 271 271 271 271 271 272 274 277 275 275 274 273 273 272
271 274 271 271 274 275 277 278 278 278 278 279 279 279 277 276 276 275 275 275 274 274 273 273 271 271 270 271 271 269 270 269 268 267 267 269 270 272 277 274 275 273 273 272
273 272 269 271 274 276 277 277 278 279 279 278 277 277 275 274 274 274 273 272 272 272 272 271 270 269 269 269 268 267 267 266 265 265 265 266 267 269 274 275 274 274 275 275
275 273 270 269 276 275 276 279 279 277 276 275 274 272 273 273 272 272 271 271 270 270 270 269 268 267 267 266 265 265 264 264 262 262 263 264 266 267 270 273 273 277 278 278

GFSCGP_sfc_thetae_015.txt.gz
Theta_e
292 288 286 289 289 288 285 283 283 286 290 287 290 290 291 294 293 294 296 297 297 297 300 300 299 299 298 297 296 297 296 299 302 303 301 298 298 299 297 299 298 296 296 295
287 285 291 290 289 288 286 285 285 288 290 286 287 288 292 294 294 295 296 296 296 296 298 298 297 297 296 297 296 296 296 296 299 301 301 301 301 299 298 297 296 296 295 294
287 289 291 289 287 286 284 284 286 285 286 287 285 285 287 292 291 293 295 295 295 294 295 296 296 295 296 296 295 294 295 295 297 299 299 290 292 290 292 292 292 293 294 293
287 290 289 287 286 287 284 288 287 285 283 280 286 279 284 289 291 290 292 292 292 293 294 294 293 295 293 295 295 294 294 294 296 297 296 295 295 293 293 295 294 293 292 292
286 286 285 286 287 288 286 287 285 284 282 281 281 279 283 286 287 290 292 293 294 295 293 293 294 294 293 291 291 292 292 293 295 295 295 295 295 295 293 295 293 291 291 291
286 287 288 288 287 288 288 285 283 281 281 277 281 281 282 284 287 288 293 293 293 293 293 296 294 293 291 290 289 290 290 290 292 293 294 294 294 292 291 291 291 290 289 288
284 285 286 288 285 286 287 284 278 276 274 277 280 279 284 287 289 291 292 293 291 292 292 293 293 291 291 289 288 288 289 289 290 291 291 292 293 291 291 290 291 289 287 287
282 285 285 287 288 286 285 285 282 275 275 282 278 280 287 289 290 291 289 290 291 293 292 291 290 290 290 289 288 288 287 288 288 289 289 290 290 290 290 290 291 289 289 289
281 282 285 285 286 289 283 282 286 281 279 276 283 285 292 290 290 289 290 289 288 288 289 289 290 290 290 290 289 287 287 287 288 288 288 288 288 288 288 287 288 289 289 289
287 284 288 286 285 285 286 287 281 280 275 275 280 280 284 287 287 288 285 285 287 287 287 288 289 289 289 290 291 290 289 288 287 287 287 288 288 288 287 286 286 287 287 287
290 287 285 288 284 284 283 282 283 284 283 277 277 281 288 287 285 284 285 286 285 285 286 287 288 289 289 289 289 289 289 289 289 289 288 286 287 287 286 285 286 286 286 285
292 289 284 286 289 286 287 287 286 282 280 281 282 282 294 287 287 285 283 283 283 284 285 286 288 288 287 288 288 288 288 288 288 288 288 287 286 285 285 285 285 285 285 284
293 287 281 281 284 285 286 287 288 288 285 281 278 281 293 291 284 284 281 281 282 283 284 285 287 287 286 286 287 287 287 288 287 287 287 287 287 286 285 285 285 284 285 284
293 287 285 280 283 286 284 285 287 286 281 281 282 283 287 284 281 281 281 281 282 282 283 284 287 286 285 285 286 286 286 287 287 286 286 286 286 286 286 286 285 284 284 284
289 283 284 286 287 282 282 281 281 279 281 277 280 280 284 281 279 280 282 282 281 281 282 283 286 285 283 283 284 285 285 285 286 285 285 285 285 285 285 285 285 285 283 284
287 280 279 276 281 281 279 279 280 280 280 281 281 280 279 279 280 279 279 281 281 279 280 282 285 283 281 282 282 282 283 283 283 283 284 284 284 284 283 284 284 284 283 283
281 278 278 274 278 275 270 275 278 279 280 279 275 275 275 275 278 278 278 280 280 279 280 281 282 281 280 280 281 280 281 281 280 281 283 283 283 282 281 282 282 282 282 283
280 278 277 273 267 266 276 277 278 277 277 275 275 275 277 278 280 280 281 281 279 279 279 281 281 280 280 280 280 279 280 278 278 279 279 280 279 278 280 280 281 281 281 281
281 278 268 268 268 272 275 275 273 272 272 274 272 275 277 279 278 276 279 279 279 279 280 281 280 279 279 279 279 278 277 276 277 277 277 277 276 276 279 279 279 280 280 280
278 279 275 265 263 256 270 272 274 276 266 272 270 271 272 276 270 274 277 279 279 280 280 280 278 278 278 278 278 277 275 274 275 275 275 275 275 276 275 276 278 279 279 279
259 260 269 269 267 266 271 274 276 262 265 271 271 273 273 274 276 279 278 278 279 279 279 278 276 276 276 276 275 274 274 273 274 274 273 272 273 273 273 274 277 277 278 278
266 259 254 253 256 260 274 273 268 272 275 275 275 276 276 277 278 280 279 279 277 276 277 277 276 276 276 276 274 273 272 273 272 271 270 270 269 270 271 271 273 276 276 275
265 268 264 265 264 274 276 275 278 279 276 277 276 277 276 277 278 279 277 276 276 276 276 276 274 273 274 274 272 270 272 271 270 268 267 267 267 267 268 269 270 272 275 274
271 272 270 271 274 274 276 279 279 278 277 278 278 277 276 276 277 277 277 276 275 275 274 273 271 271 271 272 272 271 270 269 266 264 265 265 265 265 266 268 269 271 274 274
274 272 270 271 275 276 277 278 278 279 279 277 277 277 276 274 275 274 273 273 273 272 272 271 270 269 269 270 269 268 268 266 264 263 264 263 264 263 264 266 268 270 273 276
276 273 271 270 276 275 276 279 278 277 276 273 272 272 273 273 271 271 270 270 269 269 269 267 267 266 265 265 265 265 264 263 262 261 261 261 262 262 263 264 265 271 274 277

GFSCGP_sfc_thetae_021.txt.gz
Theta_e
302 297 295 299 301 300 298 296 295 298 301 299 297 297 299 302 302 302 304 305 306 305 306 306 305 305 305 305 305 306 307 309 310 313 315 317 318 320 321 322 321 320 317 314
297 294 300 301 300 296 296 294 294 298 300 298 296 295 298 300 302 304 304 304 304 304 303 302 302 301 301 301 302 303 304 306 307 309 313 314 315 317 318 319 319 318 316 313
296 299 301 298 297 295 296 294 294 294 297 297 295 294 299 301 305 305 304 303 302 301 299 299 299 299 299 299 300 301 302 303 305 306 309 310 311 309 310 312 314 314 314 312
298 300 296 296 294 296 291 298 295 293 291 289 295 286 295 300 301 301 301 300 300 299 299 299 298 298 298 298 300 300 300 301 302 304 305 305 305 303 306 306 309 310 311 310
295 295 293 294 295 297 294 295 293 293 291 292 293 289 294 300 297 297 297 298 298 298 297 297 297 297 297 298 298 299 298 298 300 301 302 302 302 303 305 304 304 306 307 306
296 297 295 296 297 296 296 293 293 294 292 286 293 291 292 295 295 296 296 297 297 297 297 296 297 297 296 298 297 297 297 296 298 298 299 299 299 300 300 302 301 303 303 303
297 295 296 296 293 295 293 291 286 285 287 286 293 290 293 298 297 297 295 295 296 296 295 295 294 294 294 294 296 295 295 295 296 297 296 296 296 297 298 299 299 300 301 301
290 288 294 295 294 294 294 293 287 280 282 287 293 288 293 299 296 297 296 295 295 294 294 294 293 293 293 293 293 294 293 292 293 294 295 295 295 295 296 296 297 298 298 300
290 290 299 296 296 294 293 289 294 287 287 284 288 293 299 299 295 295 294 294 292 293 293 293 293 292 292 292 292 292 292 292 291 292 293 294 294 294 293 294 295 296 296 297
294 288 296 295 295 295 292 293 287 288 279 278 285 287 289 294 294 293 292 290 290 291 292 292 292 291 291 292 292 291 291 289 289 290 291 291 291 292 293 293 293 293 293 294
295 291 290 294 291 290 290 288 289 289 287 280 279 284 293 292 293 291 288 288 288 288 288 290 291 290 289 289 289 289 289 288 288 288 289 290 290 290 289 289 290 291 291 292
295 291 285 287 294 296 294 290 290 284 282 285 283 284 295 292 290 289 287 287 288 288 287 287 289 289 287 287 287 287 287 287 287 287 288 288 287 288 287 287 287 289 289 290
294 288 281 284 288 291 290 292 292 291 288 283 281 283 292 290 288 287 286 287 287 286 284 285 286 287 286 285 286 285 285 285 286 285 286 286 286 286 285 284 286 286 287 287
295 288 284 279 283 288 285 287 289 287 281 282 283 284 287 290 289 287 287 287 286 285 284 284 285 285 286 285 285 285 284 285 285 284 284 284 284 284 284 283 283 285 285 285
291 283 285 286 287 286 285 284 285 284 285 280 283 284 287 289 289 286 286 286 285 284 284 284 284 285 286 285 285 285 285 285 285 284 282 282 283 283 283 282 282 283 284 284
288 281 283 279 283 283 281 284 284 285 285 284 284 283 290 287 285 284 284 283 283 283 285 284 284 284 285 285 285 284 284 285 284 283 282 282 282 281 281 281 280 281 282 282
283 281 278 274 279 279 274 279 281 282 284 283 279 282 281 281 281 282 282 282 282 283 284 284 284 284 285 285 286 284 284 285 283 282 281 281 281 280 280 279 278 279 279 280
281 279 279 274 275 267 279 284 283 281 282 283 282 279 279 279 281 282 283 283 283 283 283 284 285 285 286 286 285 285 284 283 282 281 281 280 280 279 279 277 277 277 278 278
283 280 275 271 271 275 278 280 279 278 277 282 282 279 279 280 281 280 284 284 283 283 284 285 287 286 286 285 284 283 282 281 281 280 280 280 279 278 277 275 275 276 276 276
280 281 276 274 269 266 276 281 281 280 272 281 280 278 279 279 273 278 283 284 284 284 285 285 286 286 284 284 282 280 279 279 278 278 278 279 278 277 275 275 274 275 274 275
273 275 272 272 270 273 281 279 281 270 274 281 281 280 280 277 279 283 284 283 284 285 285 286 285 282 282 281 279 277 277 276 277 277 276 276 276 275 275 274 274 273 272 272
272 272 271 271 268 266 280 278 274 280 282 282 281 282 281 282 282 282 282 283 283 283 283 283 280 279 279 278 276 274 273 275 274 272 271 271 271 271 272 270 270 270 269 269
271 275 273 274 273 281 281 280 283 284 282 283 282 283 282 281 281 282 281 282 282 281 279 278 276 274 274 274 273 270 271 270 269 267 265 265 266 267 267 267 267 267 267 267
278 280 275 275 277 279 281 283 283 284 283 284 284 283 283 281 281 281 280 279 278 277 275 274 272 270 269 270 270 268 268 266 264 262 262 263 263 263 263 264 265 264 264 264
279 279 276 276 278 280 281 282 282 283 284 283 283 282 281 280 279 278 277 275 274 273 272 271 268 267 267 267 266 265 265 263 261 261 261 261 262 262 262 263 263 263 264 264
280 277 275 274 280 279 280 283 284 282 282 282 282 279 277 275 275 274 272 272 271 269 268 267 266 265 264 264 263 263 263 262 260 260 260 261 261 261 262 261 261 266 267 268

GFSCGP_sfc_thetae_024.txt.gz
Theta_e
299 293 290 294 296 296 292 292 290 294 298 294 294 293 295 298 298 298 298 298 298 297 298 298 298 297 298 298 299 299 299 301 303 305 307 308 310 313 314 315 316 317 315 312
294 290 297 299 298 295 293 290 290 293 297 294 292 291 295 297 297 298 297 297 296 296 296 297 296 296 295 296 296 297 299 299 301 302 305 306 307 307 311 313 313 315 314 311
293 297 300 297 294 293 292 290 290 290 293 293 290 288 292 298 298 298 298 297 296 295 294 294 294 294 294 294 294 296 297 298 299 300 302 303 304 301 301 304 306 309 311 310
295 298 296 294 293 294 289 295 293 291 287 283 291 282 288 295 295 295 295 293 293 294 294 294 293 293 293 293 294 295 295 296 298 298 299 298 298 297 298 300 302 304 306 306
293 292 291 291 293 295 292 293 290 289 286 284 287 283 288 294 291 291 292 293 292 292 292 292 292 293 294 293 293 293 294 294 295 294 295 295 295 296 297 297 296 298 300 302
293 294 293 293 294 294 293 290 290 288 286 279 287 286 286 288 290 290 292 293 293 292 291 292 292 292 291 292 291 291 291 292 294 293 293 292 291 292 292 293 293 294 296 297
292 292 293 294 289 291 289 286 280 279 278 279 288 285 288 291 293 293 292 291 291 291 289 289 289 290 290 289 290 290 289 289 290 291 291 291 291 290 291 291 291 291 292 294
286 285 291 292 291 289 290 289 281 273 275 279 286 281 288 293 293 293 293 291 291 290 290 289 289 288 289 289 289 289 289 288 288 288 289 290 290 290 290 290 290 290 290 291
286 285 292 292 292 292 288 285 290 282 278 276 283 287 293 293 291 291 290 289 288 289 289 289 288 287 288 288 287 287 286 286 286 287 288 288 288 287 287 289 289 289 289 291
292 285 293 291 292 290 288 290 283 284 278 272 280 280 284 289 289 290 287 286 287 287 287 288 287 286 286 286 287 286 286 285 285 286 286 287 286 287 286 286 286 287 288 289
293 290 287 291 288 287 286 286 287 287 283 276 276 279 289 288 289 286 285 286 286 286 285 286 287 286 285 285 285 284 285 284 283 285 286 285 284 284 284 283 284 285 285 287
293 289 280 285 291 292 290 288 288 281 278 281 282 281 291 289 288 287 286 287 287 287 285 284 286 285 284 284 283 284 284 283 284 284 283 284 284 283 282 282 282 283 284 284
292 284 276 277 283 290 288 289 289 287 285 281 278 280 289 288 286 286 288 288 288 287 284 285 285 284 284 284 284 283 283 283 284 283 282 282 281 281 281 279 280 281 282 282
294 285 279 274 279 284 280 284 285 284 279 278 278 281 286 288 289 289 288 287 285 285 283 283 281 282 283 283 282 282 283 283 283 283 281 280 280 280 280 280 279 279 280 280
290 279 283 284 285 284 282 281 282 280 281 277 280 280 284 287 287 282 282 283 284 284 283 281 281 281 281 282 282 282 282 282 281 281 280 280 280 280 279 279 278 278 278 280
287 274 279 273 280 280 278 280 280 280 280 280 281 280 287 282 282 281 282 282 281 280 281 282 282 282 282 282 282 283 281 281 281 279 278 280 279 279 278 277 277 277 277 277
280 275 268 267 276 274 267 275 277 278 280 279 275 278 277 278 280 278 278 280 280 281 281 281 282 281 282 282 283 281 281 281 277 276 277 277 277 277 278 278 277 277 276 276
277 272 271 266 266 260 274 279 279 277 278 278 276 273 276 277 277 278 280 279 280 281 280 280 281 282 282 282 281 281 280 278 278 277 277 277 277 277 277 276 276 276 275 275
282 278 272 264 262 271 275 277 276 273 274 277 275 277 277 277 277 276 280 280 279 279 281 281 281 282 281 280 279 278 277 277 277 277 277 276 275 275 276 275 275 275 275 274
278 278 272 263 261 257 271 276 279 278 269 275 273 273 275 276 269 272 279 280 280 281 281 281 281 281 279 278 278 276 275 274 274 275 275 275 274 273 272 273 273 274 273 273
264 265 268 269 266 268 274 276 278 264 269 275 274 275 275 274 276 279 280 280 281 280 279 280 278 278 277 277 275 273 273 272 272 272 271 270 269 268 268 269 269 269 269 270
268 264 262 262 261 264 276 275 271 276 279 279 278 278 278 278 279 279 279 279 279 278 278 277 276 276 275 274 272 270 269 271 269 267 266 265 264 264 265 264 264 265 265 265
267 271 266 269 268 277 278 278 280 280 277 279 279 279 279 278 278 278 278 277 278 276 276 275 271 271 272 269 268 267 267 267 266 263 261 261 262 262 262 261 261 261 262 262
274 276 273 271 275 277 279 280 280 281 280 280 280 279 279 278 278 279 279 278 276 273 271 270 267 265 265 266 267 264 265 264 262 260 260 261 260 260 261 262 262 261 261 260
276 275 273 274 277 278 279 280 281 281 281 280 280 280 279 278 278 278 275 273 273 271 270 267 265 265 265 265 264 262 263 261 260 260 260 260 260 260 260 261 261 261 263 263
279 276 274 272 278 278 278 280 280 280 279 279 278 277 276 276 275 274 272 272 270 268 267 265 263 263 262 261 261 261 259 258 259 259 260 259 259 259 260 260 260 265 267 269

GFSCGP_sfc_thetae_027.txt.gz
Theta_e
295 289 286 289 291 291 289 288 287 290 295 291 291 290 293 296 295 295 292 292 292 293 295 295 295 294 295 294 295 296 297 298 300 301 305 306 308 311 312 316 319 319 318 315
291 287 293 294 294 293 290 287 287 290 294 291 290 289 293 295 294 294 293 291 292 292 292 293 293 293 293 293 293 294 295 296 298 300 300 303 302 302 306 310 311 315 315 314
289 293 297 295 292 290 288 287 287 288 290 290 287 287 290 294 293 293 293 293 293 291 291 291 292 291 292 291 292 293 294 294 295 297 299 299 300 299 298 301 304 308 311 310
291 295 294 292 291 292 287 291 291 289 285 281 287 279 287 291 290 291 291 290 290 290 291 291 290 290 290 290 291 292 293 293 294 294 294 293 293 293 294 295 296 299 303 304
291 291 289 289 291 293 289 290 288 287 284 282 283 280 285 288 287 288 288 289 289 289 289 289 289 290 290 289 288 289 290 291 292 292 292 291 291 292 292 293 293 294 297 299
291 291 291 292 292 292 291 288 287 285 283 278 283 283 283 286 288 288 289 289 289 288 288 288 289 289 288 288 287 288 288 289 290 291 290 290 289 289 289 289 290 291 292 294
288 290 290 292 287 290 288 284 279 276 275 277 285 282 285 289 290 290 288 287 287 287 286 287 286 286 287 286 286 287 286 286 288 288 288 288 288 288 288 288 288 288 288 289
284 283 289 290 290 288 287 287 279 271 274 276 284 279 285 288 289 289 289 288 288 287 287 286 286 286 286 285 285 285 285 284 286 286 286 286 286 286 286 286 287 287 287 288
284 284 289 291 291 292 287 284 288 282 273 274 280 285 288 288 287 287 286 286 286 287 286 286 286 286 286 285 285 284 283 283 284 284 285 284 285 285 285 285 285 285 286 287
289 283 290 288 291 289 288 289 282 281 270 269 278 279 281 285 284 285 285 284 285 285 287 287 285 286 285 285 284 284 284 283 283 284 284 284 284 284 283 283 283 283 284 285
292 288 286 288 287 286 285 284 285 285 282 274 272 277 287 287 285 283 284 284 284 284 285 286 284 284 284 284 284 285 285 284 283 283 283 283 283 283 282 282 282 281 282 283
291 288 278 285 289 289 288 286 286 279 277 278 280 280 289 287 286 285 285 286 285 285 283 284 285 283 283 283 283 282 282 283 283 283 283 284 284 283 282 280 281 280 280 281
291 283 272 277 282 288 286 287 287 286 285 279 277 278 288 286 285 286 285 285 285 284 281 282 283 283 282 282 282 281 282 282 283 281 281 281 281 280 280 280 281 281 279 278
294 286 278 275 277 283 279 282 282 284 276 273 275 277 284 285 285 286 286 287 286 283 281 281 280 281 281 281 280 280 280 281 282 280 280 279 278 279 279 280 279 279 279 278
289 278 282 283 283 281 280 280 281 279 280 275 279 279 282 284 282 282 281 283 284 283 281 280 280 280 280 280 281 281 280 281 280 280 279 279 279 279 278 278 278 278 278 278
287 274 278 272 280 280 277 279 279 279 279 278 279 278 284 280 279 280 280 280 280 279 280 280 280 280 280 281 281 281 281 280 280 279 278 279 278 279 279 279 279 278 278 277
281 276 268 265 276 273 267 275 277 278 279 277 273 277 275 277 279 277 277 278 279 280 280 279 280 280 279 280 281 280 280 279 276 275 276 277 278 278 278 278 278 277 277 277
277 272 268 262 264 261 274 277 277 276 277 275 274 272 275 277 277 278 279 277 278 279 280 279 279 279 280 281 280 279 278 277 277 275 274 274 276 275 275 275 275 275 275 275
282 277 265 264 261 268 274 275 274 273 272 275 273 275 278 276 275 274 278 278 278 279 280 279 280 281 279 278 277 277 276 276 275 275 274 274 272 271 271 270 270 271 271 271
279 279 273 257 261 259 270 274 278 277 268 272 270 272 274 276 269 271 278 280 280 280 280 280 280 279 277 276 276 274 274 272 272 273 272 271 270 267 266 267 266 267 267 268
263 261 270 270 266 265 273 275 278 264 268 272 273 274 275 274 275 277 279 279 280 280 279 278 277 277 275 274 273 271 271 269 270 269 268 267 266 265 264 264 264 264 263 264
268 264 261 259 257 263 277 275 271 275 278 278 277 277 277 278 278 278 279 278 278 278 277 277 275 275 274 272 270 269 268 269 267 265 264 263 262 262 263 261 261 261 261 260
267 271 266 269 268 276 277 277 279 279 277 278 277 278 278 278 277 278 277 278 277 277 277 274 270 270 271 268 267 265 266 265 264 259 258 259 261 261 261 260 260 260 260 260
273 274 272 270 274 276 277 278 279 279 279 280 279 278 278 277 278 278 278 278 277 273 271 269 267 265 264 265 266 263 263 263 255 254 258 260 260 260 260 261 261 260 259 259
275 274 272 272 276 277 278 278 279 279 279 279 279 279 278 277 278 278 277 275 273 271 269 267 265 264 264 264 262 259 262 257 257 258 260 260 260 259 259 260 260 260 262 263
278 276 273 272 278 277 278 280 280 279 279 279 278 277 278 278 277 275 273 272 270 269 268 266 264 263 261 258 258 257 256 254 255 258 260 259 260 259 260 259 259 265 267 268

GFSCGP_sfc_thetae_030.txt.gz
Theta_e
293 288 285 288 290 288 287 286 286 288 293 289 290 289 293 294 294 290 289 290 290 290 292 292 292 292 292 292 293 293 294 294 298 298 301 304 305 306 311 314 317 319 319 315
290 286 292 292 291 290 288 286 286 289 292 289 289 289 292 292 291 290 289 289 289 289 290 291 290 290 290 290 291 292 292 293 294 296 297 299 299 298 300 304 307 309 314 315
288 292 295 293 291 289 288 286 286 288 289 288 286 286 289 289 291 291 291 290 289 288 288 288 288 287 287 287 288 291 292 292 292 293 295 295 296 295 295 296 297 301 304 307
289 294 293 290 290 291 287 291 290 288 284 281 286 278 285 288 287 288 288 287 287 287 287 288 287 287 287 286 287 289 290 291 291 291 291 290 290 289 290 291 292 294 296 296
290 289 288 289 290 292 289 290 288 286 283 281 281 279 283 287 285 285 285 286 286 286 286 286 286 287 287 286 285 286 288 288 289 289 290 289 288 289 289 289 289 290 291 291
290 290 291 291 290 290 291 287 286 283 282 277 281 281 282 284 286 285 286 286 286 286 286 286 287 286 285 284 284 285 286 286 287 287 286 286 286 286 285 286 286 287 288 289
287 288 289 290 287 288 287 284 279 276 274 276 283 280 284 286 288 288 285 284 285 285 284 284 284 284 284 283 283 284 284 284 285 285 285 284 284 284 283 284 284 284 285 286
284 283 288 290 288 287 285 285 278 270 273 276 282 278 282 285 287 287 286 286 286 285 285 284 285 284 284 283 282 282 283 283 284 284 283 283 283 283 283 283 283 283 283 284
283 284 288 288 289 291 286 283 286 280 270 273 280 281 285 286 284 285 285 285 285 285 285 284 284 285 284 284 283 282 281 282 282 283 283 283 282 281 282 282 282 283 283 284
288 283 289 288 290 288 287 289 281 280 270 270 277 279 280 282 282 284 284 284 285 285 285 284 284 283 284 284 283 283 282 281 282 282 283 282 282 282 281 280 279 279 281 282
291 287 284 287 286 285 284 283 283 283 279 271 269 276 284 285 285 284 284 285 284 284 285 284 283 284 284 283 283 283 282 281 281 281 282 282 281 281 281 280 280 279 279 279
290 287 277 284 286 287 286 284 284 277 275 277 277 278 288 288 286 285 285 285 284 284 283 283 281 281 281 280 280 280 281 281 281 281 281 281 281 280 279 279 279 280 279 280
290 281 271 277 281 286 283 285 285 284 282 273 274 277 287 285 284 285 285 284 284 283 280 282 281 280 280 280 280 280 280 281 281 280 279 279 279 278 278 279 279 279 279 279
293 283 279 276 276 282 280 282 283 283 275 275 278 279 283 284 283 283 284 285 284 282 280 280 280 281 280 280 279 279 279 280 280 280 279 278 278 278 278 278 278 278 278 278
290 283 282 282 283 283 281 281 281 280 279 275 278 277 282 282 281 281 282 283 285 282 280 279 279 279 279 279 279 279 279 279 279 279 279 278 279 278 278 277 277 277 277 278
286 277 279 274 281 281 278 280 279 280 280 279 280 278 284 282 279 279 280 281 282 281 281 280 280 279 279 279 279 280 279 280 279 278 276 278 277 277 277 277 277 277 276 276
283 277 271 269 275 273 267 273 277 278 278 277 274 277 275 277 279 279 279 278 278 279 279 279 279 279 279 279 280 279 279 278 275 274 273 274 274 274 274 274 274 273 272 273
279 274 273 266 264 259 275 276 276 276 277 275 274 272 275 278 278 278 278 277 278 278 279 279 278 278 279 279 279 278 278 276 275 273 271 271 272 271 271 270 269 269 270 269
281 278 270 267 262 269 274 275 274 273 273 275 274 274 278 277 275 274 278 278 278 278 279 279 279 278 278 277 277 276 275 275 273 273 272 271 269 267 268 266 266 267 266 266
279 279 274 260 258 259 271 273 276 276 267 271 271 273 273 275 269 272 277 279 279 279 279 279 279 279 276 275 275 273 272 271 270 271 270 269 268 263 264 265 264 264 264 265
266 272 271 269 259 264 273 275 277 264 269 270 272 275 274 273 276 277 278 278 279 280 279 279 278 277 275 274 272 271 270 268 269 268 267 265 265 263 263 262 263 262 262 263
268 266 265 264 264 262 276 275 271 275 277 277 276 277 277 278 278 278 278 278 278 278 278 277 276 274 273 271 270 268 267 268 265 264 263 262 260 261 262 260 260 260 260 259
268 271 266 269 268 276 277 278 279 279 277 278 277 278 278 278 277 277 277 278 278 277 278 276 273 271 271 268 267 266 266 265 263 258 256 256 258 260 261 259 259 259 259 259
272 274 271 269 273 275 277 280 279 279 279 280 280 279 278 277 278 279 278 278 277 275 273 269 268 266 266 266 267 265 263 262 254 251 256 258 258 259 259 260 261 259 258 259
273 273 270 271 275 276 277 277 279 280 279 279 279 279 279 278 278 278 278 276 275 273 270 268 266 266 265 265 264 261 261 257 255 255 258 258 258 257 259 260 260 260 262 263
276 276 272 271 278 277 278 279 279 278 279 279 279 278 277 277 277 277 276 275 273 270 267 265 264 264 264 262 262 260 259 254 253 256 258 259 259 259 260 259 259 264 266 268

GFSCGP_sfc_thetae_033.txt.gz
Theta_e
292 287 285 288 289 287 285 284 284 286 292 288 288 288 291 292 288 287 287 287 288 288 290 290 289 289 289 290 291 291 291 292 295 296 298 300 297 298 299 302 304 308 311 314
289 285 290 290 289 288 286 284 285 288 290 288 288 288 289 289 288 288 287 286 287 287 287 288 287 287 287 287 289 290 290 291 292 293 294 296 295 295 295 297 298 299 301 303
287 291 293 291 289 288 286 285 285 287 287 286 285 285 286 287 288 288 288 287 287 286 285 285 285 285 285 285 286 288 289 290 291 292 293 293 293 291 291 291 292 293 294 294
288 292 292 289 288 290 285 290 289 287 284 282 285 278 283 285 285 286 285 284 284 285 285 286 285 284 284 284 285 287 287 287 289 290 290 289 287 286 287 288 289 290 290 290
289 289 288 288 289 291 289 289 287 285 282 280 281 279 281 284 283 283 284 284 284 284 284 284 284 284 283 283 283 284 286 286 285 286 286 286 284 285 285 285 285 286 287 287
290 290 289 290 289 290 290 286 285 282 281 276 281 281 280 283 284 283 284 284 285 284 284 284 284 284 282 282 282 283 284 284 284 284 284 283 282 282 282 282 282 283 284 285
286 288 288 289 287 287 286 284 278 276 275 277 281 279 282 284 285 286 284 283 284 284 283 283 283 282 281 281 281 283 283 282 282 282 282 282 281 281 281 281 281 281 282 282
283 282 288 289 288 286 284 285 279 271 272 276 281 278 283 284 285 286 285 284 284 283 284 283 283 282 281 281 280 281 282 282 282 281 281 281 281 280 280 280 280 281 281 282
283 284 287 287 288 290 284 282 285 279 268 272 279 281 284 284 283 283 283 283 283 283 283 283 283 282 282 281 280 280 280 281 281 281 280 280 280 279 279 279 279 279 280 282
287 282 287 287 288 287 286 288 281 279 270 269 276 278 280 281 281 283 283 283 284 284 284 283 283 283 282 282 281 281 280 280 280 281 281 280 280 280 279 279 279 279 278 279
289 286 283 287 285 284 284 282 283 283 278 271 268 276 283 284 284 283 284 285 285 285 284 283 283 283 282 282 281 280 280 279 279 280 280 279 279 279 279 278 278 278 279 278
291 286 279 283 285 285 285 284 284 280 276 276 276 279 286 286 286 285 285 285 285 284 284 283 281 281 281 280 279 279 280 280 280 280 279 279 279 279 278 278 278 278 278 278
290 282 272 278 281 284 283 283 284 282 279 271 273 276 286 285 285 285 285 285 284 284 282 283 280 280 279 279 279 279 279 280 280 279 279 279 279 278 278 278 279 278 278 278
294 283 281 281 279 282 280 281 282 280 276 275 279 280 283 284 284 284 284 284 285 284 281 281 279 279 279 279 279 278 279 279 280 279 278 278 278 278 278 278 278 277 277 277
289 278 280 280 281 281 280 280 281 279 280 278 281 281 282 284 284 283 283 282 283 282 279 279 280 280 279 279 278 278 278 278 278 278 278 278 278 278 277 276 275 276 276 276
285 279 279 274 281 282 280 281 281 282 282 280 280 280 285 282 281 279 280 281 283 283 281 280 280 279 280 280 279 279 278 278 278 278 276 277 275 275 274 273 273 273 272 272
282 280 277 277 276 275 272 275 280 281 280 280 276 281 275 278 279 279 279 279 280 281 282 280 279 279 279 279 280 278 278 278 275 274 271 271 272 272 271 271 270 270 269 270
281 280 278 271 271 268 277 275 276 277 279 276 274 272 275 277 278 279 279 279 279 279 279 279 278 278 279 278 278 278 277 275 274 272 270 270 270 268 269 268 267 267 267 267
282 279 272 272 265 271 276 275 273 273 273 276 276 277 278 277 275 275 277 277 277 277 278 279 279 278 278 278 277 276 274 274 273 272 271 270 268 265 266 263 265 265 265 265
281 280 279 265 265 264 273 273 276 276 268 272 274 274 275 275 269 275 276 278 278 278 279 279 279 278 277 276 276 274 272 270 270 271 270 268 267 262 262 264 263 264 262 264
270 273 274 268 270 267 272 274 277 265 270 271 273 275 273 273 276 278 278 277 279 279 279 278 278 278 277 275 273 271 270 269 269 268 267 265 265 261 261 261 262 261 261 262
269 267 266 265 265 264 276 275 272 276 276 276 275 276 276 277 278 278 278 278 278 278 278 279 277 276 274 272 271 269 268 268 266 265 263 261 258 259 261 255 258 257 258 258
269 272 268 271 269 276 277 277 279 279 277 277 277 278 278 278 277 278 277 277 278 278 279 278 275 273 271 269 268 267 267 266 264 261 258 254 257 259 259 255 258 258 257 257
272 274 271 271 273 275 277 278 279 279 279 279 279 279 278 277 278 278 278 278 277 276 275 272 271 270 267 266 267 264 264 263 256 258 257 258 256 257 257 260 260 257 257 258
274 274 271 271 275 275 277 277 279 279 279 279 279 279 278 277 278 278 278 276 277 275 272 271 271 270 266 265 264 261 262 260 259 257 259 259 257 255 257 258 259 260 261 262
275 275 272 269 277 277 277 278 279 278 278 279 278 277 277 277 278 278 277 277 275 273 269 268 267 266 264 262 261 259 257 257 256 258 259 258 258 257 259 258 258 264 267 268

GFSCGP_sfc_thetae_036.txt.gz
Theta_e
290 287 285 288 288 286 285 284 284 285 290 287 288 288 290 288 286 285 285 285 285 285 287 287 287 286 287 288 289 290 291 292 294 294 296 296 293 294 295 295 296 296 297 301
287 284 289 289 289 287 285 283 283 287 289 288 287 288 286 287 286 286 285 285 284 284 285 285 285 285 285 285 287 288 289 290 292 292 292 292 292 291 291 293 293 293 293 294
286 290 291 290 287 286 284 283 284 286 286 286 284 284 284 286 286 286 286 286 285 284 283 283 283 283 283 283 283 285 286 288 289 291 291 291 290 289 288 288 288 288 288 289
287 291 291 287 287 288 284 289 288 286 285 281 284 279 282 284 284 284 284 283 283 283 284 283 282 282 282 282 283 284 284 285 286 288 287 286 285 283 284 285 285 285 285 285
289 288 287 288 288 290 288 289 287 285 282 280 280 278 281 283 282 282 282 283 283 283 283 282 282 282 282 282 281 282 283 283 283 284 284 283 282 282 282 282 283 283 284 284
290 290 290 290 288 290 289 286 285 282 280 276 281 281 280 281 284 283 283 283 284 283 283 283 282 282 281 281 281 281 281 281 282 282 282 281 281 280 280 280 280 281 282 282
286 287 288 289 286 286 286 283 278 276 275 276 279 278 282 285 285 285 284 283 283 283 282 282 281 280 280 280 280 281 281 280 281 280 280 280 279 279 279 279 279 279 280 280
283 282 288 289 287 285 284 284 279 271 272 275 280 278 283 284 284 285 286 284 283 282 282 282 281 280 279 280 280 280 280 280 280 280 279 279 279 279 279 279 278 278 279 279
282 283 286 286 287 288 284 281 284 278 268 272 279 281 284 283 282 282 282 282 282 282 282 283 282 281 280 279 279 280 280 280 279 279 279 279 278 278 278 277 278 277 278 280
287 282 286 286 288 287 286 287 281 279 271 268 277 278 280 282 281 281 281 281 282 283 283 283 282 282 281 280 279 279 279 279 279 279 279 279 278 278 278 278 278 278 278 278
288 286 283 286 285 284 284 282 282 283 279 272 269 276 282 284 283 282 283 283 284 284 283 283 282 282 281 280 279 279 278 278 279 279 279 278 278 278 278 278 278 278 278 278
290 286 279 283 284 284 284 284 284 281 276 274 275 279 285 284 285 285 284 285 285 285 284 283 282 281 280 279 279 278 278 278 279 279 279 279 279 278 278 277 278 278 277 278
291 283 274 278 282 283 282 283 283 282 279 273 273 278 285 284 283 284 284 284 284 284 284 283 281 280 279 279 279 278 279 279 279 279 278 278 278 278 277 277 277 277 277 276
294 284 281 280 280 283 281 282 283 281 274 276 280 282 281 283 284 283 284 284 284 284 283 282 280 279 279 279 278 278 278 279 279 279 278 278 278 277 277 277 276 276 275 274
290 280 281 281 281 282 282 282 281 280 283 280 283 281 282 286 285 285 285 284 283 283 282 280 280 280 279 278 278 278 277 278 278 278 277 277 278 277 276 274 274 273 273 272
286 279 281 277 282 281 280 281 280 282 281 279 279 280 284 284 283 283 283 282 281 282 283 281 281 281 280 280 279 279 277 277 278 277 277 277 275 274 273 272 272 271 271 270
284 280 278 278 275 277 277 279 280 280 281 282 279 284 279 279 281 281 280 280 281 282 283 283 280 280 280 280 281 278 278 277 275 274 272 271 271 271 270 270 269 269 268 268
281 278 280 271 274 271 279 275 278 282 282 280 277 275 278 279 279 280 279 280 280 280 281 281 280 279 279 279 278 278 278 276 275 273 270 270 270 268 268 267 267 267 267 266
283 281 273 272 271 276 277 274 273 274 275 278 280 281 278 278 276 276 278 279 279 278 279 279 280 278 277 278 277 277 275 275 273 272 271 269 268 265 266 263 264 264 264 264
281 282 282 270 271 269 272 273 276 278 272 275 278 277 275 276 270 273 277 278 278 278 278 278 279 278 277 277 277 275 273 272 271 272 271 269 267 262 262 264 262 263 261 264
274 275 277 271 272 272 274 275 277 268 273 271 274 274 274 273 275 277 278 277 278 278 278 278 277 278 278 276 274 273 271 271 270 269 267 266 265 262 261 260 261 259 258 262
272 273 271 271 270 270 276 275 273 277 276 276 275 276 276 277 278 277 278 278 277 277 278 279 277 276 277 274 274 272 271 269 267 266 265 264 261 261 262 255 256 255 255 255
272 274 271 274 273 276 278 277 279 279 277 276 276 277 277 277 277 277 277 277 277 277 278 277 276 276 274 271 272 271 269 266 264 262 260 259 261 261 261 255 257 257 255 254
273 274 273 273 274 275 277 279 279 279 278 279 279 278 277 276 277 278 278 277 277 276 276 273 271 271 271 268 269 267 266 264 260 256 260 260 258 260 259 260 260 256 255 256
275 274 271 271 275 276 277 278 279 279 279 278 278 278 278 277 278 277 277 276 276 276 273 271 272 273 271 267 265 263 263 261 258 257 260 260 260 259 259 260 259 259 260 260
275 274 272 270 277 277 277 279 280 278 278 278 277 276 276 277 277 276 275 276 275 275 270 270 270 268 266 265 263 260 260 259 258 259 260 260 260 260 259 259 258 264 267 269

GFSCGP_sfc_thetae_039.txt.gz
Theta_e
291 288 287 288 289 288 287 285 286 287 290 290 289 289 291 288 287 286 286 286 286 286 287 288 288 287 288 289 290 291 293 294 297 298 298 297 294 294 294 293 293 294 296 298
288 285 290 290 289 288 285 284 284 287 289 289 288 288 289 288 287 287 286 286 286 285 286 286 286 286 286 286 287 288 290 291 294 295 295 295 293 291 290 289 289 290 291 293
286 289 290 289 286 286 284 284 284 286 287 287 286 286 286 286 287 287 287 286 286 285 285 285 285 284 284 284 284 286 287 288 289 292 293 292 291 289 287 287 286 287 288 288
287 290 290 287 286 287 283 287 287 286 285 282 285 280 285 285 284 285 285 284 285 285 285 284 284 283 283 283 284 285 285 286 286 288 287 287 285 283 284 285 286 286 286 286
290 288 288 287 289 289 287 288 287 286 284 282 282 280 283 284 283 283 284 284 284 285 284 283 283 283 283 283 283 283 284 284 284 285 286 285 283 284 284 284 284 285 285 285
290 290 290 291 289 290 288 286 285 283 281 277 282 282 281 283 285 284 284 284 284 284 284 283 283 283 282 283 282 282 283 282 283 283 283 283 283 283 283 283 283 283 283 283
286 287 288 289 286 287 286 285 279 277 277 278 280 279 283 286 286 286 285 284 284 284 283 283 282 281 282 282 282 282 282 281 282 282 282 282 282 282 282 282 282 282 282 281
283 282 287 289 288 286 284 285 280 274 274 276 280 278 284 285 285 285 286 286 285 284 283 283 282 281 281 282 282 282 281 281 281 281 281 281 281 282 281 281 281 281 281 281
284 284 287 287 288 289 285 282 285 278 269 274 280 282 285 284 283 283 283 284 284 283 283 283 283 281 280 281 281 281 281 281 281 281 281 280 281 281 280 280 281 280 281 281
288 283 286 286 288 287 286 288 282 280 273 271 278 279 281 283 283 282 282 283 284 284 283 284 283 282 281 280 281 281 281 281 281 281 281 280 280 280 280 281 280 280 280 280
289 287 283 286 284 284 284 283 282 283 280 274 272 277 283 285 284 282 283 284 284 284 284 284 284 283 282 281 280 280 280 280 280 281 280 280 280 280 281 280 280 280 280 279
290 286 280 282 285 285 285 284 284 280 277 276 276 279 285 285 285 285 284 285 285 285 285 284 284 283 281 281 280 280 280 280 281 280 280 281 281 280 280 279 279 279 278 278
290 285 277 280 282 283 283 284 284 283 281 274 276 278 285 284 283 284 284 284 285 285 284 284 283 282 282 281 280 280 279 280 280 280 280 280 280 279 279 279 279 278 277 276
295 285 284 284 283 284 281 282 283 284 276 279 280 281 283 284 284 284 284 285 284 285 285 285 283 282 282 281 280 280 279 280 280 280 279 280 279 279 279 278 277 276 275 274
291 286 283 281 283 283 283 282 282 282 284 281 284 283 283 287 287 285 286 284 284 284 283 283 283 282 281 280 280 279 279 279 279 279 279 279 279 278 277 275 274 273 273 272
288 285 283 281 282 282 280 282 283 283 284 285 282 282 286 287 285 283 284 284 283 283 283 283 283 282 281 281 280 280 279 279 279 279 279 279 277 275 274 273 272 272 271 271
286 282 282 281 278 279 279 280 281 280 280 284 279 285 280 282 283 284 284 284 285 283 283 284 283 282 282 281 281 279 279 279 277 276 275 275 274 273 272 271 270 270 269 269
284 284 284 272 276 274 278 274 280 282 282 279 278 276 283 283 281 282 282 282 281 282 283 284 284 281 281 281 281 280 279 277 277 276 274 273 272 271 270 269 268 268 268 267
285 283 274 273 274 277 274 274 278 280 279 281 282 281 279 278 278 277 280 280 281 281 282 282 283 282 280 280 279 278 276 276 276 275 274 272 271 268 268 266 266 266 265 265
282 285 283 274 273 272 275 274 277 279 272 275 283 280 275 276 271 276 278 279 280 280 280 280 280 279 278 278 277 276 275 274 274 275 274 271 269 265 265 266 265 265 264 265
276 276 279 275 275 276 278 276 278 274 277 276 277 276 275 275 278 278 278 277 278 279 279 278 278 278 278 277 275 275 273 273 275 272 270 268 267 265 264 263 264 262 261 263
275 274 274 275 273 272 277 276 276 280 278 279 277 278 277 278 278 278 278 278 278 278 278 279 277 277 277 276 275 274 273 273 270 269 267 265 263 265 263 259 260 259 259 259
274 278 277 278 277 277 279 280 280 280 280 278 278 278 279 278 277 277 278 278 278 278 278 277 276 276 276 274 274 273 273 269 267 265 263 261 261 262 261 259 260 260 259 259
274 275 274 274 275 276 278 279 280 279 279 279 279 278 277 277 277 278 277 277 277 276 275 273 272 272 274 271 272 274 268 267 264 262 261 260 260 261 260 262 262 260 260 260
276 275 272 272 275 276 278 278 279 279 280 279 278 278 278 277 277 277 277 276 275 275 273 271 273 274 274 270 269 266 266 264 262 261 262 262 261 260 262 262 262 262 263 261
275 274 273 271 277 277 278 280 280 279 279 278 278 276 276 277 277 276 275 275 274 274 270 270 271 270 268 265 264 262 262 263 262 261 261 261 261 261 261 261 261 265 268 270

GFSCGP_sfc_thetae_042.txt.gz
Theta_e
299 297 295 298 299 298 296 295 295 295 296 296 298 298 299 296 295 295 294 294 293 292 293 294 294 296 298 299 301 301 301 303 306 308 306 303 300 298 297 297 298 300 301 302
295 294 300 297 296 295 294 294 294 295 295 295 296 295 299 295 296 296 294 293 293 292 292 292 293 294 295 296 298 299 300 301 302 303 302 300 296 294 294 294 293 294 295 296
296 297 297 295 293 292 293 293 294 293 293 294 293 294 296 293 292 293 293 294 293 293 292 292 292 292 294 293 294 295 297 298 299 299 297 296 295 294 292 291 291 291 292 292
295 296 293 293 293 294 291 295 293 292 291 290 293 289 294 294 291 290 291 291 292 292 292 291 291 291 291 291 292 293 294 294 295 296 296 296 293 289 289 289 290 290 291 290
295 292 293 293 294 294 294 294 293 292 291 290 290 289 294 289 289 290 291 291 292 293 292 290 289 289 288 290 291 291 291 291 292 292 293 291 289 289 289 289 289 289 289 289
296 296 296 296 293 294 293 291 290 290 290 285 291 289 292 290 292 293 291 291 291 291 290 289 289 288 287 288 289 289 289 288 289 290 290 290 289 288 288 288 288 288 288 288
293 293 294 294 292 292 293 292 286 284 284 284 286 286 293 295 292 293 291 291 291 290 289 288 287 287 286 287 287 287 287 286 288 288 288 288 288 289 288 288 288 287 287 286
290 288 292 294 296 292 290 293 288 281 281 285 284 284 290 291 291 291 294 292 291 290 289 288 288 287 286 286 286 286 286 285 287 287 287 288 288 288 287 287 287 286 286 285
289 289 292 291 292 296 289 287 292 283 277 284 287 288 292 288 288 289 290 290 289 289 289 288 288 287 287 287 287 287 286 286 286 287 287 287 287 287 286 286 286 286 286 284
294 289 289 290 293 292 292 294 286 287 281 281 284 285 290 287 289 288 287 288 289 290 289 289 288 287 287 287 287 286 286 286 286 286 287 286 286 286 286 286 285 285 285 284
293 291 287 290 288 289 288 287 288 289 287 285 283 286 293 293 292 289 290 290 291 290 289 289 289 288 287 287 287 286 286 286 286 286 286 286 286 286 286 285 285 284 284 283
295 290 286 287 290 290 292 291 290 287 282 283 284 288 290 291 292 292 291 291 292 291 291 290 290 289 286 285 286 286 286 286 286 286 286 286 285 285 285 285 284 284 282 282
294 289 286 286 287 288 287 288 290 291 288 285 285 288 290 289 290 291 291 291 291 291 291 290 290 289 288 286 285 285 286 286 286 285 285 285 285 285 285 284 283 282 281 280
297 291 289 287 290 290 285 288 288 289 286 287 286 290 288 289 290 290 290 291 291 290 291 290 290 290 290 288 286 285 285 286 285 285 285 285 285 285 284 283 282 280 279 278
294 288 290 292 291 290 289 289 288 287 289 287 291 288 290 292 291 292 293 292 291 290 290 291 291 291 290 288 287 286 285 285 285 284 284 285 285 285 283 281 279 278 277 276
291 288 290 287 289 287 286 289 289 288 289 290 291 289 295 294 294 291 291 290 289 290 291 291 291 291 289 288 287 286 285 284 285 284 284 285 284 282 280 278 277 276 275 275
289 289 285 284 289 284 280 285 288 289 291 291 287 291 290 289 290 291 292 291 291 291 291 290 290 290 289 288 288 286 285 285 284 283 283 283 282 280 279 277 275 275 274 274
286 286 285 282 281 276 285 284 290 288 288 288 286 287 289 290 290 291 293 292 291 290 289 289 289 289 289 288 287 287 286 284 282 283 282 281 280 279 277 275 274 274 273 272
287 286 278 278 279 284 278 280 284 285 286 287 288 286 284 283 285 286 287 288 291 289 290 290 291 290 288 287 287 285 282 282 282 281 281 280 279 277 275 273 273 273 272 271
282 285 285 277 278 278 285 281 281 286 281 286 288 285 282 282 283 288 284 286 285 286 287 286 287 286 286 285 283 282 282 281 281 282 281 280 278 275 273 273 272 272 271 271
279 280 281 279 279 281 285 280 281 279 284 284 287 286 282 282 287 285 284 283 285 285 285 284 284 283 283 281 281 281 281 280 282 282 279 277 275 273 273 272 271 270 269 269
280 279 279 279 278 277 281 278 280 285 281 283 282 282 282 282 281 282 282 282 282 282 282 283 282 281 282 281 280 280 279 282 279 278 276 274 272 272 270 268 268 267 267 266
279 284 281 283 282 279 282 282 283 284 285 282 282 282 283 281 280 281 281 281 281 282 281 281 281 280 280 280 280 280 281 277 275 274 272 270 269 269 268 267 267 267 267 267
278 279 279 281 278 278 280 281 282 282 282 282 283 282 282 281 281 280 281 281 280 281 280 280 278 278 279 279 278 280 276 274 272 272 270 268 267 267 266 268 268 268 268 268
279 278 276 275 276 278 280 281 282 282 282 281 281 281 282 281 280 280 280 280 281 281 279 278 278 278 279 279 278 277 274 272 272 271 269 269 268 267 268 268 269 268 269 269
278 276 276 277 280 281 281 283 283 282 281 282 281 279 280 281 281 280 280 280 280 279 278 277 277 277 278 276 275 271 270 270 271 270 269 269 269 268 268 268 268 270 271 271

GFSCGP_sfc_thetae_045.txt.gz
Theta_e
303 299 296 300 301 301 300 298 298 301 300 298 299 299 302 301 300 301 301 300 298 297 297 298 299 303 305 303 303 304 305 305 307 307 306 304 301 300 299 298 300 300 301 303
298 295 302 304 302 300 298 297 297 301 298 297 298 298 302 303 300 301 301 300 298 296 296 297 299 301 303 303 304 304 305 308 309 307 305 302 299 297 296 295 295 296 296 296
297 300 301 299 297 296 297 296 297 297 296 297 296 295 298 302 302 300 300 300 298 296 295 295 297 299 300 301 302 302 304 304 304 303 300 298 297 296 294 293 292 293 294 294
298 302 297 297 296 297 294 300 297 296 294 291 297 289 298 301 297 296 296 297 296 296 296 296 295 296 297 297 298 300 300 301 301 302 301 299 295 291 291 291 292 292 293 292
297 295 295 294 296 298 296 298 296 296 294 294 295 289 295 299 296 295 295 295 296 296 295 294 294 294 294 295 295 296 295 295 296 297 297 295 292 292 291 290 290 290 291 291
298 299 298 298 296 298 298 295 294 294 293 287 293 292 293 296 295 297 295 294 295 294 294 293 293 292 291 292 293 293 292 292 293 294 294 292 291 290 290 290 290 289 289 289
295 296 299 298 294 295 296 293 288 286 285 285 292 292 294 300 296 298 294 294 294 294 293 292 290 290 290 290 291 291 291 289 291 292 292 292 291 291 290 290 289 288 288 287
292 291 297 297 298 296 292 294 289 283 285 287 286 286 293 298 297 295 297 295 295 293 293 291 291 290 289 289 289 288 289 288 289 290 290 291 291 290 290 289 289 288 287 286
293 294 297 297 299 300 293 290 297 288 283 283 289 291 296 292 291 293 295 294 292 292 292 291 291 290 289 288 288 288 288 288 288 289 289 289 289 289 288 288 288 287 287 286
298 292 293 293 294 295 294 297 287 288 282 282 289 290 291 289 290 291 292 292 292 292 292 291 291 290 289 289 288 289 288 287 288 288 288 288 288 288 288 288 287 286 286 285
298 295 290 291 290 291 289 289 291 292 290 286 285 288 296 296 294 291 292 293 292 292 292 291 291 290 290 289 288 288 288 288 287 288 288 288 288 288 288 287 286 286 285 284
298 295 292 290 295 295 296 293 292 287 285 287 286 289 292 297 298 295 293 293 294 293 293 292 291 290 289 288 288 287 287 287 288 288 288 287 287 287 287 286 286 286 284 284
296 291 286 289 288 290 288 291 293 292 289 286 286 289 293 293 294 295 294 294 294 293 293 292 291 289 288 288 288 287 287 287 288 287 287 287 286 286 286 286 285 285 284 283
299 292 290 289 292 293 287 289 290 290 286 287 289 291 289 291 292 293 295 295 294 293 293 292 291 291 289 288 287 287 287 288 287 287 287 286 286 286 286 286 285 283 283 281
296 288 292 293 295 295 291 290 289 287 289 287 291 292 296 293 294 295 295 295 293 292 292 292 292 292 291 290 288 288 288 287 287 286 286 286 287 287 286 285 283 282 281 280
294 287 291 288 293 293 290 292 291 290 290 291 292 293 300 300 297 296 295 294 292 292 293 293 292 292 291 291 290 288 288 287 287 285 285 286 286 285 284 282 280 279 278 278
288 287 285 284 290 289 282 287 290 292 292 292 288 293 294 294 293 293 293 294 293 293 293 293 292 292 292 292 291 289 288 287 285 284 284 284 285 283 282 281 279 278 277 277
288 286 287 285 285 279 290 296 292 292 293 294 293 290 291 291 293 295 297 294 293 293 293 293 293 294 293 293 291 291 288 286 284 284 284 283 283 281 281 279 277 277 277 276
289 288 284 282 283 287 290 283 288 290 290 295 292 289 288 287 289 290 294 295 294 294 294 294 294 294 292 290 289 287 285 285 283 283 283 282 282 280 279 277 276 277 276 275
283 287 285 282 281 280 285 288 290 293 284 292 291 288 285 287 287 291 288 288 290 291 290 289 290 289 287 288 287 284 283 282 282 282 283 283 282 280 278 277 276 277 276 275
279 281 280 283 282 285 286 283 287 282 285 287 290 288 285 287 290 288 287 287 288 287 286 286 286 285 286 284 283 282 282 281 283 283 282 281 281 279 278 277 276 274 273 273
281 280 281 283 280 279 284 281 284 287 285 287 291 289 287 288 284 285 286 285 284 283 283 284 283 282 283 282 282 282 281 283 282 281 279 278 277 277 276 274 273 272 271 270
281 286 285 286 284 281 283 283 286 287 288 285 287 288 288 284 283 283 282 282 282 282 281 282 282 281 281 281 281 281 282 280 278 277 276 275 274 274 273 271 271 270 269 270
281 282 283 283 280 281 282 285 283 284 285 285 285 285 285 283 282 281 281 281 281 281 281 280 280 279 279 280 279 281 279 277 275 275 273 272 271 271 270 271 272 271 271 270
280 281 280 277 278 280 282 283 285 285 283 282 282 283 284 283 280 281 281 281 281 281 280 280 279 279 279 279 279 279 276 274 275 275 273 273 272 270 270 270 271 271 272 273
279 279 278 279 280 284 283 285 286 283 282 282 282 280 281 282 281 281 281 281 281 281 280 278 278 277 277 277 276 275 273 273 274 274 273 273 272 271 271 271 270 274 274 274

GFSCGP_sfc_thetae_048.txt.gz
Theta_e
300 294 292 295 297 297 296 294 292 295 296 294 294 294 297 296 295 295 296 295 294 294 294 296 298 301 302 303 304 304 304 304 305 304 302 299 296 294 294 294 295 295 296 298
295 291 298 301 300 297 295 293 292 296 296 293 293 293 297 297 296 297 297 295 294 292 292 295 296 299 302 302 302 303 304 305 306 303 300 295 293 292 291 291 291 292 292 292
294 297 300 298 296 295 294 292 292 293 294 292 290 289 293 298 299 298 298 298 295 292 291 292 294 296 300 300 301 303 303 301 299 296 295 293 292 290 289 288 288 290 290 290
296 300 296 295 294 295 291 296 296 294 290 285 291 283 291 295 296 296 296 294 293 292 293 293 294 294 295 296 297 298 298 297 297 296 293 291 289 286 286 287 287 288 288 288
294 294 293 293 294 297 293 295 293 292 289 287 288 286 290 296 295 294 294 293 292 292 292 292 292 293 292 293 292 292 293 293 293 293 292 290 287 287 287 287 286 286 286 286
295 296 296 296 295 295 296 293 291 290 289 281 288 288 288 293 294 295 294 293 293 292 291 290 290 290 289 289 289 289 289 289 290 290 289 287 287 287 286 286 285 284 285 285
292 293 295 296 291 294 293 290 283 280 279 280 287 286 290 294 293 296 294 294 292 292 291 289 287 287 287 287 288 288 287 287 288 288 288 288 287 287 286 285 284 284 283 282
287 286 293 295 295 292 290 291 284 277 279 280 282 281 288 291 292 293 295 294 292 291 290 288 287 287 287 287 286 286 286 285 287 287 287 287 287 287 286 285 284 283 282 282
290 290 295 295 296 296 290 287 294 285 276 277 284 287 292 290 289 290 291 292 291 291 290 288 288 287 286 285 285 285 285 286 286 286 286 285 285 285 284 284 283 282 282 283
295 289 292 290 294 293 291 293 284 284 274 275 282 284 287 286 288 288 290 290 291 291 290 289 288 286 286 285 284 285 285 285 285 285 285 285 285 284 284 283 282 281 281 282
296 292 286 289 287 289 288 286 288 289 285 278 278 284 291 293 291 289 291 292 291 291 290 288 288 287 286 285 284 284 284 284 284 285 284 284 284 284 284 283 282 281 281 281
296 293 283 285 291 292 293 290 290 285 282 284 282 286 289 291 293 292 292 292 292 291 290 289 288 287 285 285 284 284 284 284 284 284 284 284 284 283 282 282 282 281 280 280
296 289 282 285 286 289 287 289 292 292 286 285 281 285 290 290 290 291 291 291 291 290 290 289 288 286 286 285 284 284 284 284 284 284 283 282 282 282 281 281 281 280 279 278
299 291 288 286 288 289 284 286 289 289 284 283 286 287 286 288 288 290 291 291 291 290 290 289 288 287 286 285 284 284 284 284 284 283 283 281 281 281 281 281 280 279 279 278
296 289 290 292 293 292 287 286 287 286 288 285 288 289 293 294 290 291 293 291 291 290 290 289 288 287 286 285 285 284 284 284 284 283 282 282 281 281 281 280 279 279 278 277
294 288 290 288 290 291 289 290 287 288 289 289 290 289 295 297 293 290 291 291 290 290 290 290 289 288 286 285 285 284 284 283 283 283 282 282 282 281 281 279 278 278 277 276
289 287 285 284 287 288 284 289 291 291 290 289 285 291 292 292 290 290 290 291 291 291 291 290 290 289 289 287 286 284 284 283 282 281 281 281 281 282 280 279 277 276 275 275
287 286 287 284 286 279 287 291 293 292 293 293 291 289 289 292 293 292 293 292 291 292 291 291 291 291 289 288 287 286 283 282 282 282 282 281 282 280 278 277 276 275 275 274
292 287 285 283 284 286 288 283 286 287 289 294 294 293 287 287 288 287 291 292 292 291 292 292 292 291 290 288 288 285 283 282 282 282 282 282 281 279 278 277 275 275 274 272
285 289 286 282 281 280 279 281 286 290 283 289 293 291 285 286 285 287 288 289 291 291 290 290 290 289 288 286 286 285 283 282 281 282 282 282 281 280 278 277 275 274 271 273
279 281 281 283 282 283 281 280 284 280 281 281 284 285 285 286 289 289 286 286 288 287 287 287 287 286 285 284 283 281 281 281 282 281 280 279 279 279 278 276 272 273 271 272
280 279 279 282 280 279 280 280 283 283 281 284 284 284 283 282 282 282 283 282 282 282 283 283 283 282 282 282 282 280 280 281 279 278 278 278 278 277 276 274 269 270 270 267
281 284 283 284 283 280 280 281 284 284 283 282 284 284 284 281 280 281 280 280 280 280 281 280 280 279 280 279 280 279 278 278 276 276 276 273 272 273 273 271 269 267 267 268
280 281 282 282 281 280 281 285 283 283 282 281 282 283 282 280 279 279 279 279 279 278 278 277 278 277 276 274 277 276 276 276 275 273 272 271 271 269 268 270 269 269 267 267
279 281 279 276 278 280 282 283 285 284 282 281 281 281 281 279 279 279 278 278 278 279 278 277 278 276 275 274 273 272 273 273 272 271 270 268 268 268 266 267 268 269 267 269
278 279 279 279 281 283 283 286 286 285 282 280 280 279 280 280 279 279 278 278 278 277 275 275 274 273 272 272 270 268 268 270 270 269 269 268 267 266 266 266 264 274 274 275

GFSCGP_sfc_thetae_051.txt.gz
Theta_e
296 290 288 291 292 293 291 289 288 292 295 292 291 291 293 294 293 292 292 292 292 292 292 294 297 298 300 301 303 303 303 303 302 302 299 297 294 293 292 292 292 293 294 294
292 289 295 296 295 293 292 289 289 292 294 292 290 291 294 293 294 295 295 293 293 290 291 293 296 297 298 300 302 304 304 305 304 302 298 295 292 290 289 290 290 290 291 291
290 294 298 296 294 293 291 289 288 290 291 290 288 288 290 294 295 294 296 296 294 291 290 291 294 296 297 298 301 304 304 303 299 296 294 291 290 288 287 287 287 288 289 289
293 297 296 294 293 294 289 294 293 292 288 284 289 283 289 291 293 293 295 293 293 290 291 293 294 294 295 297 302 302 300 297 295 295 292 290 288 286 284 285 286 286 287 287
291 293 292 292 293 295 291 293 291 290 287 285 285 282 287 293 293 296 295 294 292 291 291 292 294 295 293 295 297 297 296 296 294 292 290 288 286 286 286 285 285 285 285 285
292 294 295 294 293 295 294 291 290 288 286 280 286 285 286 291 294 296 293 291 290 290 291 292 292 291 290 291 292 292 290 289 290 290 288 287 286 285 284 284 283 283 284 284
290 291 293 295 291 292 292 288 281 279 278 280 286 284 290 292 294 295 294 291 290 290 289 290 289 289 288 287 287 287 288 287 288 288 287 286 286 286 284 284 283 283 282 282
287 283 291 294 293 290 289 288 282 276 277 279 283 281 288 293 293 292 294 294 291 289 290 289 288 288 287 287 286 286 286 286 287 287 286 287 287 286 286 285 284 283 282 282
286 287 292 292 295 295 287 286 292 284 273 276 283 286 291 290 290 289 290 291 289 289 288 287 286 287 286 285 285 286 286 285 286 286 286 286 286 285 285 283 283 282 282 282
293 287 289 289 293 291 290 292 284 283 274 273 280 282 286 287 289 288 288 288 288 288 287 286 286 286 286 286 284 284 285 285 285 285 286 285 284 284 283 283 282 281 281 281
294 293 285 287 287 288 288 286 287 287 283 276 275 284 290 292 292 288 290 290 289 289 287 287 286 285 285 284 284 284 284 284 284 285 284 284 283 283 283 282 281 280 280 280
295 292 281 285 288 289 289 289 287 283 280 281 280 286 289 289 291 291 290 291 291 291 289 287 287 285 284 284 283 283 283 283 284 284 284 283 283 283 282 281 280 280 279 279
295 289 282 282 285 287 287 289 292 290 284 284 279 286 288 289 289 289 289 289 290 290 288 287 286 284 284 284 283 283 283 284 284 284 283 282 282 281 281 280 280 279 278 278
299 290 288 286 287 288 284 286 289 290 284 284 286 289 286 287 289 288 288 289 289 289 288 287 286 286 285 285 284 283 283 284 283 283 283 282 281 281 281 280 279 279 278 277
296 288 288 291 290 289 286 286 288 287 289 286 290 289 293 292 290 291 289 288 288 288 288 288 287 286 285 284 283 283 284 284 284 283 282 282 282 281 280 280 279 278 278 277
294 287 289 288 289 289 288 287 287 288 289 290 290 290 294 296 294 289 290 290 289 289 289 289 288 287 285 285 284 283 284 284 284 283 282 282 281 281 280 280 279 278 277 277
290 288 286 285 287 287 284 289 290 291 290 289 285 291 291 292 292 289 289 290 290 290 290 290 288 287 286 286 286 284 284 284 283 283 282 281 282 281 281 281 279 278 277 275
287 288 287 285 286 279 288 293 295 293 294 293 291 291 289 292 293 291 291 291 291 291 291 290 290 289 287 286 286 285 283 283 283 282 282 282 281 281 280 279 279 277 275 275
294 289 286 283 284 286 288 284 287 289 290 296 294 295 295 290 288 288 290 291 293 292 292 292 291 290 288 286 286 284 282 283 282 282 282 282 282 281 280 279 278 277 276 274
288 292 287 283 281 280 283 282 285 291 286 291 294 295 295 287 286 293 288 289 290 290 290 289 289 289 288 287 285 284 283 282 282 282 282 283 283 282 280 280 278 277 276 276
282 284 282 284 283 283 282 281 283 282 283 279 282 286 285 288 291 289 288 288 288 288 288 289 289 288 288 287 285 284 282 281 283 282 281 281 281 281 281 279 276 273 274 273
281 280 280 282 281 279 285 282 284 285 282 283 283 284 284 284 283 284 284 284 285 286 285 285 284 283 283 284 284 281 281 282 279 279 279 280 280 280 278 277 273 273 272 271
281 284 281 284 284 281 282 283 284 284 282 282 284 283 283 282 281 281 281 282 282 283 283 282 283 281 281 280 282 280 278 278 277 277 277 276 275 276 276 275 271 269 270 271
281 282 284 284 284 281 281 285 283 282 281 281 283 284 281 280 280 280 280 280 280 278 278 277 278 277 275 274 276 274 275 275 274 273 271 270 272 268 267 270 271 271 269 269
282 283 281 280 279 281 283 283 285 284 281 281 281 282 282 280 279 280 278 277 278 277 276 276 276 274 273 272 271 269 271 272 271 269 269 269 267 267 267 267 267 268 266 270
279 280 281 281 283 285 284 285 285 285 282 281 280 280 280 280 280 279 278 277 277 276 273 273 271 273 269 270 267 264 265 269 271 269 269 268 267 266 266 266 265 274 274 275

GFSCGP_sfc_thetae_054.txt.gz
Theta_e
294 290 287 290 290 291 289 287 287 290 294 291 290 290 293 293 291 291 290 291 291 292 292 293 297 298 299 299 300 300 303 302 303 301 299 298 293 294 294 294 293 294 294 294
291 288 294 294 293 291 289 287 287 290 293 291 290 289 292 292 292 294 294 293 293 290 290 292 295 296 298 299 300 300 301 302 303 303 297 294 292 291 291 290 290 290 291 290
289 293 296 294 292 290 289 287 287 289 290 289 287 286 289 293 293 293 296 296 295 293 291 291 295 295 296 298 299 301 301 302 300 295 293 291 290 290 289 286 287 288 289 288
291 295 294 292 291 292 287 292 292 290 287 283 288 282 287 290 292 292 295 293 294 293 292 292 295 295 296 297 299 301 305 298 295 295 292 291 290 287 285 285 285 286 286 286
291 292 292 291 292 294 290 292 290 289 285 283 285 282 285 289 290 293 296 294 293 292 292 292 294 297 297 298 301 299 297 295 294 294 293 291 286 286 285 284 284 284 284 284
291 293 294 294 293 294 293 290 289 286 285 279 286 284 285 288 292 294 297 296 293 291 291 293 294 296 295 294 297 297 296 294 293 293 291 289 286 284 284 283 282 282 282 282
289 291 292 293 291 292 291 289 280 279 277 280 284 282 289 291 294 294 297 294 290 290 290 291 292 294 292 291 293 295 294 292 291 289 288 288 286 285 284 283 282 282 281 280
286 284 291 293 292 290 289 288 281 274 276 278 282 280 287 292 295 294 292 291 289 288 290 291 292 293 292 290 290 293 292 289 289 287 286 286 285 284 284 283 283 282 282 282
285 285 290 291 292 294 287 285 290 284 271 275 282 285 290 291 291 291 291 288 286 287 288 289 291 291 289 288 287 290 289 289 287 286 286 285 285 284 283 282 282 282 281 281
291 284 287 288 292 290 289 291 283 282 273 272 280 281 286 287 289 291 290 288 287 287 287 287 288 288 288 288 286 286 288 286 285 285 285 285 285 284 284 283 281 281 280 280
292 289 284 287 287 287 286 285 286 286 282 276 274 282 288 292 292 291 291 289 287 286 286 286 287 287 286 286 284 284 284 284 284 285 285 284 284 283 283 281 281 280 280 279
293 291 281 284 287 288 288 287 286 281 279 280 280 286 289 291 292 292 291 290 288 288 287 286 285 285 284 283 283 283 283 284 284 284 284 284 283 282 281 281 280 280 280 279
294 288 279 282 285 286 285 288 291 288 284 282 280 286 288 288 290 290 291 288 288 287 285 285 284 284 284 284 284 283 283 284 283 283 283 282 282 282 281 280 280 280 279 278
298 290 286 284 285 287 283 286 288 290 285 284 286 289 289 289 289 290 289 288 287 287 286 285 285 284 285 285 284 283 284 284 284 283 283 282 282 282 281 280 280 279 279 278
295 288 288 291 291 288 287 286 288 287 289 287 290 290 295 293 291 292 291 288 287 286 286 286 285 285 285 285 284 284 284 284 284 283 282 282 282 282 281 280 280 279 278 278
294 289 290 288 290 288 286 286 288 289 290 290 291 291 295 295 292 290 291 289 288 288 288 287 287 286 285 284 284 284 284 283 283 283 282 282 281 281 281 280 279 279 278 277
291 290 286 285 289 286 283 289 287 288 290 290 287 292 294 294 293 292 291 289 290 290 289 288 287 287 286 285 285 283 284 283 283 283 283 282 282 281 281 280 280 279 278 278
288 290 289 286 286 279 289 295 295 292 292 292 291 293 292 294 296 295 292 290 290 291 290 290 289 288 287 286 285 284 283 283 283 283 283 282 282 281 281 280 279 279 278 277
295 289 285 283 284 286 287 284 288 289 290 296 294 295 297 296 287 293 291 292 293 292 292 292 291 289 288 286 285 284 282 283 283 282 283 282 282 282 280 280 279 279 278 277
293 294 286 283 282 280 285 284 287 291 286 292 294 295 295 290 287 294 295 289 289 291 289 288 288 286 285 285 284 283 282 282 282 283 283 283 283 283 281 281 280 280 279 278
283 287 284 284 284 284 283 281 285 285 285 278 281 284 286 289 292 287 286 286 286 287 287 287 287 286 285 284 284 283 282 282 283 284 283 282 283 283 283 282 281 280 278 277
283 282 282 284 282 280 285 282 285 286 281 282 282 283 285 284 283 283 284 284 285 285 285 285 285 284 284 284 284 283 282 283 284 283 282 282 282 282 282 281 280 277 276 274
282 286 282 284 285 284 284 284 284 284 282 283 284 283 283 282 282 282 282 283 283 283 283 282 282 281 281 281 282 280 278 278 278 279 279 279 279 279 279 278 274 270 272 273
282 283 283 285 285 284 282 283 284 284 282 282 284 282 282 281 281 281 281 281 281 278 278 277 279 278 276 275 277 277 277 277 277 277 274 273 275 271 271 273 273 273 272 272
282 284 282 283 283 283 285 284 286 282 282 281 281 282 281 281 281 280 279 277 278 277 276 277 278 277 274 274 273 270 273 274 273 271 270 270 270 270 268 269 270 272 267 272
280 282 284 282 285 287 286 286 285 283 282 281 281 280 280 281 280 279 278 277 276 276 273 274 272 274 270 272 270 269 268 272 272 270 269 269 269 268 268 267 264 275 274 276

GFSCGP_sfc_thetae_057.txt.gz
Theta_e
292 289 287 290 289 289 288 285 285 289 292 290 289 290 293 292 290 290 290 291 292 292 294 292 293 297 298 299 299 300 303 304 303 302 301 301 296 296 296 296 296 297 295 293
290 287 292 293 291 289 287 286 286 289 291 290 289 289 291 291 291 293 293 293 292 293 290 291 292 295 297 298 299 299 301 303 303 303 296 296 294 291 292 293 293 293 291 290
289 292 294 293 290 289 287 286 285 288 288 288 286 286 288 292 292 292 294 296 295 295 292 291 292 295 297 298 298 300 301 303 304 294 293 291 291 291 290 290 290 289 289 288
290 294 293 290 289 291 286 291 290 288 286 282 286 282 286 289 291 291 294 294 295 295 293 292 292 295 297 299 299 301 300 302 296 295 294 294 294 292 290 289 288 286 286 285
289 290 290 289 290 292 289 291 289 287 284 283 283 281 284 287 288 292 295 295 296 295 293 292 293 296 297 299 299 300 301 297 295 295 295 294 293 288 288 287 286 283 284 284
289 292 293 293 292 293 292 289 287 285 283 279 286 283 286 286 291 292 295 296 294 292 291 291 293 295 296 297 299 300 300 296 293 294 293 291 288 286 286 285 284 282 282 282
288 290 291 293 290 290 290 288 280 278 276 279 282 281 289 289 292 293 295 295 292 290 288 289 291 294 294 295 299 301 298 292 293 293 291 289 288 288 286 284 283 282 281 280
284 282 290 292 293 290 288 288 281 274 274 277 282 280 286 291 294 293 293 293 290 288 288 289 291 294 294 295 297 298 296 291 291 291 290 289 288 287 286 285 283 282 281 281
284 284 289 290 291 294 286 284 289 283 271 275 282 284 289 291 290 291 292 290 287 289 287 288 290 293 293 294 295 297 293 291 291 290 289 288 287 286 285 282 281 281 280 281
288 282 286 288 291 290 288 291 283 281 273 271 279 280 284 288 290 292 292 290 288 287 286 287 289 291 292 292 291 291 291 290 290 289 288 287 286 285 282 282 281 280 280 281
290 287 283 286 286 286 286 285 284 285 281 275 273 282 288 292 292 292 292 292 290 288 286 286 288 289 289 289 287 287 288 288 288 287 287 285 284 283 282 282 281 280 280 280
292 290 280 283 286 287 287 286 287 281 277 279 279 284 290 290 292 291 293 292 288 287 286 285 286 286 285 285 285 285 285 286 288 287 286 284 283 282 282 281 280 280 280 280
293 287 277 282 283 285 284 287 290 287 283 280 278 285 287 288 289 290 291 290 288 287 284 284 284 285 285 285 285 285 285 285 286 285 284 283 282 282 281 280 280 280 279 279
297 289 284 283 283 286 283 285 287 289 284 284 285 288 289 289 289 291 291 289 288 286 285 284 284 284 285 285 285 285 284 285 284 284 283 282 282 282 282 281 280 280 279 279
295 285 288 290 288 286 285 285 287 287 288 285 289 288 293 295 291 294 292 290 287 286 285 285 285 284 285 285 285 285 285 284 284 284 283 283 283 283 282 281 280 280 279 279
295 286 288 286 289 288 286 286 287 288 290 290 290 290 295 294 292 290 293 291 288 288 288 287 286 285 285 285 285 285 284 284 284 284 283 283 282 282 281 280 280 279 279 278
290 288 286 284 288 287 283 287 289 289 291 291 287 292 293 295 293 294 294 291 290 290 290 288 287 286 286 286 286 284 284 284 283 283 282 282 282 281 281 280 280 279 278 278
288 289 287 285 286 279 289 295 294 291 292 292 293 294 294 294 296 295 293 292 291 292 291 289 289 288 287 286 285 285 284 283 283 283 282 282 282 281 281 280 279 279 279 278
296 290 287 284 284 287 288 288 288 289 290 295 292 294 295 295 288 294 292 293 295 292 293 292 291 289 287 286 285 283 282 282 283 282 282 282 282 282 280 280 279 279 279 278
292 294 287 283 281 280 287 287 290 293 287 296 295 295 295 292 288 295 293 290 291 291 290 289 287 286 285 284 283 282 281 281 282 283 283 283 283 282 281 281 280 280 280 279
282 286 285 284 283 285 284 281 287 285 286 280 288 294 292 290 293 287 287 287 286 286 285 286 285 284 283 283 282 281 281 281 283 283 283 282 282 283 282 282 281 281 280 279
283 283 284 285 283 281 284 284 286 287 283 282 282 284 285 286 285 284 285 284 284 284 284 283 282 281 281 282 282 280 281 282 282 282 282 282 283 283 283 283 282 281 280 279
281 285 282 285 285 291 286 288 287 285 284 284 284 285 285 284 283 282 283 283 283 282 283 282 281 280 280 279 281 280 281 283 284 283 283 284 284 284 284 283 282 280 279 279
281 284 283 285 286 285 284 283 284 283 283 282 284 283 282 283 283 282 282 282 281 277 277 276 279 277 276 276 278 278 278 280 282 281 280 279 280 279 280 281 279 277 276 276
280 282 281 282 284 284 284 283 285 283 282 282 283 283 282 282 282 282 279 277 277 276 275 276 279 277 274 274 273 273 274 277 276 275 273 273 274 274 272 272 274 275 273 277
281 282 283 281 283 285 285 285 285 282 282 282 282 281 280 281 281 280 279 278 277 276 274 276 275 275 271 271 269 268 268 272 273 271 270 271 272 271 272 271 269 276 275 278

GFSCGP_sfc_thetae_060.txt.gz
Theta_e
291 288 286 289 288 287 286 284 285 287 291 288 288 288 291 292 289 290 290 290 292 293 297 293 293 293 296 297 299 299 303 303 305 304 304 303 299 299 298 299 300 301 301 301
288 285 291 292 290 288 286 285 285 288 289 289 288 288 292 291 291 292 293 293 293 293 291 291 291 293 296 297 299 299 305 302 305 307 301 299 296 293 294 295 295 296 296 296
287 290 292 292 288 288 286 284 284 287 287 287 285 285 287 291 291 292 292 295 294 295 295 291 291 292 295 296 298 300 304 303 304 298 294 293 294 293 293 292 292 291 292 291
288 292 291 288 288 290 285 289 288 286 285 281 285 280 285 289 290 291 294 292 294 295 294 293 292 291 294 297 299 300 301 304 303 296 295 297 296 294 293 291 290 289 289 288
288 289 289 288 289 291 288 290 288 287 283 282 281 281 284 286 288 292 294 294 294 295 293 292 292 293 295 297 298 300 300 302 297 297 297 298 295 289 290 288 287 287 286 286
288 291 292 292 291 291 291 288 287 284 283 279 283 283 284 285 290 291 295 294 294 293 291 291 291 292 294 297 298 299 299 297 295 297 297 297 290 289 288 287 286 285 285 282
287 288 290 292 289 290 289 287 280 277 275 278 280 280 287 288 290 292 294 294 291 291 289 289 289 291 293 295 298 300 300 296 295 295 295 294 292 291 290 287 286 284 283 280
284 282 289 291 292 289 287 288 280 272 273 277 281 279 284 290 293 292 292 293 291 290 289 288 289 291 293 295 298 300 301 297 294 294 291 291 291 291 290 289 287 286 284 282
282 282 288 289 290 293 286 284 288 282 269 274 281 282 288 290 291 290 292 290 290 290 290 288 288 291 292 294 297 299 298 295 294 293 289 289 290 289 288 286 286 285 284 282
287 282 285 287 290 289 288 289 282 280 273 270 279 280 283 287 290 291 291 291 290 289 289 287 288 290 291 293 296 298 297 293 293 292 290 289 289 288 287 285 283 282 282 281
289 286 282 285 285 285 286 284 283 284 280 274 272 282 286 289 290 291 292 292 291 290 288 287 287 289 290 291 291 293 293 292 290 290 289 289 287 286 285 284 283 282 281 280
290 288 281 283 285 286 285 285 285 280 277 277 278 284 289 290 290 290 292 291 289 289 288 286 287 287 287 288 287 288 291 291 290 289 288 287 286 285 284 284 282 281 280 280
291 287 275 281 283 284 283 286 288 285 282 279 278 284 287 288 289 290 290 290 290 288 286 285 285 285 286 286 287 288 288 289 288 287 287 286 284 284 283 282 281 280 279 280
297 289 285 283 283 285 282 284 286 288 283 283 283 287 290 288 290 290 291 290 289 288 286 284 284 285 286 287 287 287 287 287 286 286 286 285 284 284 283 282 281 280 280 279
295 285 288 288 288 285 285 284 286 286 288 283 288 287 292 293 292 293 293 290 290 288 286 285 285 285 285 285 286 287 287 286 285 286 285 285 284 284 283 281 280 280 279 279
294 286 287 285 288 288 286 286 287 287 289 289 289 289 295 294 292 290 293 295 292 289 289 288 286 285 285 286 286 286 286 285 285 285 284 285 283 283 282 281 280 280 279 279
291 288 285 284 287 285 282 286 288 287 289 289 286 291 295 294 292 295 294 292 291 292 292 290 288 287 287 286 287 286 286 285 284 283 282 282 283 282 281 280 280 279 279 279
287 288 288 285 284 278 288 293 293 291 291 292 292 293 295 296 296 295 297 294 292 293 292 291 290 289 288 287 286 286 285 283 283 283 282 282 282 282 281 280 280 279 279 278
291 288 285 283 284 286 286 287 287 288 289 295 293 294 296 297 288 293 294 294 296 294 293 294 292 290 287 286 286 284 282 282 283 282 282 282 283 282 281 280 279 279 279 278
289 290 285 283 281 278 285 284 289 292 286 293 294 295 294 292 287 293 291 289 291 290 289 289 289 286 284 283 283 282 281 281 281 282 282 282 283 282 281 281 280 280 279 279
283 284 282 284 283 285 284 282 287 284 285 281 284 291 290 288 294 289 286 286 286 286 286 285 284 284 283 282 282 281 280 280 281 281 281 282 282 282 282 281 280 279 279 279
283 283 283 284 282 281 284 283 285 287 283 283 283 285 286 287 287 286 284 284 284 283 282 282 281 280 280 280 281 279 279 279 279 280 280 281 282 282 282 281 280 280 280 279
280 287 284 286 285 289 286 285 287 286 287 285 285 286 285 284 284 283 283 282 281 281 282 280 279 278 278 277 279 278 277 279 279 280 281 282 282 282 282 282 281 280 281 280
283 284 282 282 285 287 286 285 283 283 284 283 284 284 283 283 283 282 282 282 281 277 277 277 278 277 275 276 278 279 280 283 283 282 282 282 282 282 283 283 282 283 281 280
283 284 282 282 284 285 285 283 283 284 282 282 282 283 283 282 282 282 280 278 277 276 275 276 278 276 274 274 274 275 277 280 280 279 278 280 280 281 279 277 279 279 275 281
282 282 281 281 285 285 285 283 284 283 282 282 281 281 281 282 282 281 278 278 277 277 276 277 276 274 272 272 271 271 273 276 276 274 274 274 274 273 273 273 271 278 278 280

GFSCGP_sfc_thetae_063.txt.gz
Theta_e
291 289 287 289 288 287 287 285 284 287 291 290 289 289 292 294 292 292 293 294 294 294 299 297 297 297 297 299 301 303 305 308 308 308 307 307 305 303 303 305 307 309 310 310
288 286 291 291 289 289 287 285 286 288 289 290 289 289 293 292 295 296 297 296 296 297 295 295 295 295 296 298 300 302 305 307 308 310 307 305 301 298 299 299 300 302 304 306
287 289 291 291 288 287 285 285 285 287 288 288 286 285 287 291 293 295 295 297 296 297 298 296 293 294 296 297 299 302 305 306 307 308 299 296 296 297 295 295 296 296 300 300
288 291 290 288 287 289 284 288 288 287 286 282 286 280 286 289 291 291 294 294 296 297 296 296 293 293 294 297 300 302 304 305 306 300 302 301 302 299 297 297 294 293 295 295
287 289 288 287 289 290 287 289 287 286 284 283 282 282 285 287 288 291 295 295 296 296 296 295 293 295 295 297 299 302 304 304 303 300 303 302 301 298 295 293 292 290 290 291
287 290 291 291 290 290 290 288 286 284 283 279 283 283 285 285 289 291 293 295 295 294 294 294 293 293 293 296 299 301 302 304 299 299 301 302 300 293 292 291 291 289 288 287
286 288 290 291 288 289 288 286 279 277 276 279 281 281 288 288 290 292 294 296 293 293 294 293 291 291 292 295 297 300 301 302 299 300 300 301 296 295 294 292 291 287 286 285
283 281 289 291 290 288 286 286 280 273 273 277 281 279 285 290 292 292 292 293 292 293 293 293 292 291 292 294 297 299 300 300 298 299 299 299 296 295 295 294 292 290 289 287
281 282 287 288 289 292 286 284 288 282 269 275 280 282 287 289 290 291 292 291 291 292 293 292 291 290 292 294 296 299 300 301 297 298 298 295 294 295 294 292 290 289 288 286
286 281 285 287 289 288 287 289 283 280 273 270 278 280 284 287 290 292 291 292 292 292 292 291 290 290 292 294 296 299 301 301 296 296 295 293 293 293 292 290 288 286 285 284
288 285 282 285 285 285 285 284 283 283 280 274 272 281 286 289 290 290 291 292 292 292 292 291 289 290 291 292 294 298 299 296 294 294 293 292 290 290 289 289 286 285 284 283
290 287 281 283 285 285 285 285 285 280 276 277 277 284 288 290 291 290 291 292 291 291 292 290 289 289 289 291 292 295 296 293 293 293 292 290 288 288 287 287 285 284 283 283
291 286 275 281 282 283 283 285 287 284 282 279 278 284 287 288 289 290 291 291 291 291 290 288 287 288 288 289 290 291 293 293 292 291 290 289 288 287 286 286 284 283 282 282
296 288 284 282 282 284 282 283 285 287 280 283 282 287 290 289 290 291 292 291 291 291 290 288 287 287 288 288 289 290 290 291 290 289 290 289 287 287 287 285 283 282 282 281
295 287 287 289 288 286 286 284 286 286 287 284 287 287 291 292 292 294 295 292 291 291 289 288 288 287 287 287 288 289 290 289 288 288 289 289 287 287 286 284 282 282 281 281
294 287 289 286 289 290 287 286 285 287 288 288 289 288 296 296 293 291 293 296 295 293 292 292 291 288 286 287 287 288 288 288 288 288 287 288 286 285 284 283 282 281 281 280
288 288 285 283 288 287 282 287 288 289 289 289 285 290 295 294 292 294 293 293 293 293 295 293 292 290 289 288 288 287 288 288 286 287 286 285 285 284 283 282 281 280 280 279
286 285 285 284 285 277 288 294 292 291 291 292 292 294 295 295 294 294 296 295 294 293 294 295 294 292 290 289 287 288 287 286 285 286 285 285 284 283 283 282 281 281 280 279
291 286 283 282 282 286 287 287 286 287 288 294 292 294 295 296 289 294 298 295 297 297 295 294 294 293 290 287 286 285 284 284 284 284 284 283 283 282 281 281 280 280 280 279
289 290 285 283 279 277 285 288 288 291 285 293 294 294 294 292 287 294 291 290 291 290 289 289 289 289 287 285 284 284 283 282 282 283 283 283 282 281 280 282 281 281 280 280
281 283 281 283 281 284 289 285 288 284 284 281 284 291 288 289 294 291 287 289 287 286 286 286 285 285 285 283 282 281 281 281 281 281 281 281 282 281 281 281 281 280 279 279
282 281 281 283 280 278 289 286 287 290 286 286 285 286 288 289 289 289 286 286 286 284 284 283 282 281 280 280 280 279 279 280 280 280 279 279 279 281 281 279 280 280 280 279
278 283 281 285 284 290 287 290 289 286 285 285 284 286 285 284 285 285 284 283 283 282 282 279 278 278 278 277 278 278 277 278 278 278 278 279 280 281 281 281 280 279 280 279
282 283 281 281 282 284 287 289 286 286 286 285 284 284 284 283 283 283 283 282 281 277 277 276 275 275 275 275 277 276 277 277 279 279 280 281 281 281 282 282 281 281 280 280
279 281 278 281 286 287 289 286 286 286 285 283 282 283 282 282 283 282 280 278 278 278 277 278 278 275 274 275 275 276 278 284 283 282 281 282 282 282 281 281 282 281 282 283
280 281 281 282 284 286 287 284 285 285 284 283 281 280 280 280 281 280 278 278 278 278 277 276 275 273 272 272 271 273 277 280 280 278 279 279 279 279 278 277 275 281 282 284

GFSCGP_sfc_thetae_066.txt.gz
Theta_e
299 298 295 298 299 296 295 294 293 296 296 296 297 298 300 303 303 303 304 305 306 306 309 309 308 308 309 311 310 310 311 313 316 316 315 314 314 315 312 313 315 318 320 319
297 294 300 298 296 295 295 294 294 297 295 295 297 296 300 302 302 304 305 305 306 307 308 308 307 307 306 307 308 309 310 312 315 315 315 315 315 313 314 308 308 311 314 315
295 296 298 296 294 293 294 293 294 293 294 295 294 294 297 301 301 302 304 305 306 307 307 308 306 306 306 306 307 308 309 311 314 315 315 312 310 307 302 302 303 304 308 309
296 297 295 294 293 295 291 296 295 293 292 289 293 287 295 298 299 299 302 305 305 306 306 306 307 305 305 307 308 308 309 310 313 314 312 310 311 310 307 304 304 300 302 303
294 293 293 293 294 296 293 295 294 293 292 291 292 288 293 294 295 298 302 304 306 307 307 306 306 305 306 306 306 307 308 309 311 313 312 312 313 314 307 307 299 297 297 298
294 296 296 296 294 296 295 294 293 292 292 286 291 289 291 295 296 299 301 303 305 305 305 305 305 304 304 305 305 306 307 308 310 311 311 312 312 309 301 302 300 295 295 295
292 293 295 296 293 294 295 293 286 285 284 284 288 288 291 297 297 298 300 303 303 303 304 304 303 302 301 301 303 304 306 306 308 308 309 311 312 309 306 301 300 296 295 295
287 285 293 296 296 293 292 293 287 283 282 286 285 284 292 298 299 300 300 301 302 300 303 304 304 303 301 301 302 304 304 305 307 307 308 309 311 308 308 304 305 301 301 303
287 287 293 293 296 297 291 288 294 288 280 283 288 292 296 297 296 297 298 301 302 303 303 303 304 302 301 301 302 303 304 304 306 305 307 307 308 306 304 302 306 305 304 299
292 286 291 292 295 294 293 295 287 288 282 281 286 287 289 295 297 298 299 300 301 302 303 303 302 301 300 301 302 303 304 304 305 305 306 306 305 305 304 300 299 297 298 291
295 290 288 291 290 291 291 289 289 290 288 284 283 287 297 297 299 298 300 299 301 301 301 302 301 299 299 300 301 302 303 303 303 303 304 303 302 301 299 295 294 292 290 286
294 291 287 288 292 293 292 292 292 286 284 286 285 287 295 297 298 298 299 298 300 299 300 301 300 299 298 299 300 301 302 302 303 302 303 302 300 299 297 294 293 291 288 287
294 289 284 287 289 289 289 291 292 292 288 287 285 288 295 295 297 297 298 300 300 299 300 299 297 298 298 299 299 300 301 301 302 301 300 300 299 297 296 295 292 291 288 286
297 290 288 286 289 291 286 289 291 290 285 286 288 290 295 296 297 298 300 301 300 301 300 300 299 299 299 298 298 298 299 301 300 299 299 298 298 296 294 291 289 289 288 285
294 286 289 291 293 292 291 291 290 288 290 287 290 291 295 297 298 300 302 302 301 302 301 301 300 300 299 297 296 297 298 299 299 297 297 297 296 295 293 289 287 287 286 284
295 286 290 287 292 292 289 291 291 290 291 290 291 291 298 300 301 300 300 301 301 302 303 304 300 299 297 296 296 296 296 297 297 296 295 296 294 291 289 287 285 284 284 283
286 286 285 283 289 289 284 289 291 292 293 293 289 294 299 299 299 299 300 300 300 301 302 302 302 302 301 299 297 296 296 296 294 293 293 292 291 289 288 286 284 283 282 282
286 285 285 281 284 276 289 297 296 293 295 296 295 296 298 300 301 301 303 301 301 301 300 301 302 303 303 300 297 296 294 293 291 290 290 289 289 288 287 285 284 283 282 281
292 287 283 280 280 285 288 292 292 291 291 297 296 298 299 300 299 299 302 302 302 303 303 302 301 299 298 297 295 292 290 290 289 289 289 288 288 287 286 284 284 283 282 281
288 290 284 283 278 277 287 292 293 295 286 298 298 297 298 299 291 296 301 299 298 296 294 293 293 293 293 293 290 288 287 287 287 288 288 288 287 286 284 285 284 284 283 281
282 282 281 280 279 285 291 290 293 284 289 289 291 296 296 295 298 301 294 296 293 291 291 291 290 288 287 287 286 286 285 285 286 286 286 285 286 285 285 285 284 283 282 280
282 281 281 283 279 279 292 289 288 290 291 293 292 292 292 293 294 294 293 292 291 289 288 287 286 284 283 284 285 284 283 284 284 284 284 284 284 284 284 283 283 282 280 279
279 284 282 282 281 290 291 291 294 290 288 289 290 292 289 289 290 291 290 289 288 285 284 282 282 281 281 282 284 283 282 282 282 282 281 282 283 283 283 282 282 282 281 280
285 287 283 283 286 290 290 291 291 290 288 287 287 287 287 287 288 286 286 284 284 282 281 280 281 279 278 280 280 281 281 281 281 281 281 282 282 282 283 283 283 282 281 281
285 286 284 285 287 289 290 291 291 291 290 289 288 285 285 284 285 285 283 282 281 281 280 280 278 277 276 278 279 281 282 283 283 282 282 283 283 283 282 282 283 282 283 283
285 283 281 280 287 287 287 290 289 289 289 288 286 284 284 282 284 283 280 281 281 279 279 277 275 275 274 275 275 276 281 284 283 281 282 283 283 283 282 281 281 284 284 285

GFSCGP_sfc_thetae_069.txt.gz
Theta_e
303 297 295 298 299 299 297 296 295 298 299 298 298 298 301 304 304 304 305 306 307 308 311 313 313 313 316 320 322 324 324 323 324 323 321 322 322 326 324 325 328 329 327 327
298 295 300 301 300 298 297 295 295 298 299 296 297 297 301 303 304 305 305 306 307 308 310 312 313 313 312 315 318 318 318 318 319 319 319 319 318 319 320 319 320 321 321 323
296 297 300 298 297 295 296 295 295 295 297 298 296 295 298 303 304 305 306 307 307 308 308 310 312 312 312 311 314 314 315 315 316 317 318 317 317 316 314 315 313 311 313 316
297 300 297 296 295 297 292 298 297 295 293 289 296 288 296 299 300 303 305 305 307 308 310 310 311 312 311 312 313 313 314 314 315 317 316 315 313 311 311 313 312 307 307 310
295 296 296 294 295 298 295 297 296 296 294 293 293 289 294 299 297 300 303 306 308 309 310 310 310 311 312 313 313 313 312 313 314 315 316 315 312 312 315 316 312 307 302 305
297 299 299 298 297 298 298 296 296 295 293 286 291 291 292 296 298 301 303 305 307 308 309 309 310 310 310 313 312 312 311 311 312 314 315 315 312 313 315 313 308 305 302 300
294 295 298 298 294 296 297 293 286 285 286 285 292 290 293 298 300 301 302 304 306 306 306 308 307 306 306 308 309 309 309 309 311 312 313 314 313 314 315 312 309 302 298 297
289 287 294 297 296 294 293 293 288 282 284 287 288 286 292 300 303 303 303 304 305 305 306 306 308 308 307 306 306 307 307 308 309 311 311 312 313 313 314 311 311 308 303 302
289 289 296 297 298 298 293 289 296 289 288 284 289 293 298 301 299 301 302 303 303 305 307 306 307 308 307 305 305 306 306 307 308 309 310 310 311 312 313 311 310 308 306 304
294 288 293 294 296 296 294 297 288 288 283 281 286 289 290 297 298 301 301 301 304 305 306 306 307 306 305 305 305 306 306 306 307 308 309 308 309 310 311 310 309 308 305 302
295 292 289 292 291 291 291 289 291 291 289 284 283 288 298 298 300 300 302 303 303 304 305 306 306 305 304 304 304 305 305 305 306 307 308 307 308 309 309 307 306 305 304 298
296 292 288 290 296 297 295 292 292 287 285 288 287 287 300 300 301 301 301 303 303 302 303 304 305 304 302 303 303 303 304 305 306 306 306 306 306 307 306 306 304 302 296 292
294 290 284 287 292 292 290 293 293 293 291 288 284 287 298 300 300 301 300 303 304 304 305 304 303 302 303 303 303 303 304 304 305 305 304 304 304 303 302 302 300 296 293 289
296 290 288 286 290 293 288 290 293 291 286 287 288 290 295 298 299 301 301 303 304 304 305 305 305 304 304 304 303 303 303 304 304 304 303 302 303 302 301 301 298 293 291 287
292 286 288 291 293 293 293 292 292 289 290 286 290 291 295 298 300 301 303 303 303 303 304 305 304 306 306 304 302 302 302 303 303 302 301 301 302 302 301 299 296 292 290 287
293 286 288 286 290 291 288 292 293 293 293 292 293 292 300 301 302 301 302 302 302 303 303 305 305 305 303 304 302 302 301 301 301 301 299 299 299 297 295 293 290 288 286 285
286 286 285 282 288 286 282 288 291 293 295 294 289 295 299 299 300 301 303 304 303 303 304 304 305 305 305 304 302 302 301 300 298 297 295 294 293 292 291 289 287 286 285 284
286 285 284 281 283 276 288 295 295 293 295 297 296 297 299 300 302 303 305 304 304 304 304 305 305 306 306 304 303 302 299 297 295 294 292 291 291 290 289 287 286 286 285 283
290 286 281 278 278 283 286 290 290 289 289 297 297 299 300 302 302 302 305 306 305 305 304 301 300 299 298 298 298 294 292 292 292 291 291 290 290 288 287 286 285 285 284 283
289 290 283 282 277 275 285 291 295 295 284 292 294 294 294 297 293 298 300 299 299 299 297 296 295 295 293 293 290 289 289 289 289 289 289 290 288 287 286 286 285 285 284 283
282 282 280 280 278 282 291 292 294 282 284 289 290 292 293 292 295 297 297 297 298 295 293 293 292 289 288 287 286 286 287 286 287 287 287 286 287 286 286 286 285 284 282 281
280 279 280 282 278 276 292 290 286 288 291 290 290 292 290 292 291 292 294 293 292 291 289 288 286 286 285 285 285 285 285 285 285 284 284 284 285 285 285 284 283 283 281 280
278 282 281 284 284 291 292 292 294 294 292 292 291 292 291 290 288 289 289 289 289 287 285 284 283 283 282 282 283 284 282 283 282 282 281 283 283 284 284 283 282 281 281 280
285 287 283 282 285 287 289 292 294 293 292 293 292 292 290 288 288 286 286 286 285 284 282 282 282 280 279 281 281 281 281 282 281 281 281 282 282 282 283 283 283 282 281 281
285 286 284 284 286 288 291 293 294 293 293 291 292 291 288 287 286 286 286 284 283 282 281 281 279 278 277 279 279 281 283 282 282 281 282 283 283 283 282 283 283 283 283 283
285 283 281 280 286 287 288 291 294 291 291 292 290 289 286 285 285 285 284 283 282 281 280 278 277 276 276 277 276 278 281 282 282 281 282 282 283 283 283 282 282 285 285 285

GFSCGP_sfc_thetae_072.txt.gz
Theta_e
299 293 289 293 295 295 292 291 290 292 296 293 293 293 295 298 297 296 297 298 299 301 303 305 305 306 309 314 318 324 325 323 323 323 322 321 322 322 324 325 326 328 330 332
295 290 296 298 298 295 292 290 289 293 296 292 292 292 295 297 297 298 298 298 299 300 301 303 304 304 307 310 315 320 323 322 322 322 322 321 320 318 320 319 320 322 323 326
293 295 299 297 294 293 291 290 289 290 293 293 289 289 292 297 299 299 300 301 300 300 300 301 303 304 304 306 310 315 319 321 320 320 317 312 311 310 310 312 315 317 318 322
294 298 295 294 293 294 289 294 293 292 289 283 291 281 289 293 294 297 298 298 299 300 301 302 302 303 304 306 308 310 312 313 315 315 313 312 311 309 310 310 309 312 312 317
292 293 293 292 293 295 291 295 292 291 287 287 286 283 287 291 290 294 296 298 299 300 301 301 302 303 304 304 304 306 308 308 309 311 311 310 308 308 307 306 305 306 308 312
293 296 295 294 295 295 296 292 291 289 288 280 286 285 284 288 290 292 294 296 299 300 300 301 301 303 303 304 305 304 305 306 308 309 310 309 309 306 304 305 306 306 305 306
292 292 294 296 292 294 292 288 280 279 278 279 285 283 287 292 294 293 294 296 296 301 299 300 300 299 299 301 303 304 304 303 305 306 308 309 308 306 305 306 305 304 302 301
285 283 292 294 293 290 290 289 281 274 277 279 283 281 286 293 294 294 296 297 296 298 299 299 300 301 300 300 301 302 302 302 303 304 306 307 308 306 307 307 306 305 303 304
286 287 293 294 293 294 289 286 291 283 276 277 283 287 292 294 293 294 295 296 295 297 299 299 300 301 301 299 300 301 301 302 302 303 304 305 306 306 307 306 305 305 303 302
290 284 291 291 293 293 290 292 284 283 274 273 280 281 285 290 293 294 294 295 297 298 299 300 300 300 299 299 300 301 301 301 301 302 303 304 304 304 305 305 303 302 301 301
292 289 285 290 288 288 287 286 287 287 284 276 276 281 291 292 294 295 296 297 296 297 297 298 299 298 298 299 299 299 300 300 301 301 302 303 302 303 304 304 302 301 300 298
293 290 282 286 290 291 290 288 289 282 280 281 281 284 293 294 295 295 295 297 296 297 298 297 298 297 297 297 298 298 299 300 300 301 301 301 301 302 301 301 301 299 298 293
293 287 278 282 287 288 287 289 291 290 285 282 279 283 293 294 293 294 293 295 298 298 298 298 297 297 297 297 297 298 298 299 300 300 300 300 299 300 300 299 299 297 293 290
297 290 284 281 286 291 286 288 290 289 283 284 284 287 292 294 293 296 296 296 297 297 298 298 298 298 298 298 298 298 298 299 299 299 299 298 298 299 299 298 296 293 289 286
291 285 288 289 289 290 289 289 291 289 289 285 287 287 291 294 294 297 299 297 297 298 298 298 298 299 299 298 297 297 297 298 298 298 298 299 298 298 297 294 292 288 287 285
292 283 286 281 287 288 285 288 289 290 291 291 291 289 296 297 298 298 298 298 298 299 300 300 299 299 299 299 298 298 297 296 297 298 298 297 293 292 291 290 289 287 285 284
286 285 284 277 283 282 280 284 287 289 291 291 287 292 296 296 297 297 297 299 299 301 301 300 300 300 299 299 299 297 296 295 293 292 290 288 289 289 288 288 286 285 284 282
283 283 283 275 276 271 283 290 291 290 292 293 294 295 296 296 297 299 300 299 299 300 299 298 296 296 296 295 295 294 291 290 289 289 287 285 287 287 285 284 284 283 282 282
289 283 276 269 267 276 281 284 283 284 284 291 291 292 292 293 293 295 296 296 295 295 295 294 293 293 292 292 289 286 286 287 287 288 287 285 285 284 284 283 282 281 281 280
285 286 280 270 269 264 280 286 291 290 281 287 288 289 289 290 285 290 292 293 293 293 292 290 290 289 287 285 284 284 284 284 285 286 286 286 283 282 282 282 281 280 280 283
279 280 277 276 275 277 284 285 289 277 279 283 285 288 289 287 291 293 293 292 291 290 289 288 286 285 283 283 283 283 282 281 283 282 282 281 281 280 280 279 279 280 282 281
276 274 274 279 276 272 288 284 283 284 285 286 286 289 288 291 292 291 291 290 289 287 286 284 282 282 281 282 281 281 280 281 279 279 279 278 277 279 280 282 282 281 281 280
274 277 273 276 275 287 288 285 288 290 288 287 289 289 291 289 289 289 289 287 285 285 284 282 279 279 280 279 278 279 280 280 279 279 276 275 276 277 278 278 280 280 280 279
279 282 278 277 281 283 285 286 286 290 290 290 289 288 289 288 288 286 286 285 284 280 279 278 277 276 275 276 279 277 278 278 279 279 279 277 277 277 278 279 278 278 279 279
278 279 276 277 282 282 284 285 287 289 288 287 288 288 289 288 286 284 284 282 281 279 278 276 275 276 276 276 277 279 278 278 278 279 280 281 281 281 280 280 278 277 277 279
280 279 277 276 282 283 283 286 286 287 287 287 286 285 285 285 284 282 281 281 279 278 276 275 274 273 273 273 272 273 278 276 275 278 280 281 281 279 276 277 281 285 284 285

GFSCGP_sfc_thetae_075.txt.gz
Theta_e
295 290 287 290 290 290 289 288 286 288 294 292 290 290 293 295 294 292 293 294 296 297 301 301 302 304 307 314 318 324 325 326 328 325 325 326 326 325 321 326 327 330 331 329
291 287 293 294 293 292 290 287 286 289 293 290 290 290 292 293 295 297 296 293 294 295 297 300 300 300 303 311 316 321 324 324 327 328 327 326 324 318 325 320 322 327 330 329
289 292 296 295 291 291 289 287 286 288 289 289 287 285 289 293 294 296 295 296 296 297 297 297 298 299 302 305 312 317 322 323 325 325 319 314 314 311 313 315 319 319 324 328
291 295 293 292 291 292 287 291 291 289 286 282 288 279 286 291 293 292 295 295 296 296 297 298 299 298 299 305 310 315 319 321 322 320 319 319 319 317 320 321 316 311 315 321
290 291 290 290 291 292 289 292 290 289 285 283 283 280 285 287 288 291 293 293 294 296 296 297 299 299 300 301 303 308 312 315 318 319 318 317 317 317 305 305 306 306 306 314
290 294 293 292 293 293 294 291 290 287 284 278 283 283 281 285 289 289 291 293 296 297 299 298 300 300 300 299 301 303 306 308 310 316 313 312 313 305 303 302 303 302 304 308
289 290 292 294 290 293 291 286 278 277 276 276 282 280 284 289 290 291 292 292 292 299 297 297 298 299 297 299 300 301 302 304 304 305 307 306 306 305 305 304 305 302 303 305
284 282 290 293 291 288 288 286 279 273 276 278 282 280 286 291 293 293 293 293 292 293 296 296 297 298 298 297 300 301 301 301 302 303 304 306 306 307 307 305 305 305 305 304
283 284 290 291 292 292 287 284 288 282 272 276 280 284 290 292 292 293 293 294 295 296 297 298 298 297 298 297 298 300 300 300 301 301 302 303 305 305 305 304 304 305 304 303
288 283 288 289 292 291 289 291 283 281 272 271 278 279 283 288 290 293 293 294 294 295 295 297 297 297 297 297 298 298 299 299 300 300 301 302 303 304 304 303 303 303 303 302
290 287 284 287 286 286 286 285 286 286 282 275 274 279 287 289 293 293 293 294 295 296 296 296 297 297 297 297 298 298 298 299 299 299 300 300 301 302 302 303 302 302 300 300
291 288 280 284 288 289 287 286 287 280 278 280 279 283 290 292 292 294 294 296 297 297 296 295 296 296 296 296 296 297 298 298 299 299 299 299 300 300 300 301 300 299 299 296
292 285 274 281 285 287 285 287 288 288 283 281 276 283 292 292 291 292 292 293 295 296 296 296 296 295 295 295 296 296 297 298 298 298 298 298 298 299 300 300 298 297 296 294
296 288 282 278 284 288 284 287 290 288 278 281 283 285 291 291 291 293 293 296 297 295 295 295 296 296 296 296 296 296 296 297 297 298 298 297 298 299 299 298 297 296 294 291
293 285 286 287 288 289 289 288 288 288 288 285 286 286 290 293 293 294 295 295 296 296 297 297 297 297 297 296 296 296 296 296 296 297 296 298 297 296 296 294 292 291 289 288
291 280 286 282 287 287 284 285 286 289 289 289 289 289 296 297 298 294 296 296 296 298 298 298 298 297 296 297 296 296 295 295 294 295 295 296 293 292 291 291 290 289 287 286
287 284 281 270 281 282 275 282 285 286 289 289 286 290 294 293 293 293 294 295 294 294 294 295 294 295 295 294 294 294 293 292 290 289 288 288 288 288 289 288 288 287 285 284
284 284 282 267 270 263 279 285 286 287 288 290 290 291 290 290 291 292 293 292 292 293 293 293 293 292 292 291 290 288 286 286 286 286 285 285 285 286 285 284 285 283 283 282
286 280 269 267 260 273 278 280 281 281 281 287 286 288 288 290 289 290 292 291 292 293 292 291 290 289 289 288 285 283 284 284 285 286 285 285 284 284 283 283 282 280 279 278
285 285 277 262 265 264 277 282 288 288 277 286 287 287 287 288 282 286 292 291 292 291 290 290 287 287 285 283 282 282 283 282 283 284 284 285 283 281 280 281 279 278 279 280
276 279 277 275 273 272 281 282 287 272 276 280 284 286 285 284 287 291 291 292 291 290 289 289 287 285 284 283 281 281 281 281 282 281 281 280 280 279 279 278 282 283 283 282
273 271 271 269 272 270 284 283 281 283 283 284 284 285 285 287 288 289 290 289 288 288 287 285 282 282 283 281 280 279 280 281 279 278 278 277 274 278 280 284 282 282 281 280
271 277 273 276 276 283 285 284 287 287 285 284 284 286 288 287 287 288 288 286 285 284 284 282 279 279 280 278 279 277 278 278 277 273 272 272 274 275 276 282 281 280 280 279
278 280 276 275 279 279 281 284 285 287 286 286 286 286 286 287 287 286 285 285 284 281 279 278 277 275 275 276 276 278 277 277 272 273 275 274 273 273 275 276 277 278 279 278
276 278 272 273 280 280 282 283 285 285 286 287 286 286 287 286 286 285 284 281 280 279 277 275 277 275 273 273 273 276 279 273 273 273 277 279 276 274 275 276 273 274 274 277
278 277 276 273 280 280 281 284 284 283 284 285 284 284 284 285 285 282 280 279 278 277 275 273 274 271 270 270 272 271 276 278 272 279 279 279 279 278 278 279 280 284 284 284

GFSCGP_sfc_thetae_078.txt.gz
Theta_e
293 289 286 289 289 287 287 285 284 287 292 290 289 289 292 294 293 292 292 292 293 295 300 298 298 300 305 311 314 321 326 329 329 328 326 326 326 330 328 331 332 332 329 326
289 285 291 291 291 289 287 285 284 287 291 289 288 289 291 292 293 293 293 292 292 293 295 298 298 297 299 306 313 319 323 327 328 329 329 329 328 326 328 328 327 331 331 328
287 289 293 292 290 289 287 286 285 286 287 287 286 284 286 290 292 294 294 294 293 294 294 295 295 296 296 299 308 315 322 325 328 329 326 315 314 312 315 316 323 326 329 329
290 293 291 290 289 290 285 290 289 287 284 280 285 278 284 289 291 291 292 289 292 293 294 295 296 295 295 299 302 311 318 322 326 327 324 323 323 321 322 324 320 318 321 328
289 290 290 288 290 291 288 291 288 287 284 282 282 280 283 286 288 290 291 291 294 295 293 295 296 298 297 297 299 305 311 317 321 323 323 322 322 322 312 309 311 309 312 316
290 292 292 291 291 291 293 290 288 285 282 277 281 281 280 284 286 288 291 293 293 295 295 296 298 298 297 298 297 302 309 312 315 319 318 318 319 312 305 304 306 306 307 313
287 288 291 292 289 291 289 284 277 277 275 276 280 279 282 288 289 289 291 291 292 292 294 295 296 296 296 296 298 298 302 306 307 312 312 311 314 309 308 306 306 302 303 305
283 281 289 292 290 288 286 284 278 272 274 277 281 279 285 289 290 290 292 291 293 295 295 296 296 296 296 297 298 300 299 300 302 304 306 306 308 309 309 306 304 305 306 307
283 283 289 290 290 292 287 283 286 280 270 275 279 283 289 290 290 293 293 294 293 295 295 296 297 297 297 297 297 298 299 299 299 300 301 302 303 304 305 303 304 305 304 304
287 282 287 288 290 289 287 290 282 281 272 270 277 278 282 286 288 292 293 293 294 295 296 296 296 297 297 297 297 297 298 298 299 299 299 300 302 303 304 303 303 302 303 301
289 286 283 287 286 285 286 284 285 284 280 273 272 278 286 288 291 291 292 294 294 294 294 295 296 296 295 295 296 296 297 298 298 298 298 298 299 300 301 303 303 303 300 300
290 287 280 283 286 288 288 286 286 280 277 278 279 281 289 291 291 292 292 293 293 294 295 294 294 295 295 295 295 296 296 297 298 298 298 298 298 299 299 300 300 299 299 297
292 286 278 282 285 287 285 286 287 286 282 277 276 280 289 290 289 290 290 291 293 293 294 294 295 295 295 295 295 295 295 296 297 297 297 297 297 297 298 298 298 297 297 295
295 286 282 279 282 286 284 285 288 286 277 279 282 284 289 290 291 293 293 294 294 294 294 294 295 295 297 295 295 294 295 295 296 296 296 296 297 297 296 296 296 295 295 294
292 281 284 285 287 288 288 287 287 285 285 282 283 285 289 292 293 293 293 293 294 294 294 294 294 294 294 295 295 295 295 294 294 294 295 296 296 295 295 293 292 291 291 291
290 282 285 281 286 287 284 286 287 287 287 288 287 287 293 294 293 292 293 293 292 292 293 294 293 293 293 293 292 293 292 291 290 291 290 291 290 290 290 289 289 289 289 288
284 284 280 274 281 282 276 282 284 285 288 288 284 289 290 289 290 290 290 291 291 292 293 292 292 291 291 290 290 289 287 287 286 285 286 286 286 287 288 288 288 287 287 286
283 279 274 269 272 270 279 282 284 286 287 290 289 288 288 288 289 290 292 290 291 291 291 291 290 290 289 289 287 285 284 284 284 285 284 284 285 285 285 284 284 285 285 283
285 280 272 270 263 273 277 279 279 279 280 287 286 286 286 287 285 286 292 291 290 291 291 290 289 288 287 286 284 282 283 283 283 284 284 284 284 283 283 282 282 280 279 278
285 283 276 261 261 261 274 280 283 285 275 285 285 285 283 284 278 280 289 288 290 291 289 288 287 286 284 284 282 281 282 282 284 283 283 283 283 281 281 282 280 277 278 283
279 280 277 265 262 269 278 282 285 271 275 279 283 284 283 282 284 286 287 288 288 288 288 286 284 283 283 282 281 280 280 281 282 281 281 280 280 280 280 280 282 283 283 282
274 272 272 275 273 269 282 282 278 281 281 283 282 283 283 285 286 286 288 285 285 286 285 284 282 282 281 280 279 279 279 280 279 280 279 279 277 279 279 280 283 282 282 281
273 276 272 275 275 282 283 284 286 285 283 283 282 284 285 284 285 286 287 286 284 284 284 282 278 278 279 275 275 276 278 278 278 276 276 274 275 276 275 282 281 280 280 279
278 279 276 276 280 280 282 282 283 287 284 285 284 285 284 285 286 285 285 285 283 279 277 276 274 275 274 272 274 273 278 279 277 274 278 278 273 274 273 275 279 280 279 278
277 278 273 273 279 280 281 282 284 284 284 284 284 286 286 285 285 284 283 280 279 277 276 274 273 274 273 272 272 270 274 277 278 277 278 280 280 276 274 275 273 275 276 277
278 277 276 273 280 280 280 282 282 281 281 282 281 282 283 284 284 283 280 278 277 276 274 272 272 271 271 269 270 269 268 274 276 278 279 279 279 278 278 278 278 283 283 284

GFSCGP_sfc_thetae_081.txt.gz
Theta_e
292 289 285 288 287 284 285 284 284 285 291 288 288 288 291 293 291 291 291 292 292 293 298 296 297 298 306 311 314 319 323 327 328 328 326 326 327 329 331 332 331 329 326 323
289 285 290 291 290 288 286 284 284 286 290 289 286 288 290 291 292 292 292 292 291 291 293 294 295 295 296 304 311 315 320 325 327 329 329 329 328 327 329 331 331 331 329 326
286 287 291 290 287 287 284 284 283 285 286 286 284 283 284 288 289 292 292 291 292 292 293 293 293 293 294 295 301 311 317 321 326 328 326 316 315 314 317 322 328 329 329 328
287 290 290 288 287 288 284 289 288 286 284 279 284 277 283 286 288 289 290 289 290 292 291 293 294 294 294 294 296 303 311 318 324 326 325 324 324 323 324 325 323 325 328 328
287 290 288 287 288 290 287 289 287 285 282 281 280 279 282 284 285 288 289 291 291 293 293 294 295 296 296 297 295 296 306 314 318 324 326 323 323 325 318 314 315 314 320 326
288 291 290 291 290 290 291 287 285 283 280 276 279 279 279 282 284 286 288 290 291 292 294 295 296 296 296 296 297 298 303 309 314 319 320 321 322 316 309 308 311 309 313 319
286 287 290 291 288 290 287 284 277 276 275 275 279 278 281 286 286 287 288 290 292 293 294 295 296 296 296 296 297 298 300 303 308 311 312 313 315 314 312 309 310 305 306 308
282 281 289 291 289 287 285 284 278 271 272 275 280 278 283 287 289 291 291 291 292 293 293 294 295 295 296 296 296 297 298 299 301 305 308 308 310 309 310 307 306 308 309 310
282 282 288 289 289 291 286 282 284 279 269 274 278 281 287 288 291 291 292 293 293 294 294 294 295 295 294 295 296 296 297 298 299 299 301 303 304 305 306 305 304 306 304 304
286 281 286 288 289 289 286 289 282 279 271 269 276 277 281 285 289 290 291 292 293 293 294 295 295 295 295 295 295 296 296 297 297 298 298 299 300 301 302 302 302 301 301 301
286 285 283 286 285 285 285 284 283 284 280 273 271 277 285 287 290 290 291 291 292 294 294 293 294 295 295 295 295 295 296 296 297 297 297 297 298 298 299 299 300 300 299 299
289 286 280 283 286 287 286 285 285 279 277 277 278 279 287 290 290 291 291 291 292 292 293 293 294 294 294 294 295 294 294 295 296 297 297 297 297 297 297 298 298 298 299 297
291 285 277 281 284 286 284 285 286 285 282 277 276 279 289 288 288 289 289 290 291 292 293 294 294 294 294 293 293 293 294 294 294 294 295 296 296 296 296 296 296 296 296 295
294 287 283 280 282 286 284 286 287 285 280 280 280 282 286 287 290 291 291 291 292 292 292 292 292 293 293 293 292 291 293 292 292 292 292 293 294 295 295 295 295 294 294 294
291 284 286 287 288 288 286 286 287 285 284 281 283 284 287 291 291 290 291 292 292 292 292 292 291 291 291 291 291 291 291 290 289 289 289 290 291 291 291 290 289 289 289 290
290 284 286 283 286 286 284 286 286 286 286 286 286 286 293 291 291 290 291 291 290 291 292 292 291 291 290 289 289 289 288 287 286 286 285 286 286 286 286 286 286 287 287 287
285 282 279 279 281 283 278 281 284 284 286 286 282 287 290 288 289 289 290 289 289 290 291 291 290 290 289 288 288 287 285 285 284 283 284 284 284 284 285 285 285 286 286 286
282 282 279 274 272 272 280 280 281 284 287 289 288 287 288 288 288 289 290 289 289 290 290 290 289 288 288 287 286 284 283 283 283 283 282 282 283 283 283 283 283 284 283 283
287 282 271 272 262 274 278 279 278 279 280 286 286 286 285 285 283 284 290 290 288 288 290 289 288 287 286 285 284 282 282 282 282 283 282 282 282 281 281 282 282 282 279 279
284 284 278 262 265 265 274 280 281 283 274 282 286 285 284 282 279 280 290 286 287 288 288 287 286 285 283 283 281 281 281 280 280 281 281 281 281 280 280 283 282 283 280 283
280 279 276 268 264 269 277 281 283 271 275 279 284 284 283 280 282 283 284 286 288 287 286 285 283 283 283 282 280 279 279 279 280 279 279 279 279 278 280 280 282 283 283 283
278 277 275 273 272 269 280 280 278 280 281 283 282 283 282 283 284 284 284 286 287 285 284 283 282 282 282 280 277 277 277 279 278 277 276 277 276 277 279 276 281 283 282 282
273 277 274 277 277 281 282 282 284 284 283 282 283 282 282 283 283 284 285 285 285 285 284 283 278 278 279 275 274 275 276 277 279 278 276 277 280 275 274 274 280 281 281 280
277 279 276 276 279 280 283 283 283 285 284 284 283 283 283 283 284 285 285 284 284 279 277 275 274 275 276 272 273 272 273 273 276 278 278 278 280 281 279 274 274 277 279 279
277 279 274 274 279 280 281 282 283 282 282 282 283 283 283 283 284 284 283 281 280 277 275 273 272 273 274 273 271 268 271 268 272 276 278 280 281 280 280 279 274 272 273 278
278 277 277 274 280 280 281 282 282 281 281 281 281 281 282 283 283 282 280 278 277 276 273 272 274 274 274 269 268 267 264 264 268 273 276 279 280 280 279 278 278 284 285 285

GFSCGP_sfc_thetae_084.txt.gz
Theta_e
291 288 285 288 286 284 284 284 282 284 289 287 286 287 290 292 290 291 291 291 291 292 295 294 295 295 303 309 313 318 322 326 328 328 327 327 328 329 330 330 327 323 323 321
288 285 289 290 288 287 284 283 283 285 289 288 285 287 289 290 291 291 291 291 291 290 292 293 293 292 294 300 309 314 320 323 326 328 329 328 328 328 329 330 330 327 324 322
286 287 291 289 286 286 284 283 283 283 284 284 283 283 284 287 287 289 290 289 289 289 289 291 292 292 291 292 295 307 313 319 324 327 324 315 316 315 322 327 328 328 327 325
286 289 289 287 285 286 282 288 286 285 283 280 283 276 282 285 287 287 288 289 290 291 292 293 294 294 294 295 293 295 305 312 317 322 322 322 324 322 324 326 328 328 328 328
286 289 287 286 287 289 285 288 286 284 281 281 279 278 282 282 283 287 288 288 290 292 292 294 294 294 294 295 296 296 297 305 313 318 323 322 322 323 319 316 318 324 325 327
286 290 289 288 289 288 289 286 284 281 279 276 278 278 279 281 284 286 287 290 291 292 293 294 294 295 295 295 296 297 301 304 309 314 317 318 320 317 311 310 312 316 320 323
286 286 289 290 288 289 285 283 277 275 274 274 277 277 280 283 285 285 288 290 291 291 293 293 294 294 295 295 295 296 297 299 304 309 311 313 314 313 312 310 310 307 311 311
282 280 288 290 288 286 284 283 278 271 271 275 279 277 281 285 289 289 291 290 291 292 292 293 294 294 294 294 295 295 296 296 298 301 305 307 309 310 310 309 307 308 308 312
282 282 287 288 289 291 285 281 283 278 268 273 277 280 285 287 288 289 290 291 291 292 292 293 293 293 293 293 294 294 295 296 296 297 297 299 301 303 304 305 304 305 304 305
286 281 286 287 289 288 286 287 281 278 270 269 275 277 279 285 287 288 289 290 292 292 293 293 293 293 294 293 293 294 294 294 295 296 296 297 297 298 298 299 300 300 301 301
286 285 283 286 285 284 284 283 282 282 279 273 270 277 283 287 288 288 289 291 291 291 291 292 293 293 294 294 294 294 294 294 294 295 295 295 296 296 296 296 297 297 298 298
288 285 280 282 285 286 284 284 284 279 276 276 277 278 287 290 289 290 290 290 290 290 292 292 293 293 293 293 293 293 293 293 293 293 294 294 295 295 295 296 296 296 296 296
289 283 275 280 283 285 283 284 284 283 282 276 276 278 287 287 288 289 289 289 291 292 292 292 292 291 291 291 291 291 292 291 290 290 291 292 292 292 292 293 294 294 294 294
294 285 282 279 281 284 283 285 285 284 279 280 280 281 285 286 288 289 290 291 291 291 291 291 290 290 290 290 290 289 289 289 288 288 288 288 289 289 289 289 290 290 290 290
292 285 286 285 286 286 285 285 285 284 285 282 283 283 287 288 290 290 291 291 290 291 291 290 290 289 289 288 288 288 287 286 286 286 286 286 286 286 286 286 286 286 286 287
290 285 285 283 287 285 284 286 286 285 285 285 285 285 292 292 292 290 291 290 289 290 290 290 290 289 288 288 287 287 286 285 284 284 284 284 283 284 284 284 284 284 284 285
288 285 283 280 282 284 281 284 284 284 285 286 284 287 289 289 290 290 290 289 289 289 290 290 289 288 287 286 286 285 284 283 282 282 282 282 282 282 283 283 283 284 284 284
285 283 282 274 279 275 281 280 283 285 286 288 287 287 288 289 289 289 290 288 288 288 289 289 288 288 287 285 284 283 282 282 282 281 281 281 281 281 281 281 281 282 282 282
287 283 274 276 274 276 278 280 278 280 281 287 286 287 286 286 284 283 288 288 287 288 289 288 287 287 285 284 283 282 282 282 281 282 281 281 280 280 279 279 282 283 283 279
285 284 281 269 271 267 277 277 280 282 275 280 286 285 282 282 279 281 287 288 286 287 288 287 285 285 283 283 282 281 281 279 280 280 280 280 279 277 278 279 281 281 279 282
279 279 277 267 268 270 278 280 281 272 274 277 284 283 281 280 282 282 285 284 285 286 286 284 283 283 283 282 280 279 279 278 279 278 278 277 277 276 276 277 277 278 278 280
280 278 276 272 270 272 280 279 278 280 281 282 282 282 283 283 283 283 283 285 286 286 285 285 283 282 282 280 277 276 276 278 275 277 279 279 274 279 277 272 275 278 282 281
277 280 277 279 278 281 280 282 283 283 281 282 282 282 282 282 281 282 283 284 285 285 285 284 279 278 278 274 273 274 275 274 274 272 275 279 279 280 282 280 278 276 275 280
277 279 278 279 280 281 282 283 283 283 282 283 283 283 282 280 281 282 283 283 283 279 278 275 273 274 273 271 273 271 272 271 265 268 272 277 279 280 281 282 280 278 272 273
276 278 274 274 278 280 281 282 283 282 282 282 283 283 281 281 282 282 281 278 278 276 275 273 272 273 274 272 270 268 269 265 266 267 271 274 277 280 281 281 280 279 275 277
277 277 276 274 280 281 282 282 282 281 281 281 281 280 281 281 281 280 278 276 275 274 273 273 274 274 273 268 266 265 262 261 261 266 269 271 272 276 279 279 278 282 284 284

GFSCGP_sfc_thetae_087.txt.gz
Theta_e
292 287 285 288 286 285 285 283 283 285 290 289 287 288 290 292 292 292 293 292 293 293 295 295 296 297 299 311 317 322 325 329 330 329 328 328 327 329 329 329 327 325 324 322
289 284 288 289 287 287 285 283 283 286 289 289 287 288 290 291 291 292 291 291 292 291 292 293 295 295 297 300 309 315 321 325 329 330 331 330 329 329 330 330 329 326 325 323
286 287 290 289 286 286 283 284 283 284 285 285 283 284 285 288 289 290 289 290 292 292 293 294 296 296 297 296 296 307 315 321 326 329 328 322 323 322 328 328 328 328 325 324
286 288 288 286 285 286 282 287 286 285 283 280 283 278 284 285 288 288 289 289 291 293 295 295 295 296 297 298 299 297 302 312 319 326 326 326 326 324 327 328 329 328 327 325
286 287 286 286 286 287 285 287 286 284 282 281 281 280 283 283 285 287 289 291 293 293 294 295 295 296 297 298 299 302 303 304 310 319 325 323 325 326 324 323 324 327 327 328
287 290 289 288 288 288 288 286 284 282 280 276 279 279 280 282 285 286 290 292 293 293 294 295 296 296 297 298 298 300 302 303 311 315 319 321 322 321 318 318 318 321 325 325
285 286 288 290 287 289 286 283 277 276 275 275 278 278 281 284 286 289 291 292 292 293 293 294 294 295 295 296 297 298 299 299 301 308 313 316 318 318 318 317 316 314 313 314
281 280 287 289 288 286 284 283 279 273 272 275 279 278 282 286 288 290 291 291 292 292 293 293 294 294 294 294 295 296 297 297 298 300 301 305 308 311 312 312 312 313 313 315
281 281 287 288 288 290 285 282 283 277 268 273 278 281 285 288 288 289 291 291 291 292 292 293 294 294 294 294 294 295 296 296 297 297 298 299 300 301 302 303 305 307 308 308
287 281 286 287 289 288 285 286 281 278 270 269 275 277 280 285 287 289 290 291 291 291 293 293 294 294 294 294 294 294 294 294 294 295 297 297 298 299 299 300 300 300 301 302
286 285 283 286 285 284 284 283 282 282 279 272 270 277 282 288 289 288 290 290 291 291 292 293 293 293 293 293 293 293 292 292 292 293 294 295 295 296 297 297 297 298 298 299
287 285 281 283 286 286 285 284 284 279 275 275 276 278 286 290 289 290 290 290 291 292 292 292 292 292 292 292 292 291 291 291 290 291 292 292 292 293 293 293 294 295 295 296
288 283 274 280 283 284 282 283 284 283 282 276 276 278 286 288 288 289 289 290 292 291 291 292 291 291 291 291 290 290 290 289 289 289 290 290 290 290 289 290 290 291 291 292
293 284 281 279 280 284 282 283 284 284 280 279 280 281 284 285 287 288 290 291 291 291 291 291 290 290 290 290 289 289 289 288 287 287 288 287 288 288 288 288 288 288 288 289
290 281 283 283 284 284 284 284 283 283 285 282 284 283 287 287 289 290 291 291 290 291 291 291 290 290 289 289 288 288 288 287 286 286 286 286 286 286 286 286 286 286 286 287
290 282 284 282 286 284 283 285 285 286 284 283 282 283 289 290 290 290 291 290 289 290 291 291 290 289 288 288 287 287 286 285 285 284 284 284 284 284 284 284 284 284 285 285
287 285 281 279 283 283 281 284 285 285 286 287 283 287 289 289 291 291 290 290 289 289 290 290 289 288 288 287 286 285 284 284 284 284 283 282 282 282 283 282 282 283 283 284
285 284 283 277 282 277 283 279 283 286 287 288 287 288 291 291 292 292 291 289 288 289 290 290 289 288 287 286 285 284 284 283 283 282 281 281 281 281 281 280 280 282 283 282
289 284 276 277 272 277 279 280 282 285 285 288 287 288 288 287 287 286 290 288 288 289 290 289 288 287 286 285 284 283 283 282 282 282 281 281 280 279 279 278 279 280 281 282
286 287 283 274 273 270 279 277 280 282 277 282 288 288 285 284 282 283 287 288 288 289 289 288 287 286 285 284 283 282 281 279 280 280 280 279 279 277 277 278 278 279 279 280
281 281 280 275 275 275 279 280 280 274 278 278 285 285 283 282 284 284 287 285 287 288 288 287 285 285 284 283 281 280 279 278 278 277 278 279 280 278 278 279 279 278 277 280
278 278 276 272 273 273 280 280 278 281 282 282 282 282 282 282 283 284 285 285 286 287 287 285 284 283 281 280 277 276 277 278 275 274 274 275 278 281 281 281 281 281 279 279
279 281 276 278 279 281 280 281 283 284 283 282 282 282 282 282 281 282 283 283 284 283 285 282 279 277 278 274 274 274 276 274 273 269 269 271 274 277 279 282 282 282 282 280
278 279 280 281 279 279 281 282 283 284 284 283 282 282 282 281 282 282 282 283 283 278 277 274 273 273 273 272 273 272 272 270 263 266 268 271 272 274 277 280 281 281 281 279
278 279 275 275 279 281 282 283 283 282 283 283 283 283 281 282 282 282 280 278 277 275 274 272 272 272 273 271 270 268 269 265 265 266 268 270 272 272 274 277 280 281 281 281
277 277 277 276 280 281 283 284 283 282 281 282 281 280 281 282 282 279 277 277 275 273 272 271 270 270 270 268 268 266 262 260 260 265 268 268 269 270 272 276 279 282 282 284

GFSCGP_sfc_thetae_090.txt.gz
Theta_e
297 295 293 295 296 294 294 291 291 292 295 294 294 295 298 300 300 301 303 302 302 302 302 302 303 304 306 313 325 330 332 335 334 331 330 330 329 331 331 332 331 332 332 330
295 292 296 295 293 293 291 292 290 292 294 294 293 295 298 298 297 297 298 299 299 301 302 303 304 304 302 305 311 319 326 331 333 332 331 331 331 331 332 332 330 330 333 331
292 293 294 293 291 291 291 291 290 291 291 292 291 292 293 294 295 296 296 297 299 300 301 303 304 306 308 305 303 310 318 325 330 333 332 330 327 327 329 330 329 329 329 329
293 292 292 292 290 293 288 293 292 290 291 288 290 287 292 292 294 295 298 300 301 302 302 303 304 305 306 308 309 303 308 317 323 328 329 326 325 324 327 328 330 330 328 327
291 290 290 291 292 293 290 293 292 291 291 290 289 288 292 290 292 295 298 299 301 302 303 302 303 304 305 307 310 314 312 309 315 323 326 325 325 326 327 328 329 330 330 328
292 294 294 293 291 293 292 292 290 290 289 284 288 288 289 290 293 295 297 299 300 300 301 302 303 304 304 307 308 309 310 315 319 319 322 324 324 325 325 326 327 328 329 329
291 291 294 294 291 292 292 291 284 283 283 282 284 284 291 291 293 298 297 298 299 301 302 302 302 302 303 303 305 305 306 306 310 317 316 317 319 320 320 319 319 319 319 319
286 284 291 294 293 290 291 291 286 280 279 282 283 283 289 292 294 298 299 299 299 300 301 301 301 302 302 302 303 304 304 303 305 307 307 309 311 315 316 316 316 318 318 319
286 285 291 292 292 294 289 287 290 282 277 283 286 288 290 292 293 296 296 298 298 300 301 301 301 301 301 301 301 302 302 302 302 304 305 305 306 306 306 307 308 308 309 308
290 284 289 290 293 292 291 292 286 286 280 280 282 284 289 289 292 295 295 297 297 299 300 300 300 300 300 300 300 300 299 299 300 301 301 301 301 302 303 303 302 303 304 304
291 290 286 290 289 289 288 287 287 289 286 284 280 284 293 293 295 295 297 298 298 299 299 299 298 298 298 299 299 298 298 298 298 298 299 299 298 299 299 299 299 298 300 299
291 289 285 287 290 290 290 289 290 286 282 283 283 287 291 295 297 297 296 296 298 299 298 298 298 298 298 297 297 297 296 296 295 296 296 296 296 296 295 295 295 295 295 296
291 288 282 283 288 288 287 288 290 288 287 283 283 286 291 295 295 297 296 296 297 297 297 298 298 298 297 297 296 295 294 294 294 295 295 295 294 294 293 293 293 294 293 294
294 288 287 283 286 290 286 287 287 289 285 285 285 289 289 292 294 295 296 297 298 298 297 297 296 296 296 295 295 294 293 293 293 293 293 293 292 291 292 292 292 292 292 293
292 287 287 289 289 289 289 288 287 287 289 286 288 287 290 293 295 296 297 298 296 295 296 296 295 295 295 294 294 293 293 292 291 292 291 290 290 290 290 290 289 290 290 290
292 286 287 285 288 288 287 289 289 289 290 290 289 288 295 297 297 295 296 296 295 296 296 295 294 293 293 292 292 291 291 290 290 290 289 288 288 287 288 287 287 287 287 288
290 287 286 283 285 287 284 287 288 289 291 291 287 291 293 293 293 295 296 296 295 296 295 294 294 293 293 292 291 291 290 289 289 288 287 286 286 286 286 285 285 286 286 287
286 286 286 281 285 278 286 285 290 290 291 292 292 293 293 293 296 297 298 296 295 294 294 294 293 293 292 291 290 289 288 288 288 287 286 285 285 284 284 284 284 285 285 285
291 287 280 281 282 285 285 283 287 288 289 293 292 293 293 293 294 292 295 296 295 294 295 294 294 293 291 290 289 288 287 287 286 285 284 284 283 282 282 281 283 283 283 284
288 291 286 279 280 279 286 284 286 289 285 292 293 292 290 292 288 293 292 291 292 294 293 292 292 290 290 288 287 286 285 285 284 283 282 282 283 282 281 282 281 282 282 282
282 283 283 282 281 283 287 284 285 283 287 284 292 293 290 292 292 292 291 290 292 293 292 291 290 289 287 285 284 284 283 283 282 281 281 281 281 281 282 282 284 283 283 283
283 282 281 280 280 278 285 283 283 289 285 287 289 290 290 287 288 290 289 289 291 291 290 289 288 286 284 283 283 283 283 282 280 278 278 278 277 279 281 282 283 284 284 284
282 287 284 285 285 284 286 286 287 289 288 286 287 287 288 287 288 288 288 289 289 290 288 286 286 283 282 281 281 282 282 279 277 274 274 275 276 277 279 279 281 282 283 283
282 283 285 285 286 285 285 286 287 288 288 287 288 287 287 286 286 285 286 286 285 284 283 281 281 281 281 280 279 279 278 275 272 272 273 275 275 277 277 279 280 281 281 282
284 283 282 283 281 284 285 287 288 286 286 286 286 286 286 286 285 285 284 284 283 281 280 280 280 279 278 278 278 277 274 271 271 271 272 274 275 275 275 277 278 279 281 283
281 281 283 284 285 287 286 287 286 285 285 286 285 283 284 285 285 284 283 282 280 278 277 276 275 274 274 273 273 273 268 266 266 269 272 273 271 273 274 275 277 280 282 283

GFSCGP_sfc_thetae_093.txt.gz
Theta_e
301 296 293 296 298 299 298 295 293 296 297 296 296 297 299 302 302 302 304 305 305 305 307 306 307 308 309 315 326 330 332 335 335 332 331 331 330 333 333 334 334 333 332 334
296 293 298 299 298 296 296 294 293 294 296 296 296 296 299 301 301 301 302 302 303 303 305 305 306 306 306 308 313 323 329 332 335 332 332 332 331 332 333 333 333 332 331 332
293 295 297 295 293 293 294 294 293 293 294 295 294 293 297 297 298 299 299 300 301 303 303 305 306 309 309 307 308 311 319 327 332 334 331 331 329 330 330 330 330 330 330 331
295 294 294 294 293 295 290 295 295 293 292 288 294 288 294 296 296 298 300 302 303 304 305 306 307 308 309 311 310 307 313 319 325 331 331 329 327 324 327 329 331 330 330 330
291 292 292 292 293 296 292 295 294 294 292 291 291 288 293 294 294 297 300 302 303 305 305 305 305 307 308 312 315 312 308 314 320 324 327 327 325 325 326 327 327 328 329 328
293 295 296 295 294 296 295 294 293 294 291 284 290 289 291 292 294 297 300 301 302 303 304 304 305 307 308 310 312 315 318 316 315 320 324 324 322 322 322 323 325 327 326 326
292 291 294 295 291 294 295 291 284 283 283 282 287 287 291 293 296 299 299 300 302 303 304 304 304 305 306 307 308 309 311 314 319 318 319 320 321 322 321 320 321 320 321 322
286 284 292 295 294 291 292 291 286 281 281 284 284 283 290 295 297 301 301 301 302 303 304 304 304 304 305 305 306 307 307 307 309 310 311 313 317 317 315 313 313 313 313 313
287 287 293 294 295 295 291 288 293 284 281 285 287 290 293 294 296 298 299 299 301 302 303 303 304 304 303 303 304 304 304 305 305 306 306 306 307 307 307 307 307 307 307 306
292 285 291 291 294 294 292 294 286 287 281 280 284 287 289 289 292 296 297 298 300 302 302 302 302 302 302 302 302 302 302 302 302 303 303 302 302 303 303 302 301 301 302 302
293 291 286 291 289 289 289 288 289 290 288 286 283 285 294 294 295 296 298 300 300 301 301 301 301 301 301 302 302 301 301 300 300 300 300 300 299 300 299 299 298 298 299 298
293 291 285 287 291 292 293 291 290 285 283 285 285 287 294 297 297 299 299 300 301 302 301 300 300 300 301 300 300 299 299 298 298 299 299 298 298 298 297 296 296 296 296 297
292 289 283 284 289 290 289 291 293 292 291 286 285 287 293 295 298 299 299 300 300 300 300 300 300 299 299 298 297 296 296 296 296 297 296 295 295 295 294 294 295 295 295 295
295 291 287 283 287 290 287 289 290 290 286 286 287 289 290 295 296 298 299 299 299 299 299 299 299 299 298 297 296 295 295 295 295 295 294 293 293 293 293 293 293 293 293 293
293 287 289 290 292 291 291 289 290 288 289 286 289 289 293 294 297 298 300 299 299 298 298 298 298 297 297 296 295 295 294 293 294 293 293 292 292 291 291 291 290 290 290 290
293 288 289 287 290 289 288 290 290 289 290 290 290 290 297 298 299 298 298 298 298 298 298 298 298 296 295 295 294 293 292 292 293 291 290 290 289 289 289 288 288 288 288 288
291 288 286 285 287 288 284 287 290 290 292 292 288 292 296 295 297 298 297 298 298 298 298 297 296 295 294 294 293 292 292 291 290 290 288 287 287 287 287 286 286 286 286 287
287 287 287 284 285 278 288 290 293 292 292 294 294 295 296 297 298 300 301 300 299 299 298 296 296 295 294 293 292 291 291 290 289 288 287 286 286 285 285 284 284 285 285 285
293 290 285 283 282 286 290 286 289 289 289 294 294 295 296 298 298 298 301 301 300 299 297 296 296 295 293 291 290 289 288 288 287 286 286 285 284 283 283 281 283 284 284 284
288 291 287 284 282 279 288 289 293 294 284 295 295 294 293 294 289 294 298 298 296 296 296 295 294 292 290 289 289 287 286 286 285 284 283 283 283 282 282 283 283 284 284 284
284 284 283 283 283 286 287 286 290 284 288 288 295 295 293 291 295 298 295 294 295 295 294 293 292 290 289 286 286 285 285 284 282 282 282 281 281 280 281 282 283 283 283 284
283 283 283 284 282 281 286 285 287 290 288 289 293 295 293 292 292 293 293 292 292 292 291 290 288 286 285 285 285 284 284 282 281 279 279 278 278 279 280 279 281 282 283 283
283 288 285 286 288 288 288 289 290 291 290 289 292 292 292 290 290 290 290 291 291 291 288 288 286 284 283 282 283 283 281 279 278 275 274 276 277 278 279 279 279 280 282 282
285 286 286 287 289 288 287 288 288 290 290 290 291 290 291 290 288 288 288 288 287 286 284 283 283 282 280 280 280 279 278 276 271 273 274 275 276 277 278 279 279 280 280 281
286 286 285 285 283 286 287 288 289 288 288 288 288 288 290 288 287 287 286 285 284 283 282 282 282 281 279 279 278 276 274 271 272 272 273 275 276 276 276 277 278 278 279 280
284 285 285 286 288 289 288 289 289 288 287 287 286 285 286 287 286 286 284 284 283 281 280 279 278 277 276 274 273 272 269 268 267 270 273 274 272 274 274 275 275 279 280 281

GFSCGP_sfc_thetae_096.txt.gz
Theta_e
298 293 290 292 293 294 294 291 289 291 294 292 291 291 294 296 295 295 296 297 299 300 300 300 301 300 301 305 320 325 328 331 331 330 330 330 329 331 332 332 332 331 331 331
294 289 295 297 296 294 291 290 289 291 294 291 291 291 294 295 295 296 295 296 298 297 298 301 299 298 300 301 303 314 324 328 331 331 331 330 330 330 332 332 331 331 330 330
291 293 297 294 291 291 290 290 288 289 291 291 287 287 291 293 294 294 294 294 296 296 299 300 301 302 304 301 301 304 311 322 328 330 331 329 328 328 328 328 328 329 329 329
293 294 293 292 290 292 288 292 293 291 288 282 288 279 287 289 291 293 295 294 295 297 299 301 302 301 303 306 304 302 304 312 321 329 326 327 325 323 326 328 329 328 328 328
290 290 290 290 291 294 290 293 292 291 288 284 283 281 284 290 289 291 295 296 298 299 300 300 300 303 304 307 308 300 303 310 315 319 326 326 323 323 323 324 325 326 326 326
291 293 293 292 293 293 294 291 291 289 286 279 284 282 282 285 289 292 295 297 299 298 298 299 301 303 303 304 307 311 306 308 312 316 319 319 319 320 320 319 320 321 321 322
289 289 292 293 289 291 290 287 279 277 277 277 282 282 285 288 291 294 295 296 297 298 298 298 299 300 301 301 302 305 311 312 313 313 314 314 317 317 317 316 316 316 315 313
284 282 289 292 290 288 288 287 281 274 276 278 281 279 285 289 292 296 297 296 297 298 299 298 299 299 300 301 301 301 302 302 303 305 307 309 310 307 305 304 304 303 302 302
284 285 291 292 292 292 287 284 288 281 274 277 280 284 289 291 291 295 295 296 296 297 298 298 299 299 299 298 299 299 299 299 300 300 300 299 300 300 299 298 299 298 298 299
289 282 289 289 291 291 289 290 282 283 272 272 279 279 282 286 289 293 294 294 296 297 298 298 298 298 298 297 297 298 298 297 297 297 297 297 296 296 296 296 295 295 295 296
289 288 284 288 287 286 286 285 286 286 284 277 274 278 286 289 291 293 294 296 297 296 296 296 297 297 297 297 296 296 296 296 295 295 295 295 294 295 294 293 293 293 294 294
291 289 281 284 288 289 288 288 287 282 279 280 281 280 290 290 293 294 295 297 297 297 297 296 296 296 296 296 295 294 294 294 294 295 294 293 293 292 292 291 292 292 292 292
291 286 279 281 286 288 287 288 289 288 285 280 277 280 290 290 292 295 295 296 297 297 296 296 295 295 294 293 293 292 292 292 293 293 292 291 290 290 290 290 290 291 290 290
295 289 285 281 283 287 284 287 288 287 280 280 281 284 287 289 292 294 295 297 297 297 296 295 295 294 294 293 291 291 291 291 291 291 290 289 289 289 289 289 289 288 288 288
292 284 286 287 288 288 287 287 287 285 287 283 286 286 288 290 293 295 297 296 296 296 296 296 295 294 292 291 290 290 290 290 291 290 289 288 288 288 287 286 286 285 284 286
291 283 286 281 287 287 284 287 288 288 288 288 288 286 291 294 296 294 296 296 296 296 296 296 295 293 292 291 290 290 289 289 289 287 286 286 285 285 284 284 284 283 283 283
287 285 283 280 284 284 280 284 287 288 289 288 285 290 291 291 294 294 295 296 296 296 296 295 294 293 292 291 290 289 288 288 286 284 284 284 284 283 283 283 282 282 282 282
286 283 284 279 281 274 285 289 291 289 290 291 291 291 292 292 295 297 299 297 297 297 296 295 293 292 291 290 289 288 287 286 285 284 283 282 282 281 282 281 280 281 281 280
291 286 283 279 275 281 285 284 285 285 286 292 291 293 292 292 292 292 298 298 298 297 297 294 293 292 290 289 288 285 285 285 284 283 282 282 281 279 279 276 278 279 278 278
289 290 285 283 279 277 283 289 291 291 283 290 292 292 291 292 288 291 295 298 297 297 295 293 291 290 288 287 286 285 284 283 282 282 282 281 280 276 276 278 277 277 276 281
284 284 283 283 281 280 284 285 289 280 284 284 289 292 292 291 294 294 295 294 295 294 292 291 290 288 287 285 285 283 283 282 281 280 279 278 278 275 275 275 276 274 275 278
283 283 282 284 281 278 284 284 285 287 283 284 288 291 290 289 291 293 293 292 291 290 290 288 286 284 284 284 284 282 282 280 278 276 276 273 271 274 275 269 269 270 271 272
281 285 284 285 283 285 285 284 286 287 286 284 286 288 290 288 288 289 289 289 289 288 287 286 284 283 282 282 283 281 278 277 274 271 267 267 268 270 270 267 268 270 269 270
284 285 285 284 284 283 284 285 285 286 285 286 286 286 288 286 287 287 287 286 285 285 284 283 282 281 279 279 279 277 275 272 267 265 267 268 267 267 268 272 273 267 267 271
283 283 281 281 283 284 285 286 287 286 284 285 285 286 287 285 285 286 285 284 284 283 283 284 282 281 279 277 274 272 271 269 268 266 268 267 268 266 268 269 269 271 271 272
281 282 282 281 286 287 286 287 287 285 284 284 284 284 284 284 285 285 284 283 283 281 281 280 279 277 274 272 270 267 265 265 263 265 267 266 266 266 268 268 270 276 278 279

GFSCGP_sfc_thetae_099.txt.gz
Theta_e
296 291 288 289 290 291 290 288 287 288 292 291 289 289 292 293 293 294 292 294 294 296 297 298 300 300 302 308 320 324 328 329 329 326 329 329 329 330 330 331 331 330 330 330
292 288 293 295 293 292 289 287 285 289 292 289 289 290 292 292 293 294 294 294 296 294 296 298 298 298 299 299 301 309 326 329 329 328 328 330 330 330 331 332 331 330 330 330
289 292 295 294 291 290 289 287 285 287 289 289 286 285 290 293 292 293 293 294 295 294 296 298 299 300 301 299 301 302 307 325 329 328 330 328 328 328 328 329 329 329 329 329
290 294 293 291 289 290 286 291 290 289 286 281 285 278 284 288 290 291 293 292 293 297 297 299 301 301 301 304 304 301 301 309 325 328 329 327 325 323 326 327 328 328 328 327
289 290 290 289 290 292 288 292 290 289 286 283 282 279 282 287 287 290 291 293 293 296 298 299 299 302 302 305 304 297 302 310 320 324 328 326 323 323 323 324 324 325 326 326
289 292 292 292 291 292 293 290 288 286 284 278 281 280 280 284 287 289 291 293 295 296 297 298 300 302 301 303 306 301 306 309 313 317 324 323 321 320 319 319 319 319 319 313
287 287 290 292 289 291 290 285 278 276 277 276 279 279 283 287 289 291 293 294 295 295 295 297 298 298 299 300 303 308 309 308 311 313 313 314 314 315 314 313 310 307 305 304
282 281 288 291 289 287 286 285 278 273 274 276 279 278 283 288 292 294 296 295 295 295 295 296 297 297 298 299 299 300 301 301 303 304 304 305 306 305 303 302 300 298 298 298
282 283 290 290 291 291 285 283 287 280 271 276 278 281 287 289 290 292 293 294 294 295 295 296 297 296 296 296 297 297 298 298 298 298 299 299 298 298 296 296 296 295 295 296
287 282 288 289 290 290 287 289 282 281 274 272 276 277 280 285 287 291 292 293 294 295 295 295 295 295 295 295 295 296 296 295 295 296 296 296 295 295 294 294 293 293 293 293
288 287 284 287 286 285 285 284 284 285 281 274 272 277 285 288 289 291 293 294 295 295 295 295 295 295 294 294 294 294 294 294 294 295 294 293 293 292 292 292 291 291 291 291
289 286 281 283 287 288 287 286 286 281 278 279 279 279 288 289 289 293 293 294 295 296 295 294 294 294 293 293 293 293 293 293 293 293 292 291 291 290 290 289 289 289 289 289
291 285 278 281 285 287 286 287 287 286 282 278 275 279 288 288 289 293 293 293 296 295 294 293 293 293 293 292 292 292 292 292 291 291 290 289 289 288 288 288 288 288 287 287
295 288 283 280 282 286 283 285 286 285 279 280 280 283 286 287 289 291 292 295 296 295 295 294 293 293 292 292 291 290 290 291 290 289 288 287 287 287 287 286 286 286 286 286
292 282 284 285 286 286 286 286 286 285 287 282 286 285 286 288 290 293 294 295 296 295 294 294 294 293 292 290 290 289 289 290 289 288 287 286 286 286 285 284 284 284 284 284
290 282 285 281 285 286 284 286 288 288 287 287 287 286 290 291 292 293 294 295 295 295 295 295 295 293 291 290 289 289 288 288 288 286 285 285 284 283 283 283 283 283 283 283
287 284 281 281 282 283 280 285 285 287 289 288 284 289 289 290 292 294 294 296 296 296 296 295 294 293 291 290 289 288 288 287 285 284 283 283 283 283 283 282 282 282 282 281
282 283 280 278 279 274 285 288 290 288 289 291 290 290 289 291 292 294 296 296 297 297 296 296 295 293 291 290 289 288 287 285 284 283 282 282 282 282 282 281 280 281 281 280
288 283 279 278 270 279 284 285 284 285 287 290 290 292 290 289 290 291 296 298 297 297 297 297 296 293 290 289 288 286 285 284 283 283 282 282 281 280 279 277 278 279 278 277
288 288 282 270 270 271 282 287 289 290 283 291 292 292 289 289 287 292 294 297 297 297 297 295 293 291 289 287 286 285 284 283 282 282 282 281 280 278 276 277 276 277 275 279
284 282 282 280 275 278 284 285 288 281 284 284 288 291 290 290 294 292 293 294 295 296 293 292 291 289 288 286 286 284 284 283 282 281 280 279 279 276 276 275 276 273 271 273
284 283 283 283 281 278 284 284 286 287 282 283 286 290 288 289 290 290 292 291 291 290 290 290 288 286 286 286 285 284 283 281 280 279 278 276 273 275 275 268 268 267 266 267
283 287 284 286 284 284 283 284 285 286 285 283 285 288 289 289 287 288 288 289 289 289 287 287 286 284 284 283 285 283 280 279 277 276 273 270 270 271 270 265 266 267 265 266
285 287 284 284 284 285 284 284 284 285 285 285 286 286 288 288 288 286 286 286 285 284 284 284 284 283 281 281 282 282 279 277 275 272 273 272 269 266 265 270 270 265 264 264
284 286 284 283 284 284 286 286 287 285 284 285 285 285 287 286 285 285 284 283 284 283 282 283 283 282 279 279 278 277 276 275 274 272 271 268 266 264 265 267 266 268 268 268
281 283 282 281 286 287 286 286 287 286 285 285 285 284 283 284 285 284 283 283 283 282 282 282 281 280 277 276 273 272 272 273 271 269 268 266 265 264 266 265 265 273 275 277

GFSCGP_sfc_thetae_102.txt.gz
Theta_e
295 291 289 292 289 291 290 288 287 286 290 289 289 289 291 292 292 291 291 292 294 298 300 302 306 313 316 319 324 327 328 328 327 326 325 329 328 329 329 330 330 330 330 329
292 289 294 295 293 291 289 287 285 287 289 288 287 289 290 291 291 292 293 292 295 295 296 296 297 298 301 304 314 321 327 327 328 328 327 325 329 329 330 331 330 330 329 329
288 291 294 293 290 289 286 286 285 286 288 287 285 285 288 292 291 291 292 292 293 294 295 296 296 298 298 298 299 304 323 327 328 328 328 328 328 328 328 328 328 329 329 328
290 293 292 291 290 291 285 290 289 287 284 281 284 279 282 289 290 291 292 292 293 293 295 296 299 300 300 302 303 302 303 324 327 327 328 326 325 323 326 327 328 328 328 327
289 289 289 289 291 291 288 291 290 288 283 282 281 279 281 285 286 289 291 291 292 294 296 297 299 301 301 305 304 299 299 306 324 327 328 327 324 323 323 325 324 324 317 318
290 291 292 292 291 292 292 289 287 285 282 278 280 280 279 283 287 290 289 291 292 294 296 297 299 301 302 303 303 298 304 309 320 325 324 326 323 321 320 320 319 315 309 308
286 287 289 291 289 291 289 286 278 276 276 276 278 277 283 285 288 289 291 291 293 295 296 297 298 299 300 301 303 304 306 307 312 317 318 320 319 319 317 314 310 305 303 302
283 280 287 290 289 287 285 286 278 272 273 275 279 278 284 287 288 290 291 293 293 294 296 297 297 297 298 300 302 302 303 303 304 307 306 308 308 305 304 303 301 299 297 295
282 282 289 289 290 291 286 283 286 279 271 276 278 280 286 288 289 290 291 293 293 293 294 296 296 296 296 297 298 298 298 297 299 300 300 299 300 299 297 296 296 294 293 294
286 281 287 288 290 289 288 289 283 280 272 272 277 277 280 284 287 290 290 292 292 293 294 294 294 295 295 295 295 295 295 295 295 296 297 296 295 295 294 294 292 291 291 291
288 286 283 287 286 285 285 283 283 284 281 276 272 278 284 287 289 289 291 292 293 293 294 294 293 294 294 293 293 293 293 293 293 294 294 293 292 292 291 291 290 290 289 289
288 286 280 283 287 288 286 286 285 282 279 279 279 279 287 287 289 290 292 293 293 294 294 293 293 292 292 292 292 292 292 292 292 292 291 291 290 290 289 288 288 288 288 287
290 284 277 281 284 286 285 285 286 285 282 279 276 279 286 287 288 289 292 293 294 293 292 292 291 291 292 291 291 291 291 291 290 291 290 289 288 288 287 286 287 287 286 286
294 286 283 280 282 286 283 285 285 285 279 278 280 282 284 286 288 290 292 293 294 294 293 293 292 292 291 291 290 290 290 290 289 289 288 287 286 286 286 285 285 285 285 284
291 281 284 283 285 286 285 286 286 284 287 282 285 282 287 287 288 290 292 293 294 294 293 293 293 292 292 291 290 290 290 288 288 287 287 286 285 285 284 283 283 283 283 283
289 279 283 281 285 285 283 285 287 287 286 285 286 284 288 289 290 291 292 294 294 295 295 294 294 293 291 291 290 290 289 288 288 286 285 285 284 283 282 282 283 283 283 282
287 283 280 281 283 284 280 284 285 286 288 287 284 289 288 288 290 292 292 294 295 296 296 295 294 294 292 291 291 289 289 287 285 284 283 283 282 282 283 283 283 282 282 282
283 283 281 278 280 276 286 288 288 287 288 290 289 287 289 290 292 293 296 295 296 297 297 296 296 295 293 292 290 289 286 285 284 283 283 282 283 282 282 281 281 281 281 281
286 282 275 274 265 279 283 284 285 284 286 289 289 291 288 289 289 290 295 296 297 298 299 298 298 296 292 290 288 287 285 284 283 283 283 282 282 281 280 279 279 280 279 278
286 285 281 265 270 271 282 285 287 289 283 292 291 291 288 288 286 292 292 295 297 298 298 297 296 294 290 289 287 286 284 283 283 283 283 282 281 280 279 279 279 278 277 278
281 279 280 268 268 275 282 284 287 280 283 284 289 290 288 288 293 291 292 292 296 295 294 294 294 291 289 287 287 285 284 283 284 282 281 280 279 278 278 278 278 276 274 275
281 279 278 274 272 276 284 284 285 287 282 284 286 288 288 288 289 289 291 290 291 292 291 292 290 288 286 287 287 285 284 283 282 281 279 278 277 279 277 276 274 273 272 269
282 285 284 284 282 284 283 284 284 286 284 283 284 285 289 288 288 287 288 286 287 288 288 289 288 285 285 286 287 284 284 281 280 279 277 276 276 276 275 273 273 272 268 268
285 286 284 286 284 284 283 283 285 285 285 285 285 285 286 287 287 286 286 285 285 282 284 285 285 284 283 285 285 286 281 280 279 277 276 275 274 273 273 274 273 269 267 264
284 287 285 283 284 284 286 286 286 285 284 284 285 285 287 286 286 286 284 282 281 281 281 284 285 284 283 283 281 281 279 278 277 276 274 274 274 273 271 271 270 270 267 268
283 284 284 283 287 288 287 286 286 285 285 285 284 285 285 284 285 283 281 281 281 280 280 281 281 282 279 279 276 276 277 278 276 274 273 273 271 270 270 269 269 273 275 277

GFSCGP_sfc_thetae_105.txt.gz
Theta_e
295 291 289 294 297 292 290 289 287 289 291 289 288 289 291 290 288 290 292 293 296 303 311 309 312 315 316 321 326 328 327 327 327 324 324 328 327 329 329 329 330 330 330 328
292 288 293 295 293 292 289 288 287 288 290 288 286 288 288 289 290 291 292 291 291 293 297 300 302 309 313 318 324 326 328 327 327 328 327 324 324 329 330 330 329 329 329 329
288 290 295 293 291 290 288 288 286 287 288 287 285 286 286 290 289 290 292 291 291 294 295 296 296 298 302 309 317 323 326 327 328 327 325 325 327 327 327 327 327 328 329 328
291 294 293 291 291 292 287 289 289 287 285 281 285 279 283 287 289 289 291 291 292 292 294 295 296 297 298 298 300 304 319 324 326 326 326 326 325 323 325 327 328 328 327 326
287 290 291 290 291 292 289 290 289 288 284 281 280 279 281 283 286 289 290 292 292 292 293 295 296 299 300 303 302 301 300 318 325 326 327 327 324 323 325 325 320 315 313 315
289 291 294 293 293 293 292 289 287 285 283 278 282 281 280 282 286 289 293 292 292 292 293 294 297 300 301 302 303 299 298 300 320 325 326 326 324 321 321 320 315 309 308 307
284 286 288 291 289 290 290 286 279 278 277 278 277 278 286 284 286 288 289 292 292 291 294 296 297 298 300 302 303 298 300 303 313 324 324 322 321 322 320 318 310 305 303 301
282 281 286 290 289 287 286 287 279 272 273 276 279 277 282 287 286 288 289 289 290 292 295 296 298 298 298 301 301 302 304 305 312 321 318 316 318 316 313 309 305 301 299 297
282 282 287 288 289 291 285 282 287 279 271 275 277 280 285 286 287 289 290 289 291 292 295 296 297 297 297 299 301 302 301 300 305 307 307 306 306 305 302 299 298 296 295 293
285 281 286 287 289 289 288 289 283 281 272 271 276 277 279 282 288 288 289 290 291 292 294 295 295 295 296 297 297 297 297 297 297 300 301 298 298 297 296 296 294 292 291 290
286 284 282 287 285 284 284 283 283 285 281 275 272 277 284 287 289 289 290 290 291 292 293 293 294 294 294 294 294 294 294 294 293 294 294 294 293 294 293 291 290 290 289 289
287 284 279 282 285 286 286 286 287 283 279 277 278 278 285 287 287 288 290 292 292 292 293 293 292 292 291 292 292 292 292 292 291 292 292 291 291 291 290 289 288 288 287 287
289 283 276 280 284 285 284 285 286 285 283 279 276 281 285 287 288 289 290 292 293 293 291 292 291 291 291 290 291 290 290 290 290 290 290 289 288 288 287 287 286 286 285 285
293 285 283 279 281 285 282 284 285 285 281 280 280 283 285 286 288 289 291 292 293 293 292 292 291 291 291 291 290 289 289 289 288 288 288 287 287 287 286 286 285 285 285 284
290 282 283 282 284 286 285 285 285 284 286 282 286 283 287 288 288 289 291 292 292 293 293 293 292 291 291 290 289 290 289 288 288 288 287 286 285 285 284 284 284 283 283 283
288 279 283 281 284 284 283 286 286 286 287 286 286 284 288 288 289 290 291 292 293 294 294 294 294 293 292 292 291 290 289 287 287 286 285 284 284 284 283 283 282 282 282 282
287 281 277 275 282 282 279 283 285 286 288 288 283 288 287 286 288 290 291 293 294 295 295 295 294 293 293 292 292 290 289 287 285 285 284 284 283 283 283 282 282 282 281 282
285 286 281 275 279 274 284 287 287 286 287 289 290 287 287 289 290 291 293 294 294 296 296 296 296 295 294 293 292 291 288 286 285 284 284 283 282 282 281 281 281 281 281 281
285 284 277 278 271 279 283 284 285 284 287 289 289 289 288 288 287 289 292 295 296 297 298 298 298 297 295 293 292 289 286 285 284 284 283 283 282 281 281 280 280 280 280 278
285 284 282 267 276 275 285 285 287 289 282 293 291 290 288 288 286 292 293 294 295 296 297 297 297 296 294 291 289 287 285 285 284 284 284 283 282 282 281 280 279 279 278 279
279 278 279 267 271 274 281 283 287 280 284 284 287 290 287 288 293 290 291 290 292 293 293 294 295 294 293 289 287 287 286 285 285 284 282 281 281 281 280 279 278 277 277 278
281 279 277 271 269 276 283 282 284 286 282 283 286 286 286 287 288 288 290 291 290 291 291 293 292 290 289 287 288 287 285 286 283 283 282 280 279 280 279 278 277 277 277 276
282 284 282 282 281 285 284 283 284 285 284 283 284 284 285 286 286 288 289 288 288 289 288 288 290 287 286 287 288 286 286 283 282 281 280 278 278 278 277 277 275 275 275 275
283 285 283 285 283 283 283 283 284 284 284 285 285 284 284 284 287 287 286 286 285 281 281 280 282 282 283 285 287 288 283 283 282 281 278 277 277 276 276 277 276 275 274 274
283 286 283 281 283 283 283 284 285 284 284 284 284 285 285 285 286 286 284 281 280 279 279 280 282 282 281 283 283 282 283 283 282 280 277 277 276 276 275 274 274 274 274 274
285 285 284 280 286 286 286 285 285 284 285 284 284 284 284 284 285 285 282 281 279 278 277 279 278 280 280 280 280 281 282 283 279 277 276 276 275 274 273 273 271 275 276 278

GFSCGP_sfc_thetae_108.txt.gz
Theta_e
295 292 292 295 294 293 293 292 291 289 292 288 288 289 293 290 288 294 300 302 304 308 313 315 316 317 318 323 325 326 326 326 324 322 322 322 325 328 328 329 328 328 328 327
292 288 294 297 296 294 290 287 289 290 290 287 285 288 290 288 289 291 295 295 299 300 299 304 308 310 313 319 323 325 327 326 326 326 325 324 325 328 330 330 329 329 329 329
289 291 295 294 291 291 290 287 286 288 288 288 285 286 286 289 288 289 290 291 292 296 296 298 300 303 309 313 318 323 326 327 327 328 324 322 325 327 326 327 327 328 328 327
290 294 292 290 289 290 286 291 289 288 289 284 286 280 284 287 289 288 290 289 291 291 291 294 297 298 300 308 313 320 324 325 326 326 326 325 324 323 324 325 327 325 326 326
287 290 289 288 290 292 289 291 289 288 285 282 283 279 283 282 285 287 289 291 292 293 291 293 295 297 297 299 301 305 315 320 324 325 326 325 324 325 324 323 318 315 315 317
288 289 291 290 292 293 292 291 288 285 284 278 284 281 281 282 285 287 292 291 293 292 290 292 293 296 299 301 301 300 299 310 321 324 325 325 325 322 321 319 314 311 309 308
284 284 287 292 288 292 290 288 280 278 276 277 278 278 285 286 286 289 291 293 293 291 290 291 294 297 298 300 302 301 299 298 309 324 324 325 324 323 321 318 313 307 304 303
282 279 285 287 288 286 287 288 281 274 274 277 279 278 282 288 288 288 288 289 288 290 292 293 295 297 298 300 302 301 299 299 302 319 323 325 318 322 320 315 311 306 302 299
281 281 285 286 287 290 283 284 288 280 273 275 279 281 285 287 288 288 288 289 289 290 290 293 294 296 297 298 300 300 300 301 304 309 320 319 319 315 310 306 303 300 297 295
284 280 284 286 287 286 287 289 282 281 275 272 277 277 281 283 287 290 289 290 292 290 291 293 294 295 295 297 299 299 299 300 302 306 309 309 310 308 304 301 297 296 294 292
285 283 281 285 283 282 282 283 283 285 281 276 272 279 284 287 289 290 291 289 290 291 292 293 294 294 294 294 295 295 296 295 298 300 299 300 299 299 298 297 295 293 291 289
286 283 278 280 284 285 284 284 286 282 278 277 278 282 285 287 287 287 288 290 292 292 292 293 293 293 293 294 293 293 292 293 295 296 297 295 295 295 293 292 290 291 288 287
287 282 272 279 282 283 282 283 285 284 282 280 277 282 286 286 287 288 289 290 291 291 290 291 291 291 292 291 291 291 291 292 292 294 294 293 292 291 290 288 287 287 286 286
293 285 281 278 279 283 281 282 282 284 279 281 280 281 286 286 287 287 289 291 291 292 292 291 291 291 291 291 291 291 291 292 292 292 292 290 290 289 287 287 286 286 285 285
290 284 283 281 283 285 285 285 285 284 286 282 286 285 287 289 288 288 289 291 292 292 291 291 291 291 291 290 290 291 291 289 290 290 290 288 287 286 286 285 285 284 284 283
287 278 282 279 282 283 283 285 286 286 287 286 287 285 287 288 288 288 290 291 292 293 293 294 293 293 292 292 292 291 290 288 288 289 288 286 285 285 284 284 284 283 283 283
286 280 277 274 280 281 278 283 284 285 287 288 283 289 287 286 287 289 289 291 292 293 294 294 294 294 294 293 293 291 290 288 287 286 284 284 284 284 284 283 283 282 281 281
285 286 281 278 279 273 283 286 287 286 287 289 290 286 288 289 289 290 291 291 292 293 294 295 296 296 295 294 293 292 289 287 285 285 285 283 283 283 282 282 281 281 281 280
288 285 279 278 276 280 283 283 282 282 285 287 287 288 288 287 286 288 291 292 294 295 296 297 297 297 295 293 292 289 286 286 285 284 284 284 283 282 281 281 281 280 280 279
284 288 285 271 276 274 284 286 287 290 283 290 289 288 287 286 284 292 291 292 293 293 294 295 295 294 293 292 290 288 286 286 285 285 285 284 283 283 282 281 280 279 280 280
278 277 280 271 277 276 281 283 288 281 283 283 286 289 287 287 290 288 289 290 289 290 291 293 293 294 294 290 289 288 287 286 287 286 284 283 282 282 282 281 279 279 279 279
280 279 276 270 268 276 282 283 286 287 283 285 286 286 285 286 287 287 289 289 288 289 289 291 290 289 288 289 289 288 287 288 286 284 283 282 282 282 281 280 278 278 278 276
280 283 282 283 282 285 283 285 285 285 284 284 284 284 285 286 285 284 287 287 287 286 285 286 286 286 286 285 288 287 287 285 283 284 283 282 281 280 280 279 277 277 277 277
282 284 283 284 283 282 283 283 284 283 283 284 285 284 284 284 284 285 286 286 285 281 281 279 280 279 279 280 282 283 283 283 284 283 281 280 279 278 278 278 278 277 276 276
282 284 281 280 283 283 283 283 284 284 284 285 284 284 284 284 284 285 283 281 280 279 278 277 278 278 278 278 278 280 282 283 283 281 279 279 279 278 277 277 277 277 277 278
285 285 282 279 284 284 284 284 284 284 284 283 284 283 283 284 284 283 280 279 278 278 276 277 277 277 277 276 276 278 282 284 282 279 279 279 278 277 276 275 274 278 278 279

GFSCGP_sfc_thetae_111.txt.gz
Theta_e
296 294 295 296 299 298 297 295 294 290 298 291 289 290 294 294 293 296 303 307 308 311 316 316 318 320 323 326 326 327 326 326 326 324 324 324 324 326 328 329 329 329 328 327
292 288 298 300 298 294 293 291 291 294 291 289 288 289 292 291 292 292 297 302 307 308 308 313 316 317 319 323 325 326 327 327 326 327 327 327 328 330 330 330 330 329 328 328
288 292 296 297 294 293 291 288 287 288 289 289 287 287 289 290 290 291 291 296 300 305 308 306 307 313 317 318 322 325 327 327 328 328 326 325 327 327 328 328 328 329 329 329
290 295 292 292 293 295 290 292 291 288 288 285 288 281 287 289 290 289 292 290 293 296 299 304 304 304 309 315 319 323 326 327 328 329 327 326 326 325 327 328 328 328 328 328
290 291 289 289 290 293 289 290 288 288 286 283 283 281 283 286 286 288 291 291 293 295 295 297 299 303 305 308 314 319 323 325 327 328 328 327 327 328 328 327 323 320 321 324
291 292 292 291 292 294 293 291 290 285 284 279 284 283 281 286 286 290 292 293 294 295 293 294 294 295 298 300 304 310 318 322 325 326 328 327 327 326 324 321 317 317 314 313
285 285 288 293 290 292 290 288 281 279 279 278 279 281 287 288 288 290 293 294 295 295 294 293 293 294 296 300 301 302 305 314 322 325 326 327 327 326 324 321 318 312 309 309
282 280 286 290 290 287 289 289 279 273 274 277 279 279 284 289 293 290 290 291 290 291 292 293 294 295 296 300 302 302 301 301 308 323 324 326 326 326 324 322 317 314 309 305
281 281 285 288 289 293 287 286 287 279 270 275 279 282 286 287 288 289 289 290 291 292 292 292 293 295 297 299 301 302 301 300 300 305 320 323 324 323 320 315 313 307 302 299
284 280 283 285 289 287 289 291 284 281 271 271 277 278 282 284 287 290 290 290 291 291 292 292 294 295 297 299 301 302 301 301 302 304 308 316 321 318 313 309 304 302 297 295
285 283 281 285 283 283 283 285 284 285 280 274 272 278 284 288 289 290 289 290 291 292 292 293 294 295 296 297 299 300 300 300 301 304 305 308 310 309 306 305 301 299 295 293
286 283 278 280 284 285 286 284 286 281 277 277 278 279 286 287 289 289 290 290 290 292 293 293 294 295 295 296 297 298 297 297 298 301 301 301 301 301 301 300 297 295 292 292
286 282 274 280 282 283 282 282 288 284 281 278 276 281 288 285 287 288 289 290 291 292 293 293 293 293 294 294 294 294 294 295 295 297 298 296 296 298 297 294 293 292 290 289
293 284 282 279 281 283 281 282 283 285 278 281 280 284 286 288 288 288 289 291 292 292 293 293 293 293 293 293 293 293 294 294 293 295 295 294 293 294 293 291 290 289 289 288
288 281 281 280 282 284 283 283 283 283 285 282 285 285 287 288 289 290 289 290 292 293 292 293 293 293 293 292 292 292 293 292 292 292 293 292 291 291 289 288 287 287 287 286
286 278 282 279 281 282 281 284 285 286 286 285 287 285 286 289 288 288 290 291 291 292 293 293 293 293 293 293 293 292 292 291 291 291 292 289 288 287 287 286 285 286 285 285
286 281 276 279 280 280 276 282 284 285 287 287 283 288 287 287 287 288 289 289 290 291 293 293 294 295 295 294 294 293 292 289 289 290 287 287 286 286 286 285 285 284 284 284
285 284 276 269 273 274 283 284 287 286 287 288 289 286 288 290 289 289 290 290 291 291 292 294 295 295 295 294 293 292 290 288 287 286 286 285 286 285 284 284 284 283 283 283
285 282 273 275 269 279 283 284 282 282 284 287 286 288 287 286 286 288 289 290 292 292 293 294 295 295 294 293 293 290 287 287 286 286 286 286 286 284 283 283 282 282 282 282
284 286 281 269 274 273 284 285 285 288 282 291 287 287 287 286 283 290 290 291 291 291 291 293 294 294 293 292 291 289 287 287 286 287 286 285 285 285 284 284 282 282 283 282
273 275 280 274 278 276 283 283 287 279 283 283 286 287 286 287 290 289 289 290 289 289 289 290 291 292 292 289 289 288 287 287 288 287 285 284 284 285 284 283 282 282 282 281
276 275 273 268 277 276 282 283 285 288 284 286 286 287 287 287 287 287 288 287 287 287 287 287 287 288 289 287 287 286 286 287 285 285 284 284 284 284 283 283 281 281 281 280
278 282 278 282 281 284 282 284 285 285 286 285 287 287 287 287 286 286 286 285 285 285 285 284 282 284 286 283 286 285 284 284 284 284 284 283 283 283 283 282 280 280 280 279
283 284 281 282 282 282 283 283 284 284 283 284 285 284 285 285 285 285 285 285 284 281 280 279 280 280 279 279 281 282 283 283 283 283 283 282 282 281 281 282 281 280 279 278
283 284 279 278 282 282 282 284 284 284 284 284 285 285 284 284 284 284 282 281 279 279 279 278 278 278 279 277 278 277 280 282 282 282 280 280 281 280 280 280 280 280 281 281
285 284 283 278 284 284 283 284 285 284 283 283 283 283 282 283 283 282 280 279 277 278 276 277 276 275 277 274 274 274 277 281 281 279 279 280 280 280 279 278 277 280 281 283

GFSCGP_sfc_thetae_114.txt.gz
Theta_e
299 299 299 302 305 302 300 300 299 298 303 298 298 301 304 307 300 303 306 311 314 317 322 326 329 331 331 332 331 329 326 327 328 327 326 328 327 329 330 332 332 331 330 329
296 295 302 306 303 301 301 299 300 301 296 296 298 298 302 303 301 302 304 307 312 315 319 322 325 328 330 331 332 332 331 329 329 329 330 330 330 331 332 333 331 330 330 330
295 296 301 301 296 295 296 298 296 295 293 294 294 297 298 300 301 301 301 304 308 313 315 318 322 324 327 329 331 332 333 333 332 332 331 331 333 332 331 331 331 331 331 330
295 296 297 297 294 296 289 294 293 292 291 291 297 292 299 300 301 297 300 301 302 307 314 317 318 321 324 326 329 332 333 333 333 333 331 329 328 327 330 331 331 332 333 331
293 293 295 294 295 299 292 297 294 292 290 289 290 288 296 296 296 300 298 301 302 303 307 311 316 319 321 325 327 328 330 332 334 333 332 331 329 332 333 332 332 331 330 331
295 298 297 298 297 294 295 293 292 290 289 285 291 289 293 295 295 298 301 301 301 302 303 305 310 314 316 320 323 326 326 329 332 333 332 332 331 331 331 331 330 325 324 326
291 292 294 296 293 295 294 291 283 282 282 284 285 287 293 297 298 300 301 303 303 303 303 302 302 301 307 312 314 319 323 324 328 331 331 332 332 332 331 331 329 324 318 316
285 282 289 294 295 292 292 293 284 279 280 285 282 283 291 296 301 299 299 301 301 301 301 301 302 303 304 305 307 311 314 320 324 328 329 331 330 330 332 332 330 326 323 322
287 285 291 294 295 295 290 288 290 284 279 281 286 289 293 296 294 295 296 295 298 300 299 299 300 301 302 303 305 307 309 312 318 323 326 326 327 326 327 329 330 326 322 313
291 283 288 290 296 295 294 296 286 287 280 278 284 284 288 292 294 295 295 296 298 298 298 299 298 300 301 303 305 308 309 310 311 314 323 323 325 326 326 325 322 318 312 307
292 288 284 290 290 289 290 289 290 291 287 282 281 287 293 293 295 296 297 296 298 298 299 299 300 300 302 303 304 307 308 309 308 308 309 318 324 324 320 316 311 308 304 303
292 287 283 286 289 292 293 291 291 286 283 285 283 286 293 294 294 294 296 296 297 297 298 299 300 300 300 301 303 305 307 308 309 309 310 310 313 317 314 316 310 305 300 302
290 286 281 282 287 288 289 290 293 291 288 285 284 288 296 292 293 295 295 298 298 298 299 299 299 300 300 301 303 305 306 306 306 306 308 309 310 310 311 307 305 303 297 297
294 287 286 281 285 288 285 288 291 291 285 286 286 290 293 295 296 295 295 296 298 299 299 299 299 299 300 301 302 303 303 304 303 303 306 306 306 306 306 302 299 297 295 293
293 286 287 287 288 289 288 287 288 288 290 286 289 289 292 295 296 299 298 297 297 298 298 299 300 300 300 300 300 300 302 301 301 301 302 303 300 300 297 295 293 290 292 290
291 287 287 283 286 288 286 288 289 289 290 290 290 290 296 297 298 298 298 297 297 298 298 299 299 299 299 299 299 298 300 299 298 299 299 297 294 291 291 289 288 288 288 288
289 287 285 283 285 286 283 286 288 289 291 291 287 292 296 295 295 296 297 297 296 297 298 298 300 300 300 300 299 298 298 298 296 296 293 291 291 290 289 287 286 286 286 287
288 287 287 280 282 277 288 293 292 290 291 293 293 294 295 296 298 299 297 297 297 297 297 298 300 301 301 301 299 300 298 295 294 293 290 289 289 288 287 286 286 286 286 285
292 289 283 282 282 286 288 287 288 287 288 293 292 294 295 294 294 296 296 297 298 298 297 298 300 300 301 300 299 297 294 293 293 292 291 289 289 288 287 286 286 286 285 285
289 292 287 279 280 277 287 290 292 293 284 295 294 293 294 292 289 294 295 294 295 296 296 296 297 298 299 299 297 293 292 291 291 292 291 290 289 288 287 287 286 285 286 285
284 285 283 283 283 286 289 289 294 284 287 292 293 295 294 291 295 295 294 293 293 294 293 295 296 296 297 295 293 292 291 290 292 291 290 288 288 288 288 287 286 285 285 285
284 283 283 284 282 280 289 288 288 293 292 292 291 291 292 293 292 292 292 291 291 291 292 291 292 292 293 292 291 291 290 292 289 288 287 287 286 287 287 286 285 285 285 284
284 289 286 287 287 290 290 292 290 290 292 292 293 291 292 291 291 291 289 289 289 288 287 287 287 288 289 287 289 289 290 288 287 286 286 286 286 286 286 285 284 284 284 284
286 288 288 288 288 288 288 288 288 289 289 289 290 290 291 289 289 288 288 287 287 285 284 284 285 285 286 285 285 287 287 286 285 285 285 285 285 285 285 286 285 285 284 284
288 288 285 285 285 286 287 289 288 288 288 287 287 287 288 289 287 287 285 285 284 284 283 283 283 284 284 284 284 285 285 285 285 285 285 285 285 284 285 285 285 285 286 286
287 287 287 287 289 289 287 288 289 288 287 287 286 285 284 287 286 285 283 282 282 282 282 283 282 282 282 282 282 282 281 284 285 284 283 284 285 284 284 284 283 285 285 285

GFSCGP_sfc_thetae_117.txt.gz
Theta_e
301 300 297 303 307 308 305 303 302 305 303 302 302 303 306 309 305 305 306 308 313 315 321 325 328 331 331 329 325 323 325 326 327 328 328 328 327 330 330 331 333 335 334 331
297 295 305 308 308 306 305 302 302 305 300 301 304 304 307 309 309 308 307 306 308 313 316 321 325 329 330 331 330 327 324 326 326 328 328 328 328 330 330 332 333 334 333 330
297 302 305 306 305 302 303 302 302 300 301 299 299 299 302 307 309 310 309 308 307 309 313 317 322 326 330 331 332 332 330 327 327 328 329 329 331 331 330 331 333 333 332 332
298 301 302 302 301 304 295 298 300 294 294 294 299 293 303 307 307 307 309 309 308 307 311 316 319 323 327 330 334 334 334 333 331 331 331 329 329 327 330 332 333 332 333 333
293 297 300 297 298 304 295 297 295 293 291 290 293 291 298 303 302 305 309 308 310 307 308 312 317 321 324 329 331 334 334 334 335 334 333 332 331 332 332 333 334 333 334 333
297 304 304 302 301 298 298 295 293 291 289 284 292 291 295 299 300 303 306 309 309 308 308 309 314 320 322 327 329 330 331 332 334 335 334 333 332 332 332 332 332 333 333 332
293 295 298 302 293 295 294 293 285 283 283 285 289 293 295 302 304 303 304 307 309 310 307 308 308 313 318 321 325 328 328 328 331 334 334 333 333 333 332 332 332 331 330 328
288 284 293 301 298 291 292 295 289 282 284 288 286 286 293 299 299 302 304 303 306 308 308 308 308 308 311 316 320 322 324 325 327 331 332 333 333 333 333 333 332 331 329 326
289 288 295 297 299 298 291 289 296 286 282 283 289 292 297 299 298 298 300 301 301 302 304 305 306 307 307 308 310 315 318 321 324 327 329 331 332 332 331 332 333 331 331 326
296 284 293 293 298 298 296 297 287 290 282 281 288 288 289 295 297 299 298 300 302 303 304 303 303 304 305 307 308 308 310 312 316 323 326 328 330 330 329 329 329 328 328 319
298 290 287 291 290 290 290 291 292 293 290 285 284 289 296 294 295 297 299 299 300 301 301 302 303 304 304 305 305 307 308 309 310 314 320 324 326 327 326 325 326 322 318 313
294 290 284 287 291 296 296 293 293 288 285 289 287 288 296 296 297 297 297 299 300 300 301 302 303 303 303 304 304 305 307 309 310 311 311 316 323 322 322 322 318 312 310 308
293 288 282 283 289 291 291 293 294 294 290 287 285 289 299 298 297 298 297 300 300 301 302 302 303 303 303 303 304 305 306 308 310 310 310 310 310 315 319 317 312 308 306 303
295 289 287 283 286 289 286 290 292 292 286 288 288 292 296 296 297 298 298 299 300 300 301 302 303 303 303 303 304 305 306 308 308 308 308 309 309 310 312 314 309 305 303 299
294 287 289 290 291 290 288 288 290 290 291 288 291 291 295 299 299 300 301 301 300 299 300 302 303 304 304 303 303 304 305 306 306 305 306 307 307 308 305 300 299 296 298 295
294 287 289 285 289 290 288 290 291 291 292 292 292 291 298 299 300 299 300 300 300 300 301 301 302 303 303 303 302 303 303 303 303 303 303 304 301 298 295 293 292 290 290 290
291 289 287 284 287 287 284 287 289 291 293 293 289 294 297 296 297 298 299 300 299 299 300 301 301 302 303 303 303 302 302 303 301 299 297 295 293 292 291 290 289 288 289 288
288 287 287 282 285 277 289 294 294 291 293 294 294 295 297 298 299 301 301 301 300 300 301 301 301 302 304 305 304 303 303 301 297 296 294 291 291 290 289 288 288 288 288 287
294 289 285 283 282 287 289 290 291 290 290 295 294 295 297 298 297 297 300 301 301 302 300 299 301 301 302 302 303 300 297 296 295 295 293 291 290 288 288 287 287 287 286 286
291 293 288 284 282 278 288 293 295 295 284 296 296 296 296 297 290 294 301 300 298 298 298 298 299 299 300 301 300 295 294 294 294 294 293 292 290 288 288 288 287 287 287 285
284 286 284 285 284 288 291 293 295 284 287 294 296 297 297 294 296 297 296 295 296 295 295 295 297 296 296 295 294 293 293 292 293 291 290 288 288 287 289 288 287 286 285 284
284 284 284 285 283 280 293 291 288 294 294 294 294 295 294 298 295 295 295 294 293 293 293 291 293 292 292 292 292 291 291 292 289 288 287 287 286 287 286 286 286 285 285 285
285 289 287 288 288 292 293 293 295 295 296 294 296 295 295 294 293 294 292 292 291 290 288 288 288 288 288 287 288 288 289 288 286 286 285 285 285 286 286 286 285 284 285 284
288 293 290 288 291 291 292 291 292 292 294 293 294 293 294 293 292 290 289 288 288 286 285 285 286 285 284 285 285 285 286 285 285 285 285 285 285 285 285 286 286 286 284 284
290 290 288 288 287 289 290 292 292 290 291 290 289 290 292 290 289 288 286 286 285 285 284 284 284 284 283 284 284 284 284 285 285 285 284 285 285 285 285 285 286 285 286 287
290 290 287 287 291 293 292 292 291 289 289 289 288 287 287 289 287 286 284 284 284 283 283 283 282 282 282 283 282 282 282 283 284 284 284 285 285 285 284 284 284 287 287 287

GFSCGP_sfc_thetae_120.txt.gz
Theta_e
305 300 297 300 302 305 302 301 299 302 302 298 296 298 301 304 300 299 300 301 307 313 317 320 324 326 327 320 317 321 324 326 328 326 324 323 324 324 324 324 326 328 328 327
297 295 303 306 304 304 303 300 301 301 301 300 300 299 303 305 305 303 301 301 302 307 312 317 320 324 326 322 319 319 323 324 325 325 325 323 323 324 324 325 326 328 328 327
297 301 306 305 303 302 302 300 301 299 296 296 294 295 298 303 306 307 308 305 303 303 308 312 318 321 325 325 323 319 320 322 323 324 325 323 323 323 323 323 325 328 328 327
299 304 304 303 302 303 297 300 300 295 294 291 296 288 297 302 302 305 307 306 304 302 304 310 317 319 324 326 327 326 322 321 322 323 322 321 321 321 324 325 326 328 329 328
295 297 301 301 302 305 297 298 293 292 290 290 288 286 292 296 300 302 305 306 306 304 302 305 313 319 323 326 327 328 328 325 323 323 323 322 322 325 326 327 326 328 328 328
296 304 304 302 299 299 296 293 292 290 290 284 290 288 289 294 297 299 303 306 307 306 304 303 309 316 319 323 326 328 328 328 328 325 323 325 324 326 325 326 326 328 328 328
294 298 297 300 294 297 295 293 284 283 282 283 287 287 292 298 300 297 299 300 303 306 304 302 303 309 314 318 322 325 327 327 329 329 328 327 328 328 327 327 327 327 327 327
286 284 295 300 296 291 292 293 284 279 279 281 282 283 289 297 297 295 296 299 296 297 303 301 302 304 311 315 319 322 322 325 327 328 329 330 329 329 329 328 329 328 328 327
288 287 294 299 298 297 291 290 291 282 276 279 283 287 293 296 295 295 294 294 293 294 297 298 300 301 303 308 313 318 320 321 322 325 328 329 329 329 329 329 329 329 329 327
293 284 292 296 298 296 295 296 287 286 276 275 282 282 285 289 291 294 293 295 296 296 297 297 297 299 300 301 303 306 312 315 319 319 323 326 328 329 329 329 327 328 328 325
295 288 286 292 291 289 289 289 290 291 287 279 278 283 289 292 291 291 293 294 294 294 294 296 296 297 298 298 298 300 301 303 306 312 315 319 323 325 326 327 325 322 320 318
294 289 282 286 290 294 293 292 292 286 283 285 283 283 291 292 292 292 292 293 293 295 295 295 296 297 297 297 298 298 299 301 302 304 306 310 315 317 318 318 318 318 314 311
292 286 280 283 287 288 289 292 294 291 286 282 280 284 292 293 292 292 292 293 294 295 295 297 297 297 297 297 298 298 299 301 303 305 304 305 306 311 314 314 312 311 309 307
295 288 284 281 284 287 285 290 292 291 282 283 284 287 291 291 291 292 292 292 293 294 296 296 296 297 297 298 298 298 299 301 303 304 304 303 303 305 307 312 310 307 305 303
292 283 287 288 289 289 288 289 290 289 290 286 289 289 292 292 293 293 294 293 294 294 294 295 296 297 298 297 297 298 299 301 301 301 300 301 301 302 302 300 299 297 298 298
291 282 286 282 287 288 286 289 290 290 291 291 290 289 293 296 294 291 292 293 293 294 295 295 295 296 297 298 297 298 298 299 299 299 298 299 298 295 293 292 292 291 290 291
289 286 283 279 283 283 278 286 288 290 291 291 287 292 293 292 292 292 293 294 294 294 295 295 296 296 297 297 298 297 297 298 297 295 292 292 291 291 290 289 288 288 289 288
287 286 285 279 282 274 283 291 291 290 291 293 293 294 294 294 295 295 295 295 295 296 296 295 295 296 297 298 298 298 297 295 292 290 290 289 289 288 287 287 288 288 288 287
292 287 281 279 275 280 285 287 288 287 287 293 293 294 295 294 292 292 295 296 296 294 295 295 295 296 296 296 297 295 291 290 289 289 289 288 287 285 286 285 287 287 286 286
290 291 285 282 273 272 283 289 291 291 283 292 293 293 293 292 288 292 294 294 294 294 294 293 294 295 294 292 292 290 289 288 288 288 288 288 287 284 284 284 284 283 286 285
282 284 282 276 273 279 287 287 292 280 282 287 293 294 292 290 293 291 292 291 292 292 291 292 292 291 290 288 288 288 288 287 288 287 286 284 284 282 283 282 282 282 282 284
282 281 280 276 272 276 288 286 286 289 287 288 289 290 291 292 291 291 290 290 290 289 288 288 287 285 285 285 287 286 285 286 282 282 282 282 280 282 283 280 281 284 285 285
279 285 283 285 283 288 288 288 289 291 289 289 289 289 291 290 289 289 288 288 286 286 284 284 283 283 283 282 283 283 282 281 281 281 278 282 281 283 284 280 283 284 285 284
283 289 283 283 286 286 288 287 288 288 289 290 290 289 290 289 288 286 285 285 284 281 280 279 279 279 279 280 281 279 280 279 284 284 282 280 280 279 279 282 282 284 284 284
284 287 282 281 282 286 285 288 289 287 287 286 286 286 289 287 285 285 283 282 282 280 279 278 279 278 278 278 278 276 278 279 280 280 280 282 282 279 279 280 280 281 281 284
286 285 285 283 287 288 288 288 288 286 286 285 285 284 285 285 284 283 281 280 279 278 277 277 276 276 275 275 274 275 276 277 277 279 278 278 278 277 278 278 279 286 287 288